[[{"header":{"parameterUnit":"m.s-1","parameterCategory":1,"la1":30.6,"la2":29.2853,"lo1":-89.7004,"lo2":-87.6739,"dy":0.0162,"dx":0.0183,"nx":112,"ny":82,"refTime":"2026-03-11T12:00:00:Z","depth":0,"parameterNumber":2,"parameterNumberName":"U-component_of_WINDS"},"data":[0.0,0.0,0.0,0.0,0.0,0.0,0.0,0.0,0.0,0.0,0.0,0.0,0.0,0.0,0.0,0.0,0.0,0.0,0.0,0.0,0.0,0.0,0.0,0.0,0.0,0.0,0.0,0.0,0.0,0.0,0.0,0.0,0.0,0.0,0.0,0.0,0.0,0.0,0.0,0.0,0.0,0.0,0.0,0.0,0.0,0.0,0.0,0.0,0.0,0.0,0.0,0.0,0.0,0.0,0.0,0.0,0.0,0.0,0.0,0.0,0.0,0.0,0.0,0.0,0.0,0.0,0.0,0.0,0.0,0.0,0.0,0.0,0.0,0.0,0.0,0.0,0.0,0.0,0.0,0.0,0.0,0.0,0.0,0.0,0.0,0.0,0.0,0.0,0.0,0.0,0.0,-1.4529,-1.4682,-1.5085,-1.5749,-1.5774,-1.5982,-1.6523,0.0,0.0,0.0,0.0,0.0,0.0,0.0,0.0,0.0,0.0,0.0,0.0,0.0,0.0,0.0,0.0,0.0,0.0,0.0,0.0,0.0,0.0,0.0,0.0,0.0,0.0,0.0,0.0,0.0,0.0,0.0,0.0,0.0,0.0,0.0,0.0,0.0,0.0,0.0,0.0,0.0,0.0,0.0,0.0,0.0,0.0,0.0,0.0,0.0,0.0,0.0,0.0,0.0,0.0,0.0,0.0,0.0,0.0,0.0,0.0,0.0,0.0,0.0,0.0,0.0,0.0,0.0,0.0,0.0,0.0,0.0,0.0,0.0,0.0,0.0,0.0,0.0,0.0,0.0,0.0,0.0,0.0,0.0,0.0,0.0,0.0,0.0,0.0,0.0,0.0,0.0,0.0,0.0,0.0,0.0,0.0,0.0,0.0,0.0,0.0,0.0,0.0,0.0,0.0,-1.521,-1.5228,-1.5316,-1.5491,-1.5779,-1.5338,-1.5413,-1.6295,0.0,0.0,0.0,0.0,0.0,0.0,0.0,0.0,0.0,0.0,0.0,0.0,0.0,0.0,0.0,0.0,0.0,0.0,0.0,0.0,0.0,0.0,0.0,0.0,0.0,0.0,0.0,0.0,0.0,0.0,0.0,0.0,0.0,0.0,0.0,0.0,0.0,0.0,0.0,0.0,0.0,0.0,0.0,0.0,0.0,0.0,0.0,0.0,0.0,0.0,0.0,0.0,0.0,0.0,0.0,0.0,0.0,0.0,0.0,0.0,0.0,0.0,0.0,0.0,0.0,0.0,0.0,0.0,0.0,0.0,0.0,0.0,0.0,0.0,0.0,0.0,0.0,0.0,0.0,0.0,0.0,0.0,0.0,0.0,0.0,0.0,0.0,0.0,0.0,0.0,0.0,0.0,0.0,0.0,0.0,0.0,0.0,0.0,0.0,0.0,0.0,0.0,0.0,-1.4994,-1.5056,-1.5118,-1.5163,-1.5194,-1.5255,-1.5008,-1.5096,-1.5667,-1.5769,0.0,0.0,0.0,0.0,0.0,0.0,0.0,0.0,0.0,0.0,0.0,0.0,0.0,0.0,0.0,0.0,0.0,0.0,0.0,0.0,0.0,0.0,0.0,0.0,0.0,0.0,0.0,0.0,0.0,0.0,0.0,0.0,0.0,0.0,0.0,0.0,0.0,0.0,0.0,0.0,0.0,0.0,0.0,0.0,0.0,0.0,0.0,0.0,0.0,0.0,0.0,0.0,0.0,0.0,0.0,0.0,0.0,0.0,0.0,0.0,0.0,0.0,0.0,0.0,0.0,0.0,0.0,0.0,0.0,0.0,0.0,0.0,0.0,0.0,0.0,0.0,0.0,0.0,0.0,0.0,0.0,0.0,0.0,0.0,0.0,0.0,0.0,0.0,0.0,0.0,0.0,0.0,0.0,0.0,0.0,0.0,0.0,0.0,0.0,0.0,0.0,0.0,-1.456,-1.4637,-1.47,-1.4732,-1.4761,-1.4777,-1.4793,-1.4917,-1.5192,-1.5254,0.0,0.0,0.0,0.0,0.0,0.0,0.0,0.0,0.0,0.0,0.0,0.0,0.0,0.0,0.0,0.0,0.0,0.0,0.0,0.0,0.0,0.0,0.0,0.0,0.0,0.0,0.0,0.0,0.0,0.0,0.0,0.0,0.0,0.0,0.0,0.0,0.0,0.0,0.0,0.0,0.0,0.0,0.0,0.0,0.0,0.0,0.0,0.0,0.0,0.0,0.0,0.0,0.0,0.0,0.0,0.0,0.0,0.0,0.0,0.0,0.0,0.0,0.0,0.0,0.0,0.0,0.0,0.0,0.0,0.0,0.0,0.0,0.0,0.0,0.0,0.0,0.0,0.0,0.0,0.0,0.0,0.0,0.0,0.0,0.0,0.0,0.0,0.0,0.0,0.0,0.0,0.0,0.0,0.0,0.0,0.0,0.0,0.0,0.0,0.0,0.0,0.0,-1.3852,-1.3885,-1.413,-1.427,-1.4445,-1.4699,-1.4761,-1.4917,-1.5192,-1.5193,0.0,0.0,0.0,0.0,0.0,0.0,0.0,0.0,0.0,0.0,0.0,0.0,0.0,0.0,0.0,0.0,0.0,0.0,0.0,0.0,0.0,0.0,0.0,0.0,0.0,0.0,0.0,0.0,0.0,0.0,0.0,0.0,0.0,0.0,0.0,0.0,0.0,0.0,0.0,0.0,0.0,0.0,0.0,0.0,0.0,0.0,0.0,0.0,0.0,0.0,0.0,0.0,0.0,0.0,0.0,0.0,0.0,0.0,0.0,0.0,0.0,0.0,0.0,0.0,0.0,0.0,0.0,0.0,0.0,0.0,0.0,0.0,0.0,0.0,0.0,0.0,0.0,0.0,0.0,0.0,0.0,0.0,0.0,0.0,0.0,0.0,0.0,0.0,0.0,0.0,0.0,0.0,0.0,0.0,0.0,0.0,0.0,0.0,0.0,0.0,0.0,0.0,-1.3585,-1.3698,0.0,-1.3898,-1.4029,-1.4292,-1.4431,-1.4604,-1.4871,0.0,0.0,0.0,0.0,0.0,0.0,0.0,0.0,0.0,0.0,0.0,0.0,0.0,0.0,0.0,0.0,0.0,0.0,0.0,0.0,0.0,0.0,0.0,0.0,0.0,0.0,0.0,0.0,0.0,0.0,0.0,0.0,0.0,0.0,0.0,0.0,0.0,0.0,0.0,0.0,0.0,0.0,0.0,0.0,0.0,0.0,0.0,0.0,0.0,0.0,0.0,0.0,0.0,0.0,0.0,0.0,0.0,0.0,0.0,0.0,0.0,0.0,0.0,0.0,0.0,0.0,0.0,0.0,0.0,0.0,0.0,0.0,0.0,0.0,0.0,0.0,0.0,0.0,0.0,0.0,0.0,0.0,0.0,0.0,0.0,0.0,0.0,0.0,0.0,0.0,0.0,0.0,0.0,0.0,0.0,0.0,0.0,0.0,0.0,0.0,0.0,0.0,-1.3126,-1.3242,-1.3302,0.0,-1.3264,-1.3396,-1.3672,-1.3784,-1.4006,-1.4356,0.0,0.0,0.0,0.0,0.0,0.0,0.0,0.0,0.0,0.0,0.0,0.0,0.0,0.0,0.0,0.0,0.0,0.0,0.0,0.0,0.0,0.0,0.0,0.0,0.0,0.0,0.0,0.0,0.0,0.0,0.0,0.0,0.0,0.0,0.0,0.0,0.0,0.0,0.0,0.0,0.0,0.0,0.0,0.0,0.0,0.0,0.0,0.0,0.0,0.0,0.0,0.0,0.0,0.0,0.0,0.0,0.0,0.0,0.0,0.0,0.0,0.0,0.0,0.0,0.0,0.0,0.0,0.0,0.0,0.0,0.0,0.0,0.0,0.0,0.0,0.0,0.0,0.0,0.0,0.0,0.0,0.0,0.0,0.0,0.0,0.0,0.0,0.0,0.0,0.0,0.0,0.0,0.0,0.0,0.0,0.0,0.0,0.0,0.0,0.0,0.0,0.0,-1.2709,-1.2709,-1.2579,-1.2328,-1.2363,-1.2507,-1.2774,-1.286,-1.314,0.0,0.0,0.0,0.0,0.0,0.0,0.0,0.0,0.0,0.0,0.0,0.0,0.0,0.0,0.0,0.0,0.0,0.0,0.0,0.0,0.0,0.0,0.0,0.0,0.0,0.0,0.0,0.0,0.0,0.0,0.0,0.0,0.0,0.0,0.0,0.0,0.0,0.0,0.0,0.0,0.0,0.0,0.0,0.0,0.0,0.0,0.0,0.0,0.0,0.0,0.0,0.0,0.0,0.0,0.0,0.0,0.0,0.0,0.0,0.0,0.0,0.0,0.0,0.0,0.0,0.0,0.0,0.0,0.0,0.0,0.0,0.0,0.0,0.0,0.0,0.0,0.0,0.0,0.0,0.0,0.0,0.0,0.0,0.0,0.0,0.0,0.0,0.0,0.0,0.0,0.0,0.0,0.0,0.0,0.0,0.0,0.0,0.0,0.0,0.0,0.0,0.0,0.0,-1.2662,-1.2449,-1.236,-1.2567,-1.2594,-1.2726,-1.2981,-1.3061,-1.3258,-1.3602,0.0,0.0,0.0,0.0,0.0,0.0,0.0,0.0,0.0,0.0,0.0,0.0,0.0,0.0,0.0,0.0,0.0,0.0,0.0,0.0,0.0,0.0,0.0,0.0,0.0,0.0,0.0,0.0,0.0,0.0,0.0,0.0,0.0,0.0,0.0,0.0,0.0,0.0,0.0,0.0,0.0,0.0,0.0,0.0,0.0,0.0,0.0,0.0,0.0,0.0,0.0,0.0,0.0,0.0,0.0,0.0,0.0,0.0,0.0,0.0,0.0,0.0,0.0,0.0,0.0,0.0,0.0,0.0,0.0,0.0,0.0,0.0,0.0,0.0,0.0,0.0,0.0,0.0,0.0,0.0,0.0,0.0,0.0,0.0,0.0,0.0,0.0,0.0,0.0,0.0,0.0,0.0,0.0,0.0,0.0,0.0,0.0,0.0,0.0,0.0,0.0,0.0,-1.2186,-1.2023,-1.187,-1.1908,-1.1902,-1.2025,-1.2349,-1.2411,-1.2668,-1.3212,0.0,0.0,0.0,0.0,0.0,0.0,0.0,0.0,0.0,0.0,0.0,0.0,0.0,0.0,0.0,0.0,0.0,0.0,0.0,0.0,0.0,0.0,0.0,0.0,0.0,0.0,0.0,0.0,0.0,0.0,0.0,0.0,0.0,0.0,0.0,0.0,0.0,0.0,0.0,0.0,0.0,0.0,0.0,0.0,0.0,0.0,0.0,0.0,0.0,0.0,0.0,0.0,0.0,0.0,0.0,0.0,0.0,0.0,0.0,0.0,0.0,0.0,0.0,0.0,0.0,0.0,0.0,0.0,0.0,0.0,0.0,0.0,0.0,0.0,0.0,0.0,0.0,0.0,0.0,0.0,0.0,0.0,0.0,0.0,0.0,0.0,0.0,0.0,0.0,0.0,0.0,0.0,0.0,0.0,0.0,0.0,0.0,0.0,0.0,0.0,0.0,0.0,-1.1544,-1.1526,-1.1303,-1.0825,-1.0771,-1.0911,-1.1285,-1.132,-1.1682,-1.2532,0.0,0.0,0.0,0.0,0.0,0.0,0.0,0.0,0.0,0.0,0.0,0.0,0.0,0.0,0.0,0.0,0.0,0.0,0.0,0.0,0.0,0.0,0.0,0.0,0.0,0.0,0.0,0.0,0.0,0.0,0.0,0.0,0.0,0.0,0.0,0.0,0.0,0.0,0.0,0.0,0.0,0.0,0.0,0.0,0.0,0.0,0.0,0.0,0.0,0.0,0.0,0.0,0.0,0.0,0.0,0.0,0.0,0.0,0.0,0.0,-1.3608,0.0,0.0,0.0,0.0,0.0,0.0,0.0,0.0,0.0,0.0,0.0,0.0,0.0,0.0,0.0,0.0,0.0,0.0,0.0,0.0,0.0,0.0,0.0,0.0,0.0,0.0,0.0,0.0,0.0,0.0,0.0,0.0,0.0,0.0,0.0,0.0,0.0,0.0,0.0,0.0,0.0,-1.1927,-1.1692,-1.1464,-1.1344,-1.1326,-1.1362,-1.1454,-1.1454,-1.1534,-1.1744,-1.1756,0.0,0.0,0.0,0.0,0.0,0.0,0.0,0.0,0.0,0.0,0.0,0.0,0.0,0.0,0.0,0.0,0.0,0.0,0.0,0.0,0.0,0.0,0.0,0.0,0.0,0.0,0.0,0.0,0.0,0.0,0.0,0.0,0.0,0.0,0.0,0.0,0.0,0.0,0.0,0.0,0.0,0.0,0.0,0.0,0.0,0.0,0.0,0.0,0.0,0.0,0.0,0.0,0.0,0.0,0.0,0.0,0.0,0.0,0.0,0.0,-1.3881,0.0,0.0,0.0,0.0,0.0,0.0,0.0,0.0,0.0,0.0,0.0,0.0,0.0,0.0,0.0,0.0,0.0,0.0,0.0,0.0,0.0,0.0,0.0,0.0,0.0,0.0,0.0,0.0,0.0,0.0,0.0,0.0,0.0,0.0,0.0,0.0,0.0,0.0,0.0,0.0,-1.1156,-1.0683,-1.0379,-1.0572,-1.0591,-1.0762,-1.118,-1.1217,-1.1292,-1.1497,-1.1497,0.0,0.0,0.0,0.0,0.0,0.0,0.0,0.0,0.0,0.0,0.0,0.0,0.0,0.0,0.0,0.0,0.0,0.0,0.0,0.0,0.0,0.0,0.0,0.0,0.0,0.0,0.0,0.0,0.0,0.0,0.0,0.0,0.0,0.0,0.0,0.0,0.0,0.0,0.0,0.0,0.0,0.0,0.0,0.0,0.0,0.0,0.0,0.0,0.0,0.0,0.0,0.0,0.0,-1.34,-1.3064,-1.1872,-1.2282,-1.254,-1.2682,-1.3271,-1.3855,-1.4383,-1.3881,0.0,0.0,0.0,0.0,0.0,0.0,0.0,0.0,0.0,0.0,0.0,0.0,0.0,0.0,0.0,0.0,0.0,0.0,0.0,0.0,0.0,0.0,0.0,0.0,-0.901,-0.8773,-0.8773,0.0,0.0,0.0,0.0,0.0,0.0,0.0,0.0,0.0,0.0,0.0,-1.027,-0.9667,-0.9307,-0.9627,-0.9571,-0.9804,-1.0595,-1.0593,-1.0734,-1.1151,-1.1169,-1.1244,0.0,0.0,0.0,0.0,0.0,0.0,0.0,0.0,0.0,0.0,0.0,0.0,0.0,0.0,0.0,0.0,0.0,0.0,0.0,0.0,0.0,0.0,0.0,0.0,0.0,0.0,0.0,0.0,0.0,0.0,0.0,0.0,-1.0797,-1.1399,0.0,0.0,0.0,0.0,0.0,0.0,0.0,0.0,0.0,0.0,0.0,0.0,0.0,-1.2417,-1.2851,-1.2883,-1.2842,-1.2801,-1.3749,-1.3902,-1.3347,-1.3804,-1.4011,-1.4023,-1.3729,0.0,-1.3266,-1.2616,0.0,0.0,0.0,0.0,0.0,0.0,0.0,0.0,0.0,0.0,0.0,0.0,0.0,0.0,0.0,0.0,0.0,0.0,0.0,0.0,0.0,0.0,-0.8371,-0.8371,-0.8117,-0.7878,0.0,-0.85,-0.9149,-0.9384,-0.9231,0.0,0.0,0.0,0.0,0.0,0.0,0.0,-1.0561,-1.0206,-0.9961,-0.9944,-0.9413,-0.9238,-0.9654,-0.9412,-0.9419,-0.9835,-0.9845,-1.0186,-1.0954,-1.06,0.0,0.0,0.0,0.0,0.0,0.0,0.0,0.0,0.0,0.0,0.0,0.0,0.0,0.0,0.0,0.0,0.0,0.0,0.0,0.0,0.0,0.0,0.0,0.0,0.0,0.0,0.0,0.0,0.0,-1.0632,-1.1147,-1.1148,-1.1516,-1.1756,0.0,0.0,0.0,0.0,0.0,0.0,0.0,0.0,0.0,-1.2172,-1.2151,-1.2257,-1.245,-1.2494,-1.2494,-1.2471,-1.3194,-1.3145,-1.2477,-1.2929,-1.282,-1.233,-1.2119,-1.1765,-1.1448,-1.2499,-1.2797,-1.2584,0.0,0.0,0.0,0.0,-1.1687,-1.1675,-1.1659,-1.1475,-1.1226,-1.0816,0.0,0.0,0.0,0.0,0.0,0.0,0.0,0.0,0.0,0.0,-0.8381,-0.8381,-0.7951,-0.7575,-0.7759,-0.7955,-0.8239,0.0,-0.8946,-0.9103,-0.9048,0.0,0.0,0.0,0.0,-0.97,-1.0213,-0.9722,-0.9383,-0.9588,-0.9335,-0.9322,-0.9744,-0.9639,-0.9559,-0.9544,-0.9547,-0.9634,-0.9824,-0.9628,-0.9628,0.0,0.0,0.0,0.0,0.0,0.0,0.0,0.0,0.0,0.0,0.0,0.0,0.0,0.0,0.0,0.0,0.0,0.0,0.0,0.0,0.0,0.0,0.0,0.0,0.0,0.0,0.0,0.0,-1.0882,-1.1128,-1.0928,-1.1265,-1.1502,0.0,0.0,0.0,0.0,0.0,0.0,-1.2636,-1.2754,-1.2625,-1.2202,-1.2314,-1.235,-1.2287,-1.2287,-1.2239,-1.2198,-1.2557,-1.2369,-1.1766,-1.2072,-1.1818,-1.1161,-1.1161,-1.0924,-1.0685,-1.2191,-1.2529,-1.2093,-1.2243,-1.189,-1.1267,-1.1213,-1.1071,-1.0931,-1.1131,-1.1099,-1.0956,-1.0647,-1.0376,-1.0092,-0.9534,0.0,0.0,0.0,0.0,-0.9119,-0.925,-0.8765,-0.8232,-0.8337,-0.7855,-0.7459,-0.7722,-0.7634,-0.7645,0.0,-0.8457,-0.87,-0.852,0.0,0.0,0.0,0.0,-0.8892,-0.9639,-0.9096,-0.8824,-0.9336,-0.9237,-0.9314,-0.9758,-0.9722,-0.9596,-0.9456,-0.9453,-0.9359,-0.9149,-0.9018,-0.8975,-0.9004,0.0,0.0,0.0,0.0,0.0,0.0,0.0,0.0,0.0,0.0,0.0,0.0,0.0,0.0,0.0,0.0,0.0,0.0,0.0,0.0,0.0,0.0,0.0,0.0,0.0,0.0,0.0,0.0,0.0,-1.0851,-1.1257,0.0,0.0,0.0,0.0,-1.2762,-1.2762,-1.2605,-1.2255,-1.2592,-1.2612,-1.222,-1.2621,-1.2737,-1.2495,-1.2469,-1.2387,-1.2187,-1.2204,-1.2223,-1.2161,-1.2178,-1.217,-1.2134,-1.2134,-1.2106,-1.2022,-1.1121,-1.0509,-1.0172,-1.0576,-1.0681,-1.0634,-1.0634,-1.0866,-1.1183,-1.12,-1.088,-1.0446,-1.0431,-0.9806,-0.903,-0.8819,-0.86,0.0,0.0,-0.8332,-0.8063,-0.8377,-0.7961,-0.7539,-0.786,-0.7659,-0.7409,-0.7422,-0.7671,-0.7873,0.0,-0.7689,-0.7582,-0.7885,0.0,-0.8076,-0.8436,-0.8442,-0.8574,-0.9007,-0.8746,-0.879,-0.9508,-0.906,-0.8864,-0.9222,-0.8956,-0.8934,-0.9298,-0.932,-0.9357,-0.9474,-0.9044,-0.8877,-0.9004,-0.8618,0.0,0.0,0.0,0.0,0.0,0.0,0.0,0.0,0.0,0.0,0.0,0.0,0.0,0.0,0.0,0.0,0.0,0.0,0.0,0.0,0.0,0.0,0.0,0.0,0.0,0.0,0.0,0.0,-1.081,-1.0707,0.0,-1.1023,-1.1023,-1.1122,-1.1351,-1.137,-1.1431,-1.1542,-1.1904,-1.2022,-1.1879,-1.2253,-1.2405,-1.2294,-1.2302,-1.2281,-1.2189,-1.2189,-1.2189,-1.2189,-1.2189,-1.2022,-1.1696,-1.1696,-1.1499,-1.1138,-1.0747,-1.0795,-1.1057,-1.0733,-1.0437,-1.0189,-1.0124,-1.0002,-0.9936,-1.0112,-1.0053,-0.9847,-0.9577,-0.9106,-0.8593,-0.8534,-0.8449,-0.8401,-0.8448,-0.8351,-0.8241,-0.8369,-0.8007,-0.7626,-0.7748,-0.7492,-0.7215,-0.7215,-0.7289,-0.7378,-0.7378,-0.7745,-0.8075,-0.8203,-0.8222,-0.8254,-0.8382,-0.8395,-0.8448,-0.858,-0.873,-0.8911,-0.9171,-0.9245,-0.9336,-0.9446,-0.9351,-0.9279,-0.9225,-0.9227,-0.9171,-0.8989,-0.8822,-0.8754,-0.8812,-0.8677,-0.8588,0.0,0.0,0.0,0.0,0.0,0.0,0.0,0.0,0.0,0.0,0.0,0.0,0.0,0.0,0.0,0.0,0.0,0.0,0.0,0.0,0.0,0.0,0.0,0.0,0.0,0.0,-1.0579,-1.0566,-1.0379,-1.0383,-1.0686,-1.0536,-1.0505,-1.0775,-1.0792,-1.0962,-1.1345,-1.1582,-1.1742,-1.1861,-1.2253,-1.2327,-1.2101,-1.2245,-1.2196,-1.1994,-1.1994,-1.1994,-1.1994,-1.1994,-1.18,-1.1458,-1.1458,-1.1261,-1.0909,-1.0617,-1.0788,-1.1158,-1.0629,-1.0264,-1.0027,-0.9943,-0.9723,-0.9526,-0.9621,-0.9566,-0.9377,-0.9119,-0.8736,-0.8389,-0.8317,-0.8184,-0.8057,-0.7967,-0.7969,-0.7969,-0.7969,-0.7723,-0.7509,-0.7509,-0.73,-0.7112,-0.7112,-0.7112,-0.7112,-0.7112,-0.7568,-0.7969,-0.7969,-0.7969,-0.7969,-0.7969,-0.7969,-0.8023,-0.8156,-0.8395,-0.8646,-0.8878,-0.9083,-0.9213,-0.9284,-0.9464,-0.9449,-0.9148,-0.938,-0.9317,-0.8892,-0.8877,-0.8826,-0.8692,-0.8645,-0.8577,-0.8529,0.0,0.0,0.0,0.0,0.0,0.0,0.0,0.0,0.0,0.0,0.0,0.0,0.0,0.0,0.0,0.0,0.0,0.0,0.0,0.0,0.0,0.0,0.0,-0.9598,-0.9831,-1.0038,-1.0103,-1.0392,-1.0573,-1.059,-1.0929,-1.115,-1.115,-1.1167,-1.1302,-1.164,-1.1655,-1.1824,-1.2169,-1.2623,-1.2564,-1.1901,-1.2285,-1.2182,-1.1591,-1.1591,-1.156,-1.156,-1.156,-1.156,-1.156,-1.156,-1.156,-1.1469,-1.0638,-1.0302,-1.0271,-1.0115,-1.0064,-1.0064,-1.0064,-1.0064,-1.0053,-0.9852,-0.947,-0.9068,-0.9068,-0.8775,-0.834,-0.8136,-0.7762,-0.7385,-0.7176,-0.7133,-0.7133,-0.7133,-0.7133,-0.7133,-0.7133,-0.7133,-0.7133,-0.7133,-0.7128,-0.7122,-0.7122,-0.7122,-0.7117,-0.7112,-0.7117,-0.7122,-0.7122,-0.7128,0.0,-0.7639,-0.772,-0.7976,-0.8617,-0.8525,-0.8495,-0.8694,-0.9176,-0.933,-0.9002,-0.9646,-0.9792,-0.9187,-0.9165,-0.9011,-0.8698,-0.8487,-0.8338,-0.8217,0.0,0.0,0.0,0.0,0.0,0.0,0.0,0.0,0.0,0.0,0.0,0.0,0.0,0.0,0.0,0.0,0.0,0.0,0.0,0.0,0.0,0.0,-0.9738,-0.9738,-0.9933,-1.0126,-1.0303,-1.0132,-1.0132,-1.0422,-1.0197,-1.0053,-1.0053,-1.0283,-1.0432,-1.0524,-1.0997,-1.131,-1.1394,-1.176,-1.1882,-1.1667,-1.1788,-1.1584,-1.1028,-1.1028,-1.0832,-1.0433,-1.0433,-1.0433,-1.0433,-1.0433,-1.0433,-1.0426,-1.019,-1.0064,-1.0043,-0.9574,-0.9381,-0.9381,-0.9381,-0.9381,-0.9358,-0.9298,-0.8974,-0.8593,-0.8593,-0.8298,-0.7962,-0.7891,-0.7786,-0.7688,-0.7623,-0.7602,-0.7602,-0.7602,-0.7602,-0.7602,-0.7602,-0.7602,-0.7602,-0.7602,-0.7467,-0.7321,-0.7321,-0.7321,-0.7267,-0.7117,-0.723,-0.7321,-0.7321,-0.7494,0.0,-0.7746,-0.8029,-0.8288,-0.8474,-0.8737,-0.8843,-0.8698,-0.8831,-0.8825,-0.8573,-0.8758,-0.8785,-0.8632,-0.8625,-0.8586,-0.848,-0.8423,-0.8397,0.0,0.0,0.0,0.0,0.0,0.0,0.0,0.0,0.0,0.0,0.0,0.0,0.0,0.0,0.0,0.0,0.0,0.0,0.0,0.0,0.0,0.0,-0.9051,-0.9257,-0.9669,-0.9815,-0.9881,-0.989,-0.9801,-0.9806,-1.0038,-0.9896,-0.9819,-0.9819,-1.0119,-1.0368,-1.0499,-1.0894,-1.1166,-1.1305,-1.1496,-1.1591,-1.1591,-1.1373,-1.1122,-1.0807,-1.0573,-1.0313,-0.9983,-0.9983,-0.9983,-0.9983,-0.9983,-0.9983,-0.999,-0.9799,-0.9709,0.0,0.0,0.0,0.0,0.0,-0.9252,-0.9193,-0.9193,-0.8864,-0.8435,-0.8435,-0.8281,-0.8081,-0.8009,-0.7976,-0.7955,-0.7828,-0.7801,-0.7801,-0.7801,-0.7801,-0.7801,-0.7801,-0.7801,-0.7801,-0.7801,-0.7693,-0.7567,-0.7567,-0.7567,0.0,-0.7408,-0.7505,-0.7567,-0.7567,-0.7715,-0.7801,-0.7801,-0.8003,-0.819,-0.8291,-0.845,-0.8545,-0.8492,-0.8587,0.0,0.0,0.0,-0.8516,-0.8401,-0.8395,0.0,0.0,0.0,0.0,0.0,0.0,0.0,0.0,-0.8033,-0.7974,0.0,0.0,0.0,0.0,0.0,0.0,0.0,0.0,0.0,0.0,0.0,0.0,0.0,0.0,0.0,0.0,-0.8714,-0.8641,-0.9446,-0.9629,-0.9555,-0.9288,-0.9453,-0.9603,-0.9639,-0.9929,-1.0119,-1.0155,-1.0455,-1.0799,-1.1085,0.0,0.0,0.0,0.0,-1.1498,-1.1498,-1.0996,-1.0674,-1.0611,-1.0155,-0.9894,-0.9831,-0.9831,-0.9831,-0.9831,-0.9831,-0.9831,-0.9799,-0.9396,-0.921,-0.9218,-0.9407,-0.9469,-0.9469,-0.9469,-0.9368,-0.921,-0.921,0.0,0.0,-0.8517,-0.8511,-0.8474,-0.8347,-0.8282,-0.8207,-0.7966,-0.7911,-0.7911,-0.7881,-0.7881,-0.7881,-0.7881,-0.7881,-0.7881,-0.7881,-0.7855,-0.7838,-0.7838,-0.7838,-0.7838,-0.7838,-0.7838,-0.7838,-0.7838,-0.7865,-0.7881,-0.7881,-0.7881,-0.7962,-0.8198,0.0,0.0,-0.8196,-0.8429,-0.8428,-0.8079,-0.8462,-0.858,-0.8342,-0.8329,-0.834,-0.8316,-0.8328,-0.8287,-0.8169,-0.8196,-0.8084,-0.7876,-0.8,-0.7977,0.0,0.0,0.0,0.0,0.0,0.0,0.0,0.0,0.0,0.0,0.0,0.0,0.0,0.0,0.0,-0.9178,-0.927,-0.9321,-0.9295,-0.9687,-0.9885,-0.957,-0.9577,-0.9716,-0.998,-1.006,-1.0207,-1.047,-1.0821,-1.1041,-1.11,-1.1357,-1.1525,-1.1591,-1.1185,-1.0958,-1.0958,-1.0408,-0.9964,-0.9588,0.0,0.0,-0.8797,-0.8797,-0.8797,-0.8797,-0.8797,-0.8797,-0.8797,-0.8705,-0.8641,-0.8668,-0.8688,-0.8703,-0.8703,-0.8703,-0.8699,-0.8641,-0.8641,-0.8576,-0.8517,-0.8673,-0.8646,-0.8538,-0.8768,-0.8756,0.0,-0.8611,-0.86,-0.8568,-0.8409,-0.8377,-0.8377,-0.8377,-0.8377,-0.8377,-0.8377,-0.8252,-0.8111,-0.8111,-0.8111,-0.8111,-0.8111,-0.8111,-0.8111,-0.8111,-0.8253,-0.8377,-0.8377,-0.8377,-0.8393,-0.8436,-0.8404,-0.8312,-0.8224,-0.8256,-0.816,-0.7889,-0.7936,-0.7973,-0.7923,-0.7923,-0.7909,-0.7914,-0.7914,-0.7911,-0.7865,-0.8084,-0.8257,-0.8366,-0.802,-0.7944,0.0,0.0,0.0,0.0,0.0,0.0,0.0,0.0,0.0,0.0,0.0,-0.8692,-0.8692,0.0,-0.9227,-0.928,-0.9263,-0.9234,-0.9166,-0.9411,-0.9674,-0.9846,-1.0002,-1.0163,-1.0331,-1.0492,-1.0653,-1.085,-1.1166,-1.1349,-1.1349,-1.1255,-1.1216,-1.1216,-1.0667,-1.0408,-1.0408,-0.9901,-0.9524,-0.9306,-0.9022,-0.8765,-0.8517,-0.8517,-0.8517,-0.8517,-0.8517,-0.8517,-0.8517,-0.8517,-0.8517,-0.8517,-0.8517,-0.8517,-0.8517,-0.8517,-0.8517,-0.8517,-0.8517,-0.8517,-0.8511,-0.8608,-0.8576,-0.8549,-0.8705,-0.8705,-0.8641,-0.8641,-0.8641,-0.8614,-0.8517,-0.8517,-0.8517,-0.8517,-0.8517,-0.8517,-0.8517,-0.842,-0.8365,-0.8365,-0.8365,-0.8365,-0.8365,-0.8365,-0.8365,-0.8365,-0.8436,-0.8517,-0.8517,-0.8517,-0.8517,-0.8517,-0.8517,-0.8463,-0.8376,-0.8252,-0.8079,-0.7812,-0.7801,-0.7801,-0.7801,-0.7801,-0.7855,-0.8003,-0.8097,-0.8215,-0.8365,-0.8598,-0.8743,-0.8817,-0.8187,-0.7972,0.0,0.0,0.0,0.0,0.0,0.0,0.0,0.0,-0.8224,-0.796,-0.8582,-0.9094,-0.8736,-0.8972,-0.9235,-0.9261,-0.9078,-0.8988,-0.9092,-0.9141,-0.9411,-0.9932,-1.0187,-1.0329,-1.0386,-1.0658,-1.0829,-1.0886,-1.1129,-1.1303,-1.1303,-1.0895,-1.0643,-1.0643,-1.0155,-0.9862,-0.9862,-0.9396,-0.9145,-0.9145,-0.8705,-0.8517,-0.8517,-0.8517,-0.8517,-0.8517,-0.8517,-0.8517,-0.8517,-0.8517,-0.8517,-0.8522,-0.8565,-0.8581,-0.8581,-0.8581,-0.8608,-0.8651,-0.8684,-0.869,-0.8717,-0.8783,-0.875,-0.8717,-0.8783,-0.875,-0.8673,-0.8625,-0.8652,-0.8663,-0.8538,-0.8419,-0.837,-0.8425,-0.8382,-0.8317,-0.8414,-0.8479,-0.8517,-0.8517,-0.8517,-0.8517,-0.8517,-0.8517,-0.8517,-0.8517,-0.8517,-0.8517,-0.8517,-0.8517,-0.8517,-0.8517,-0.8517,-0.8517,-0.8517,-0.8365,-0.8171,-0.7951,-0.7978,-0.7984,-0.7941,-0.8027,-0.8171,-0.8348,-0.8528,-0.8743,-0.8965,-0.9018,-0.9023,-0.9023,-0.8246,-0.7955,-0.9082,-0.91,-0.8728,-0.8561,-0.8354,-0.8341,0.0,0.0,-0.8626,-0.859,-0.8921,-0.9061,-0.8615,-0.8993,-0.9234,-0.8852,-0.8937,-0.9086,-0.9091,-0.934,-0.9576,-0.9635,-0.9436,-0.9398,-0.9685,-0.9736,-0.9883,-1.0115,-1.0161,-1.018,-1.018,-1.0117,-1.0085,-1.0085,-0.962,-0.937,-0.937,-0.8861,-0.8576,-0.8576,-0.8517,-0.8517,-0.8517,-0.8517,-0.8517,-0.8517,-0.8517,-0.8517,-0.8517,-0.8517,-0.8517,-0.8533,-0.8776,-0.8857,-0.8857,-0.8857,-0.8953,-0.9165,-0.9315,-0.939,-0.9459,-0.98,-0.9662,-0.9459,-0.9725,-0.9627,-0.9346,-0.9114,-0.9213,-0.9256,-0.8657,-0.8195,-0.7947,-0.8186,-0.7912,-0.7722,-0.8139,-0.8376,-0.8517,-0.8517,-0.8517,-0.8517,-0.8517,-0.8517,-0.8517,-0.8517,-0.8517,-0.8517,-0.8517,-0.8517,-0.8517,-0.8517,-0.8517,-0.8517,-0.8517,-0.849,-0.8463,-0.8436,-0.863,-0.8684,-0.8441,-0.8829,-0.8964,-0.8819,-0.9012,-0.9141,-0.9168,-0.8636,-0.8413,-0.8381,-0.7818,-0.7805,-0.8921,0.0,0.0,0.0,-0.8559,-0.8689,-0.8346,-0.843,-0.8463,-0.8021,-0.8364,-0.8636,-0.8365,-0.8696,-0.8939,0.0,-0.886,-0.8871,-0.8753,-0.8868,-0.8969,-0.8969,-0.8839,-0.9029,-0.9756,-0.9825,-0.9869,-0.9977,-0.9983,-0.9983,-0.9983,-0.9741,-0.9582,-0.9582,-0.9113,-0.8829,-0.8829,-0.8608,-0.8517,-0.8517,-0.8517,-0.8517,-0.8517,-0.8517,-0.8517,-0.8517,-0.8517,-0.8517,-0.8517,-0.8517,-0.8597,-0.876,-0.8857,-0.9137,-0.9471,-0.9299,-0.9309,-0.9392,-0.9613,-0.9683,-0.9683,-0.9753,-0.9648,-0.9508,-0.9526,-0.9421,-0.919,-0.8632,-0.8783,-0.8889,-0.7798,-0.7886,-0.8132,-0.7525,-0.7507,-0.7683,-0.7849,-0.7683,-0.7722,-0.841,-0.8371,-0.8337,-0.8683,-0.8813,-0.8915,-0.8915,-0.8689,-0.8517,-0.8517,-0.8517,-0.8565,-0.8705,-0.884,-0.8915,-0.8915,-0.8915,-0.8915,-0.8915,-0.9007,-0.8811,-0.8235,-0.8404,-0.822,-0.7564,-0.7837,-0.7937,-0.7854,-0.784,-0.784,-0.7806,-0.7084,-0.6854,-0.8543,0.0,0.0,-0.8262,-0.8482,-0.8644,-0.7863,-0.8085,-0.829,-0.7676,-0.8006,-0.8361,-0.8216,-0.8423,-0.8617,-0.8627,-0.8666,-0.8654,-0.8522,-0.8517,-0.8517,-0.8517,-0.8517,-0.8797,-0.9518,-0.9582,-0.9582,-0.9582,-0.9582,-0.9582,-0.9582,-0.9268,-0.9081,-0.9081,-0.8705,-0.8517,-0.8517,-0.8517,-0.8549,-0.8608,-0.8608,-0.8608,-0.8608,-0.8544,-0.8517,-0.8517,-0.8517,-0.8517,-0.8522,-0.8587,-0.8711,-0.8911,-0.9109,-0.9482,-0.9888,-0.9884,-0.9809,-0.9809,-0.9952,-0.9987,-0.9987,-0.9809,-0.9595,-0.9339,-0.9185,-0.9077,-0.8811,-0.7995,-0.8239,-0.8478,-0.7147,-0.7338,-0.7718,-0.6916,-0.694,-0.7189,-0.7331,-0.7082,-0.7051,-0.7938,-0.7868,-0.7792,-0.8252,-0.8428,-0.8509,-0.8483,-0.8365,-0.8373,-0.8672,-0.8651,-0.8651,-0.8787,-0.8915,-0.9012,-0.9012,-0.884,-0.8732,-0.8732,-0.8617,-0.824,-0.7589,-0.7712,-0.746,-0.671,-0.7021,-0.7171,-0.7074,-0.7112,-0.7157,-0.7119,-0.6279,-0.5876,0.0,0.0,-0.7618,-0.7866,-0.7936,-0.7923,-0.7904,-0.8146,-0.8305,-0.7942,-0.8165,-0.8344,-0.813,-0.8282,-0.8367,-0.8231,-0.8376,-0.8506,-0.8517,-0.8517,-0.8517,-0.8517,-0.8517,-0.8517,0.0,-0.8544,-0.8544,-0.8544,-0.8544,-0.8544,-0.8544,-0.8549,-0.8517,-0.8517,-0.8517,-0.8517,-0.8517,-0.8517,-0.863,-0.8884,-0.8884,-0.8884,-0.8879,-0.8619,-0.8517,-0.8517,-0.8517,-0.8517,-0.8533,-0.8792,-0.889,-0.8978,-0.9622,-0.9888,-0.9969,-1.0558,-1.064,-1.0458,-1.0496,-1.0496,-1.0496,-1.0458,-0.9814,-0.9021,-0.9021,-0.8723,-0.8226,-0.7356,-0.7739,-0.8181,-0.7073,-0.6488,-0.6231,-0.6471,-0.6115,-0.5904,-0.6433,-0.669,-0.6801,-0.6837,-0.6837,-0.6837,-0.6873,-0.6873,-0.6812,-0.6704,-0.7277,-0.8061,-0.9044,-0.9025,-0.8803,-0.8549,-0.8533,-0.8533,-0.8533,-0.7937,-0.754,-0.754,-0.7131,-0.6738,-0.6453,-0.7026,-0.7187,-0.6888,-0.7273,-0.749,-0.7482,-0.6657,-0.624,-0.6202,-0.5401,-0.5114,0.0,0.0,-0.8025,-0.7665,-0.7904,-0.81,-0.7555,-0.7697,-0.7833,-0.7453,-0.7562,-0.7762,-0.7889,-0.8104,-0.8292,-0.8387,-0.8463,-0.8517,-0.8517,-0.8517,-0.8517,-0.8517,-0.8517,0.0,0.0,0.0,0.0,-0.8517,-0.8517,-0.8517,-0.8517,-0.8517,-0.8517,-0.8517,-0.8517,-0.8517,-0.8517,-0.8517,-0.8554,-0.8635,-0.8819,-0.8976,-0.9087,-0.9007,-0.8969,-0.8969,-0.8969,-0.8969,-0.898,-0.9055,-0.9289,-0.96,-0.9802,-1.014,-1.0441,-0.9991,-0.9863,-0.9976,-1.0513,-1.0244,-0.9679,-0.9528,-0.8917,-0.8185,-0.8037,-0.7927,-0.7609,-0.6748,-0.7042,-0.7294,-0.5936,-0.6135,-0.6422,-0.5692,-0.5683,-0.5868,-0.6057,-0.5834,-0.5875,-0.6697,-0.6622,-0.6543,-0.6993,-0.7177,-0.7265,-0.7204,-0.7412,-0.7856,-0.8685,-0.8842,-0.8868,-0.8787,-0.8477,-0.8289,-0.8289,-0.766,-0.7242,-0.7242,-0.7181,-0.6857,-0.6219,-0.644,-0.6249,-0.5507,-0.5812,-0.5902,-0.5717,-0.5593,-0.548,-0.5401,-0.5213,-0.5148,0.0,-0.7566,-0.7711,-0.7364,-0.7612,-0.7788,-0.7278,-0.7342,-0.743,-0.7253,-0.724,-0.7412,-0.7849,-0.8009,-0.816,-0.8463,-0.8517,-0.8517,-0.8517,-0.8517,-0.8517,-0.8517,-0.8517,-0.8517,0.0,0.0,0.0,-0.8635,-0.856,-0.8554,-0.8635,-0.856,-0.8517,-0.8517,-0.8517,-0.8517,-0.8517,-0.8597,-0.8727,-0.8899,-0.9084,-0.923,-0.9335,-0.9244,-0.9206,-0.9206,-0.9206,-0.9206,-0.9211,-0.9303,-0.9396,-0.9473,-0.9548,-0.9665,-0.975,-0.9107,-0.8912,-0.9021,-0.955,-0.9286,-0.8723,-0.8537,-0.7923,-0.7191,-0.708,-0.6965,-0.6777,-0.5973,-0.6244,-0.6475,-0.5285,-0.5595,-0.6018,-0.521,-0.5285,-0.5592,-0.5592,-0.5287,-0.5249,-0.6057,-0.5977,-0.5899,-0.636,-0.6461,-0.6634,-0.6881,-0.6897,-0.7137,-0.7962,-0.8165,-0.824,-0.8162,-0.7894,-0.7695,-0.7695,-0.7011,-0.6619,-0.6619,-0.6485,-0.6182,-0.5611,-0.5721,-0.5452,-0.4798,-0.5026,-0.505,-0.4863,-0.5053,-0.5108,-0.508,-0.5151,-0.5233,-0.695,-0.6912,-0.6779,-0.7031,-0.7112,-0.7112,-0.7112,-0.7117,-0.7171,-0.7374,-0.7256,-0.7371,0.0,0.0,-0.7984,-0.8441,-0.8517,-0.8517,-0.8517,-0.8517,-0.8517,0.0,0.0,0.0,0.0,0.0,0.0,-0.8917,0.0,-0.8624,-0.89,-0.8662,-0.8538,-0.8549,-0.8549,-0.8549,-0.8549,-0.8803,-0.9149,-0.9614,-0.9614,-0.9619,-0.9625,-0.9351,-0.9244,-0.9238,-0.9238,-0.9244,-0.9224,-0.946,-0.9223,-0.8687,-0.8882,-0.858,-0.808,-0.8042,-0.7884,-0.7723,-0.7685,-0.7685,-0.7685,-0.7498,-0.6853,-0.6128,-0.6128,-0.6012,-0.5747,-0.5171,-0.5401,-0.5709,-0.5132,-0.5018,-0.5018,-0.5018,-0.5018,-0.5018,-0.5018,-0.5018,-0.5018,-0.5018,-0.5018,-0.5018,-0.5018,-0.4887,-0.5042,-0.5777,-0.5756,-0.6023,-0.6962,-0.7085,-0.7017,-0.6817,-0.6766,-0.673,-0.673,-0.6083,-0.5656,-0.5656,-0.5098,-0.4781,-0.4703,-0.489,-0.4922,-0.4806,-0.4925,-0.5026,-0.5026,-0.5031,-0.5091,-0.5197,-0.5203,-0.533,-0.6816,-0.6907,-0.7009,-0.7095,-0.7112,-0.7112,-0.7112,-0.7225,-0.7347,-0.7378,-0.7677,-0.796,0.0,0.0,0.0,-0.8495,-0.8517,0.0,-0.8517,-0.8517,0.0,0.0,0.0,-0.8587,-0.8792,-0.8809,0.0,0.0,-0.8851,-0.8689,-0.9098,-0.8933,-0.8851,-0.9023,-0.9028,-0.9028,-0.9028,-0.9087,-0.927,-0.9614,-0.9614,-0.9669,-0.983,-0.9766,-0.9813,-0.9955,-0.9955,-0.9691,-0.9283,-0.92,-0.8807,-0.8241,-0.8129,-0.8114,-0.8003,-0.7195,-0.6884,-0.6731,-0.5973,-0.6086,-0.6584,-0.6546,-0.5973,-0.5323,-0.5323,-0.5287,-0.521,-0.5054,-0.5093,-0.521,-0.5054,-0.5018,-0.5018,-0.5018,-0.5018,-0.5018,-0.5018,-0.5018,-0.5018,-0.5018,-0.5018,-0.5018,-0.5018,-0.5061,-0.5147,-0.5334,-0.5365,-0.569,-0.6753,-0.6872,-0.6849,-0.6805,-0.6301,-0.5979,-0.5979,-0.5333,-0.4939,-0.4939,-0.4839,-0.4782,-0.479,-0.4936,-0.5002,-0.4933,-0.5086,-0.5143,-0.5143,-0.5235,-0.5336,-0.5366,-0.5415,-0.5448,-0.6896,-0.6982,-0.7112,-0.7112,-0.7112,-0.7112,-0.7112,-0.7245,-0.7421,-0.7551,-0.7812,0.0,0.0,0.0,0.0,0.0,0.0,0.0,-0.8528,-0.8517,-0.8517,0.0,-0.8517,0.0,-0.8873,-0.8895,-0.91,0.0,-0.9109,-0.8931,-0.919,-0.9082,-0.9057,-0.9055,-0.9152,-0.9254,-0.9367,-0.9367,-0.9491,-0.9728,-0.9728,-0.9793,-0.9884,-0.9884,-0.9992,-1.0218,0.0,-0.9798,-0.915,-0.9036,-0.8389,-0.7437,-0.7195,-0.7003,-0.6777,-0.6086,-0.5857,-0.5741,-0.521,-0.5285,-0.5667,-0.5667,-0.5362,-0.5018,-0.5018,-0.5018,-0.5018,-0.5018,-0.5018,-0.5018,-0.5018,-0.5018,-0.5018,-0.5018,-0.5018,-0.5018,-0.5018,-0.5018,-0.5018,-0.5018,-0.5018,-0.5018,-0.5018,-0.5069,-0.511,-0.511,-0.511,-0.5336,-0.5917,-0.6013,-0.6,-0.6,-0.5628,-0.5405,-0.5405,-0.5035,-0.4849,-0.4849,-0.4923,-0.4966,-0.4879,-0.5029,-0.5067,-0.5018,-0.5129,-0.5186,-0.5186,-0.535,-0.5398,-0.545,-0.5475,-0.5534,-0.7031,-0.7112,-0.7112,-0.7112,-0.7112,-0.7122,-0.7117,-0.7272,-0.7524,-0.7758,0.0,0.0,-0.8431,0.0,-0.8517,-0.8517,0.0,-0.8782,-0.8544,-0.8517,-0.8517,-0.8517,-0.8544,-0.8657,-0.8922,-0.8971,-0.9176,-0.9588,-0.9421,-0.9287,-0.9254,-0.9254,-0.9179,-0.9041,-0.9195,-0.9405,-0.962,-0.9626,-0.9723,-0.9884,-0.9884,-0.9884,-0.9884,-0.9884,-0.9992,-1.0218,-1.0218,-0.9685,-0.8884,-0.8846,-0.7893,-0.6405,-0.6131,-0.5705,-0.5243,-0.5054,-0.5018,-0.5018,-0.5018,-0.5018,-0.5018,-0.5018,-0.5018,-0.5018,-0.5018,-0.5018,-0.5018,-0.5018,-0.5018,-0.5018,-0.5018,-0.5018,-0.5018,-0.5018,-0.5018,-0.5018,-0.5018,-0.5018,-0.5018,-0.5018,-0.5018,-0.5018,-0.5018,-0.5029,-0.504,-0.504,-0.504,-0.504,-0.504,-0.5026,-0.5018,-0.5018,-0.5018,-0.5018,-0.5018,-0.5018,-0.5018,-0.5018,-0.5108,-0.5127,-0.5042,-0.5135,-0.5148,-0.5064,-0.5162,-0.5219,-0.5235,-0.5341,-0.5455,-0.5532,-0.5532,-0.5588,-0.7101,-0.7112,-0.7112,-0.7112,-0.7235,-0.731,-0.7128,-0.7424,0.0,0.0,0.0,-0.8203,-0.8463,-0.8517,0.0,-0.8517,0.0,0.0,0.0,0.0,-0.8517,0.0,0.0,0.0,0.0,0.0,0.0,0.0,0.0,-0.9712,-0.9523,-0.9549,-0.9583,-0.9733,-0.9776,-0.9814,-0.9863,-0.9863,-0.9879,-0.9884,-0.9884,-0.9884,-0.9884,-0.9884,-0.9992,-1.0218,-1.0218,0.0,-0.8237,-0.8075,-0.7042,-0.5515,-0.5285,-0.5132,-0.5054,-0.5018,-0.5018,-0.5018,-0.5018,-0.5018,-0.5018,-0.5018,-0.5018,-0.5018,-0.5018,-0.5018,-0.5018,-0.5018,-0.5018,-0.5018,-0.5018,-0.5018,-0.5018,-0.5018,-0.5018,-0.5018,-0.5018,-0.5018,-0.5018,-0.5018,-0.5018,-0.5018,-0.5018,-0.5094,-0.5156,-0.5156,-0.5156,-0.5156,-0.5156,-0.5075,-0.5018,-0.5018,-0.5018,-0.5018,-0.5018,-0.5018,-0.5018,-0.5018,-0.5034,-0.508,-0.5154,-0.5175,-0.5224,-0.5347,-0.5369,-0.5388,-0.5445,-0.5464,-0.5537,-0.5656,-0.5656,-0.5669,-0.7112,-0.7112,-0.7112,-0.7112,-0.7171,-0.7235,-0.7245,0.0,0.0,0.0,0.0,-0.8068,-0.8311,0.0,0.0,0.0,0.0,0.0,0.0,0.0,0.0,0.0,0.0,0.0,0.0,0.0,0.0,0.0,0.0,-0.9637,-0.94,-0.9383,-0.955,-0.9868,-0.9884,-0.9884,-0.9884,-0.9884,-0.9884,-0.9884,-0.9884,-0.9884,-0.9884,-0.9884,-0.9992,-1.0218,-1.0218,-0.9533,-0.8389,-0.7957,-0.6927,-0.5553,-0.5171,-0.5018,-0.5018,-0.5018,-0.5018,-0.5018,-0.5018,-0.5018,-0.5018,-0.5018,-0.5018,-0.5018,-0.5018,-0.5018,-0.5018,-0.5018,-0.5018,-0.5018,-0.5018,-0.5018,-0.5018,-0.5018,-0.5018,-0.5018,-0.5018,-0.5064,-0.5089,-0.5029,-0.5064,-0.5105,-0.5105,-0.5148,-0.5208,-0.5314,-0.5322,-0.5322,-0.5322,-0.5235,-0.5154,-0.5029,-0.5069,-0.5105,-0.5105,-0.5165,-0.52,-0.52,-0.52,-0.5224,-0.532,-0.5322,-0.535,-0.541,-0.5431,-0.5448,-0.5508,-0.5572,-0.5632,-0.5688,-0.5688,-0.5721,-0.7149,-0.7122,-0.7112,-0.7112,-0.7122,-0.7198,-0.7315,-0.7357,0.0,0.0,0.0,-0.7795,0.0,0.0,0.0,0.0,0.0,0.0,0.0,0.0,0.0,0.0,0.0,0.0,0.0,0.0,0.0,0.0,0.0,0.0,-0.9211,-0.9206,-0.94,-0.9836,-0.9846,-0.9873,-0.9884,-0.9873,-0.9873,-0.9884,-0.9884,-0.9884,-0.9884,-0.9884,-0.9992,-1.0143,-1.0143,-0.9576,-0.8661,-0.7999,-0.7042,-0.5899,-0.5246,-0.5018,-0.5018,-0.5018,-0.5018,-0.5018,-0.5018,-0.5018,-0.5018,-0.5018,-0.5018,-0.5018,-0.5018,-0.5018,-0.5018,-0.5018,-0.5018,-0.5018,-0.5018,-0.5018,-0.5018,-0.5018,-0.5018,-0.5018,-0.5018,-0.5105,-0.5159,-0.5069,-0.5146,-0.5224,-0.5224,-0.5224,-0.5298,-0.5396,-0.541,-0.541,-0.541,-0.541,-0.5298,-0.5113,-0.5173,-0.5224,-0.5224,-0.5355,-0.541,-0.541,-0.541,-0.5421,-0.5407,-0.5409,-0.542,-0.5447,-0.5497,-0.5545,-0.5545,-0.5642,-0.5688,-0.5688,-0.5715,-0.5817,-0.7331,-0.7224,-0.7112,-0.7112,-0.7224,-0.7337,-0.7165,0.0,0.0,0.0,-0.7442,-0.7524,-0.779,0.0,0.0,0.0,0.0,0.0,0.0,0.0,0.0,0.0,0.0,0.0,0.0,0.0,0.0,0.0,0.0,-0.9041,-0.9195,-0.9206,-0.933,-0.9604,-0.961,-0.9712,-0.9879,-0.9717,-0.9717,-0.9884,-0.9884,-0.9884,-0.9884,-0.9884,-0.9922,-0.9922,-0.9922,-0.9463,0.0,-0.7851,-0.7003,-0.6089,-0.5323,-0.5018,-0.5018,-0.5018,-0.5018,-0.5018,-0.5018,-0.5018,-0.5018,-0.5018,-0.5018,-0.5018,-0.5018,-0.5018,-0.5018,-0.5018,-0.5018,-0.5018,-0.5018,-0.5018,-0.5018,-0.5018,-0.5018,-0.5018,-0.5018,-0.5105,-0.5184,-0.5173,-0.5312,-0.5394,-0.5394,-0.5394,-0.5399,-0.541,-0.541,-0.541,-0.541,-0.541,-0.5402,-0.538,-0.5388,-0.5394,-0.5394,-0.5405,-0.541,-0.541,-0.541,-0.542,-0.5486,-0.5491,-0.5543,-0.5653,-0.5667,-0.5672,-0.5672,-0.5683,-0.5688,-0.5691,-0.5839,-0.5893,-0.7203,-0.716,-0.7112,-0.7112,-0.7155,-0.7241,-0.7267,0.0,0.0,-0.7602,-0.7491,-0.7438,-0.7731,-0.7653,0.0,0.0,0.0,0.0,0.0,0.0,0.0,0.0,0.0,0.0,0.0,0.0,0.0,0.0,0.0,-0.8985,-0.8797,-0.905,-0.9383,-0.9771,-0.9782,-0.983,-0.9884,-0.983,-0.983,-0.9884,-0.9884,-0.9884,-0.9884,-0.9884,-0.9884,-0.9884,-0.9884,-0.9657,0.0,-0.7965,-0.7234,-0.6665,-0.5479,-0.5018,-0.5018,-0.5018,-0.5018,-0.5018,-0.5018,-0.5018,-0.5018,-0.5018,-0.5018,-0.5018,-0.5018,-0.5018,-0.5018,-0.5018,-0.5018,-0.5018,-0.5018,-0.5067,-0.5137,-0.5211,-0.5227,-0.5227,-0.5227,-0.5322,-0.5385,-0.5309,-0.5396,-0.5477,-0.5477,-0.5477,-0.5504,-0.5578,-0.5589,-0.5589,-0.5589,-0.5589,-0.5589,-0.5589,-0.5523,-0.5477,-0.5477,-0.5545,-0.5589,-0.5589,-0.5589,-0.561,-0.5615,-0.5615,-0.564,-0.5688,-0.5688,-0.5688,-0.5688,-0.5688,-0.5723,-0.5836,-0.5882,-0.5983,-0.7171,-0.7139,-0.7112,-0.7112,-0.7112,-0.7128,0.0,0.0,-0.7378,-0.7641,-0.7548,-0.7472,-0.7663,-0.7535,-0.753,0.0,0.0,0.0,0.0,0.0,0.0,0.0,0.0,0.0,0.0,0.0,0.0,0.0,0.0,-0.8888,-0.863,-0.8926,-0.926,-0.9599,-0.9744,-0.982,-0.982,-0.982,-0.9852,-0.9884,-0.9652,-0.9539,-0.9539,-0.9306,-0.9188,-0.9188,-0.9188,-0.9112,0.0,-0.7621,-0.7046,-0.678,-0.5515,-0.5018,-0.5018,-0.5018,-0.5018,-0.5018,-0.5018,-0.5018,-0.5018,-0.5018,-0.5018,-0.5018,-0.5018,-0.5018,-0.5018,-0.5018,-0.5018,-0.5023,-0.5059,-0.5102,-0.5175,-0.5375,-0.5383,-0.5366,-0.5402,-0.5464,-0.5483,-0.5439,-0.5521,-0.5561,-0.5561,-0.5561,-0.5588,-0.5677,-0.5688,-0.5688,-0.5688,-0.5688,-0.5688,-0.5688,-0.5613,-0.5561,-0.5561,-0.564,-0.5688,-0.5688,-0.5688,-0.5688,-0.5688,-0.5688,-0.5688,-0.5688,-0.5688,-0.5688,-0.5688,-0.5723,-0.5825,-0.5904,-0.5977,-0.6121,-0.7353,-0.724,-0.7112,-0.7112,-0.7112,-0.7112,0.0,-0.7203,-0.7329,-0.738,-0.7564,-0.7643,-0.7428,-0.7399,-0.7399,-0.7399,-0.7621,0.0,0.0,0.0,0.0,0.0,0.0,0.0,0.0,0.0,0.0,0.0,0.0,0.0,-0.8884,-0.8895,-0.89,-0.8911,-0.9371,-0.9619,-0.9619,-0.9619,-0.9696,-0.9879,-0.9084,-0.8703,-0.8699,-0.7884,-0.7536,-0.7536,-0.7536,-0.754,0.0,-0.6584,-0.6202,-0.6125,-0.5323,-0.5018,-0.5018,-0.5018,-0.5018,-0.5018,-0.5018,-0.5018,-0.5018,-0.5018,-0.5018,-0.5018,-0.5018,-0.5018,-0.5018,-0.5018,-0.5018,-0.5042,-0.5156,-0.5102,-0.5078,-0.5355,-0.5317,-0.5222,-0.5383,-0.5464,-0.5508,-0.5505,-0.5605,-0.5688,-0.5688,-0.5688,-0.5688,-0.5688,-0.5688,-0.5688,-0.5688,-0.5688,-0.5688,-0.5688,-0.5688,-0.5688,-0.5688,-0.5688,-0.5688,-0.5688,-0.5688,-0.5688,-0.5688,-0.5688,-0.5688,-0.5688,-0.5688,-0.5688,-0.5688,-0.5847,-0.5901,-0.5909,-0.6151,-0.6325,-0.7182,-0.7144,-0.7112,-0.7112,-0.7171,-0.723,-0.723,-0.7333,-0.7409,-0.7362,-0.7533,-0.7699,-0.769,-0.753,-0.7554,-0.8066,-0.7962,0.0,0.0,0.0,0.0,0.0,0.0,0.0,0.0,0.0,0.0,0.0,-0.8825,-0.8819,-0.8895,-0.9208,-0.9387,-0.9387,-0.9533,-0.9653,-0.9809,-0.9248,-0.9015,-0.9084,-0.8271,-0.7889,-0.7889,-0.7617,-0.7502,-0.7502,-0.7502,-0.7502,-0.7425,-0.6546,-0.6202,-0.6125,-0.5323,-0.5018,-0.5018,-0.5018,-0.5018,-0.5018,-0.5018,-0.5018,-0.5018,-0.5018,-0.5018,-0.5018,-0.5018,-0.5018,-0.5018,-0.5018,-0.5072,-0.5162,-0.5322,-0.5347,-0.5378,-0.5581,-0.5589,-0.557,-0.561,-0.5605,-0.5632,-0.5632,-0.5661,-0.5688,-0.5688,-0.5688,-0.5688,-0.5688,-0.5688,-0.5688,-0.5688,-0.5688,-0.5688,-0.5688,-0.5688,-0.5688,-0.5688,-0.5688,-0.5688,-0.5688,-0.5688,-0.5688,-0.5688,-0.5688,-0.5688,-0.5688,-0.5809,-0.585,-0.585,-0.5969,-0.607,-0.6157,-0.6312,-0.6401,0.0,-0.7246,-0.7171,-0.7171,-0.7279,-0.7365,-0.7365,-0.744,-0.7495,-0.7461,-0.76,-0.7721,-0.7787,-0.7653,-0.7701,-0.8172,-0.807,0.0,0.0,0.0,0.0,0.0,0.0,0.0,0.0,0.0,0.0,0.0,-0.8751,-0.8545,-0.8545,-0.8563,-0.857,-0.8644,-0.9285,-0.9357,-0.8838,-0.8661,-0.847,-0.8237,-0.7391,-0.7003,-0.7007,-0.67,-0.6549,-0.6549,-0.6549,-0.6549,0.0,-0.5973,-0.5744,-0.5705,-0.521,-0.5018,-0.5018,-0.5018,-0.5018,-0.5018,-0.5018,-0.5018,-0.5018,-0.5018,-0.5018,-0.5018,-0.5018,-0.5018,-0.5018,-0.5018,-0.5099,-0.5214,-0.5377,-0.5426,-0.5481,-0.5648,-0.5653,-0.5634,-0.568,-0.5688,-0.5688,-0.5688,-0.5688,-0.5688,-0.5688,-0.5688,-0.5688,-0.5688,-0.5688,-0.5688,-0.5688,-0.5688,-0.5688,-0.5688,-0.5688,-0.5688,-0.5688,-0.5688,-0.5688,-0.5688,-0.5688,-0.5688,-0.5688,-0.5688,-0.571,-0.5753,-0.5866,-0.5926,-0.5972,-0.6094,-0.6217,-0.6333,-0.6404,-0.6387,0.0,-0.7568,-0.7338,-0.7317,-0.7413,-0.7515,-0.7515,-0.7521,0.0,-0.7656,-0.7689,-0.7692,-0.7787,-0.7801,-0.7812,-0.7844,0.0,0.0,0.0,0.0,0.0,0.0,0.0,0.0,0.0,0.0,0.0,-0.9138,-0.8362,-0.7903,-0.7952,-0.7246,-0.6897,-0.7031,-0.8595,-0.868,-0.7146,-0.7887,-0.7974,-0.7387,-0.6549,-0.6125,-0.6089,-0.5323,-0.5018,0.0,-0.5018,-0.5018,-0.5018,-0.5018,-0.5018,-0.5018,-0.5018,-0.5018,-0.5018,-0.5018,-0.5018,-0.5018,-0.5018,-0.5018,-0.5018,-0.5018,-0.5018,-0.5018,-0.5018,-0.5018,-0.5018,-0.5018,-0.5099,-0.5214,-0.5377,-0.5418,-0.5442,-0.5634,-0.5602,-0.5551,-0.5664,-0.5688,-0.5688,-0.5688,-0.5688,-0.5688,-0.5688,-0.5688,-0.5688,-0.5688,-0.5688,-0.5688,-0.5688,-0.5688,-0.5688,-0.5688,-0.5688,-0.5688,-0.5688,-0.5688,-0.5688,-0.5688,-0.5688,-0.5694,-0.5699,-0.5702,-0.5756,-0.5915,-0.5923,-0.5988,-0.6111,-0.6225,-0.6333,-0.6387,-0.6387,-0.6387,-0.854,0.0,-0.7842,-0.7521,-0.7542,-0.7643,0.0,-0.7568,-0.7511,0.0,0.0,0.0,0.0,0.0,0.0,0.0,0.0,0.0,0.0,0.0,0.0,0.0,0.0,0.0,0.0,0.0,0.0,-0.8524,-0.7624,-0.7144,-0.7314,-0.7139,-0.6853,-0.6412,-0.7294,-0.7638,-0.7403,-0.695,-0.6665,-0.6507,-0.5667,-0.5285,-0.5285,-0.5093,-0.5018,-0.5018,-0.5018,-0.5018,-0.5018,-0.5018,-0.5018,-0.5018,-0.5018,-0.5018,-0.5018,-0.5018,-0.5018,-0.5018,-0.5018,-0.5018,-0.5018,-0.5018,-0.5018,-0.5018,-0.5018,-0.5018,-0.5018,-0.5018,-0.5099,-0.5214,-0.5377,-0.5436,-0.5502,-0.5653,-0.5667,-0.5653,-0.5683,-0.5688,-0.5688,-0.5688,-0.5688,-0.5688,-0.5688,-0.5688,-0.5688,-0.5688,-0.5688,-0.5688,-0.5688,-0.5688,-0.5688,-0.5688,-0.5688,-0.5688,-0.5688,-0.5688,-0.5688,-0.5688,-0.5688,-0.5729,-0.5858,-0.5863,-0.592,-0.604,-0.6135,-0.6238,-0.6352,-0.6382,-0.6363,-0.6387,-0.6387,-0.6387,-0.8687,-0.8293,-0.7857,-0.7649,-0.7702,-0.7783,-0.7723,0.0,0.0,0.0,0.0,0.0,0.0,0.0,0.0,0.0,0.0,0.0,0.0,0.0,0.0,0.0,0.0,0.0,0.0,0.0,-0.8333,-0.7955,-0.7047,-0.6559,-0.6678,-0.6349,-0.5972,-0.5667,-0.6015,-0.6244,-0.6356,-0.6167,-0.5938,-0.5628,-0.521,-0.5018,-0.5018,-0.5018,-0.5018,-0.5018,-0.5018,-0.5018,-0.5018,-0.5018,-0.5018,-0.5018,-0.5018,-0.5018,-0.5018,-0.5018,-0.5018,-0.5018,-0.5018,-0.5018,-0.5018,-0.5018,-0.5018,-0.5018,-0.5018,-0.5018,-0.5018,-0.5018,-0.514,-0.5328,-0.5394,-0.5502,-0.5607,-0.5675,-0.5688,-0.5688,-0.5688,-0.5688,-0.5688,-0.5688,-0.5688,-0.5688,-0.5688,-0.5688,-0.5688,-0.5688,-0.5688,-0.5688,-0.5688,-0.5688,-0.571,-0.5806,-0.5812,-0.5833,-0.589,-0.5896,-0.5871,-0.5814,-0.5812,-0.5863,-0.5983,-0.5988,-0.6045,-0.6168,-0.6284,-0.6298,-0.6361,-0.6361,-0.6361,-0.6361,-0.6363,-0.6387,-0.8625,-0.812,-0.7696,-0.7723,-0.7809,-0.7842,-0.7723,0.0,0.0,0.0,0.0,0.0,0.0,0.0,0.0,0.0,0.0,0.0,0.0,0.0,0.0,0.0,0.0,0.0,0.0,-0.8394,-0.8046,-0.7349,-0.6507,-0.6002,-0.5979,-0.533,-0.4949,-0.4949,-0.4949,-0.496,-0.5018,-0.5518,-0.5518,-0.5018,-0.5018,-0.5018,-0.5018,-0.5018,-0.5018,-0.5018,0.0,0.0,-0.5018,-0.5018,-0.5018,-0.5018,-0.5018,-0.5018,-0.5018,-0.5018,-0.5018,-0.5018,-0.5018,-0.5018,-0.5018,-0.5018,-0.5018,-0.5018,-0.5018,-0.5029,-0.5042,-0.5042,-0.5186,-0.5391,-0.5388,-0.5551,-0.5667,-0.5686,-0.5688,-0.5688,-0.5688,-0.5688,-0.5688,-0.5688,-0.5688,-0.5688,-0.5688,-0.5688,-0.5688,-0.5688,-0.5702,-0.5715,-0.5715,-0.5731,-0.5822,-0.592,-0.5931,-0.5972,-0.6078,-0.6086,-0.6048,-0.5964,-0.5942,-0.5986,-0.6108,-0.6113,-0.6162,-0.6317,-0.6317,-0.6317,-0.6317,-0.6333,-0.6293,-0.6295,-0.6391,-0.6387,-0.8735,-0.8242,-0.7723,-0.7842,-0.7809,-0.7723,0.0,0.0,0.0,0.0,0.0,0.0,0.0,0.0,0.0,0.0,0.0,0.0,0.0,0.0,0.0,0.0,0.0,0.0,-0.7774,-0.7007,-0.6549,-0.6391,-0.5628,-0.5123,-0.5017,-0.4898,-0.4825,-0.4825,-0.4825,-0.4874,-0.5015,-0.5093,-0.5093,-0.5018,-0.5018,-0.5018,-0.5018,-0.5018,-0.5018,-0.5018,0.0,-0.5018,-0.5018,-0.5018,-0.5018,-0.5018,-0.5018,-0.5018,-0.5018,-0.5018,-0.5018,-0.5018,-0.5018,-0.5018,-0.5018,-0.5018,-0.5018,-0.5018,-0.5018,-0.5086,-0.5162,-0.5162,-0.5186,-0.5262,-0.5427,-0.5508,-0.5561,-0.5664,-0.5688,-0.5688,-0.5688,-0.5688,-0.5688,-0.5688,-0.5688,-0.5688,-0.5688,-0.5688,-0.5688,-0.5688,-0.5814,-0.5877,-0.5877,-0.5966,-0.6037,-0.6056,-0.6056,-0.6064,-0.6083,-0.6086,-0.6121,-0.6254,-0.6116,-0.6113,-0.6284,-0.6289,-0.6298,-0.6317,-0.6317,-0.6317,-0.6317,-0.6363,-0.6363,-0.6363,-0.6379,-0.6387,-0.8177,-0.7942,-0.7683,-0.7774,-0.7702,-0.7568,0.0,0.0,0.0,0.0,0.0,0.0,0.0,0.0,0.0,0.0,0.0,0.0,0.0,0.0,0.0,0.0,0.0,-0.7736,-0.6892,-0.6433,-0.6012,-0.5589,-0.521,-0.4955,-0.4898,-0.4833,-0.4795,-0.4795,-0.477,-0.4762,-0.4819,-0.4822,-0.4887,-0.5015,-0.4885,-0.4855,-0.4876,-0.4849,-0.4855,-0.4879,0.0,-0.4917,-0.5018,-0.5018,-0.5018,-0.5018,-0.5018,-0.5018,-0.5018,-0.5018,-0.5018,-0.5018,-0.5018,-0.5018,-0.5018,-0.5018,-0.5018,-0.5018,-0.5018,-0.5097,-0.52,-0.5306,-0.5333,-0.5367,-0.5478,-0.5556,-0.5618,-0.5675,-0.5688,-0.5688,-0.5688,-0.5688,-0.5688,-0.5688,-0.5688,-0.5688,-0.5688,-0.5739,-0.5825,-0.5825,-0.5926,-0.6002,-0.6002,-0.6051,-0.6111,-0.6179,-0.6184,-0.6208,-0.6268,-0.6219,-0.6257,-0.6314,-0.6265,-0.6257,-0.6314,-0.6254,-0.6248,-0.6317,-0.6251,-0.6251,-0.6317,-0.632,-0.6344,-0.6347,-0.6357,-0.6387,-0.7725,-0.761,-0.7497,-0.7536,0.0,0.0,-0.7338,0.0,0.0,0.0,0.0,0.0,0.0,0.0,0.0,0.0,0.0,0.0,0.0,0.0,0.0,0.0,0.0,-0.6853,-0.6012,-0.5935,-0.5667,-0.5057,-0.5018,-0.5004,-0.4938,-0.4847,-0.4795,-0.4795,-0.4753,-0.4703,-0.4731,-0.4673,-0.4755,-0.4931,-0.478,-0.4716,-0.4793,-0.4738,-0.4762,-0.4839,-0.4839,-0.4893,-0.5018,-0.5018,-0.5018,-0.5018,-0.5018,-0.5018,-0.5018,-0.5018,-0.5018,-0.5018,-0.5018,-0.5034,-0.5056,-0.5056,-0.5075,-0.5099,-0.5099,-0.5181,-0.5292,-0.5385,-0.5499,-0.5548,-0.5548,-0.5618,-0.5688,-0.5688,-0.5688,-0.5688,-0.5688,-0.5688,-0.5688,-0.5688,-0.5688,-0.5696,-0.5723,-0.5844,-0.5912,-0.5942,-0.6051,-0.6127,-0.6127,-0.6151,-0.6203,-0.6298,-0.6333,-0.6293,-0.635,-0.6276,-0.6287,-0.6317,-0.6289,-0.6276,-0.6276,-0.6135,-0.613,-0.6273,-0.6162,-0.6173,-0.6317,-0.6295,-0.6309,-0.6312,-0.6396,-0.6387,-0.7771,-0.7481,-0.713,-0.7147,0.0,0.0,-0.7338,0.0,0.0,0.0,0.0,0.0,0.0,0.0,0.0,0.0,0.0,0.0,0.0,0.0,0.0,0.0,-0.6279,-0.5973,-0.5171,-0.5093,-0.5054,-0.5018,-0.5018,-0.493,-0.4817,-0.4801,-0.4795,-0.4795,-0.4753,-0.4744,-0.4782,-0.4597,-0.4583,-0.4717,-0.4698,-0.4716,-0.4795,-0.4787,-0.4849,-0.5004,-0.5004,-0.501,-0.5018,-0.5018,-0.5018,-0.5018,-0.5018,-0.5018,-0.5018,-0.5018,-0.5018,-0.5018,-0.5018,-0.5086,-0.5173,-0.5173,-0.5252,-0.5385,-0.5385,-0.5428,-0.5483,-0.5491,-0.558,-0.5677,-0.5677,-0.5683,-0.5688,-0.5688,-0.5688,-0.5688,-0.5688,-0.5688,-0.5688,-0.5688,-0.5688,-0.5723,-0.5871,-0.5896,-0.5942,-0.6053,-0.6179,-0.6306,-0.6306,-0.6347,-0.6365,-0.6373,-0.6331,-0.6276,-0.6119,-0.6105,-0.6149,-0.6311,-0.6162,-0.61,-0.61,-0.6089,-0.6089,-0.61,-0.6251,-0.6309,-0.6317,-0.6374,-0.6373,-0.6376,-0.6381,-0.6387,-0.7318,-0.7152,-0.6974,-0.7028,0.0,0.0,0.0,0.0,0.0,0.0,0.0,0.0,0.0,0.0,0.0,0.0,0.0,0.0,0.0,0.0,-0.5726,-0.547,-0.5437,-0.5323,-0.5015,-0.5018,-0.5018,-0.5018,-0.5018,-0.4996,-0.4911,-0.4836,-0.4795,-0.4795,-0.4753,-0.4673,-0.4607,-0.455,-0.4492,-0.4433,-0.4433,-0.4496,-0.4607,-0.4607,-0.4675,-0.4832,-0.4871,-0.4909,-0.5018,-0.5018,-0.5018,-0.5018,-0.5018,-0.5018,-0.5018,-0.5018,-0.5018,-0.5026,-0.5097,-0.5151,-0.52,-0.5317,-0.5372,-0.541,-0.541,-0.5455,-0.5508,-0.5508,-0.5597,-0.5688,-0.5688,-0.5688,-0.5688,-0.5688,-0.5688,-0.5688,-0.5688,-0.5688,-0.5688,-0.5688,-0.5688,-0.5726,-0.5882,-0.5966,-0.6056,-0.6181,-0.6287,-0.6317,-0.6317,-0.6238,-0.6219,-0.6219,-0.6249,-0.6268,-0.6094,-0.6157,-0.6187,-0.6157,-0.6111,-0.6119,-0.6246,-0.6127,-0.6121,-0.6246,-0.6292,-0.6304,-0.6374,-0.6365,-0.6387,-0.6387,-0.6387,-0.6387,-0.7014,-0.6927,-0.6896,0.0,0.0,0.0,0.0,0.0,0.0,0.0,0.0,0.0,0.0,0.0,0.0,0.0,0.0,0.0,0.0,0.0,-0.5018,-0.5018,-0.5018,-0.5018,-0.5018,-0.5018,-0.5018,-0.5018,-0.5018,-0.5018,-0.5018,-0.4898,-0.4855,-0.4855,-0.4773,-0.4706,-0.4586,-0.4542,-0.4465,-0.4355,-0.4317,-0.436,-0.4503,-0.4503,-0.4594,-0.475,-0.4798,-0.4866,-0.5018,-0.5018,-0.5018,-0.5018,-0.5018,-0.5018,-0.5018,-0.5018,-0.5018,-0.5029,-0.5105,-0.5181,-0.5257,-0.5383,-0.5462,-0.5485,-0.5485,-0.5542,-0.5564,-0.5564,-0.5623,-0.5688,-0.5688,-0.5688,-0.5688,-0.5688,-0.5688,-0.5688,-0.5688,-0.5688,-0.5699,-0.5734,-0.5742,-0.5836,-0.5991,-0.6089,-0.617,-0.6306,-0.6317,-0.6303,-0.6265,-0.6138,-0.6086,-0.6086,-0.6243,-0.6268,-0.6094,-0.6162,-0.624,-0.6146,-0.6143,-0.6162,-0.6257,-0.6168,-0.6184,-0.6317,-0.6304,-0.6361,-0.6387,-0.6387,-0.6387,-0.6387,-0.6387,-0.6387,-0.6939,-0.6894,0.0,0.0,0.0,0.0,0.0,0.0,0.0,0.0,0.0,0.0,0.0,0.0,0.0,0.0,0.0,0.0,0.0,-0.5015,-0.5018,-0.5018,-0.5018,-0.5018,-0.5018,-0.5018,-0.5018,-0.5018,-0.5018,-0.5018,-0.5018,-0.5018,-0.5018,-0.5018,-0.486,-0.4798,-0.4795,-0.4594,-0.4506,-0.4503,-0.4355,-0.436,-0.4503,-0.4503,-0.4602,-0.4795,-0.4795,-0.4866,-0.5018,-0.5018,-0.5018,-0.5018,-0.5018,-0.5018,-0.5018,-0.5018,-0.5018,-0.5018,-0.5018,-0.5173,-0.541,-0.5413,-0.5537,-0.5688,-0.5688,-0.5688,-0.5688,-0.5688,-0.5688,-0.5688,-0.5688,-0.5688,-0.5688,-0.5688,-0.5688,-0.5688,-0.5688,-0.5688,-0.5723,-0.588,-0.5904,-0.598,-0.6276,-0.6317,-0.6317,-0.6317,-0.6317,-0.627,-0.61,-0.6083,-0.6083,-0.6083,-0.6195,-0.6268,-0.61,-0.6089,-0.614,-0.6311,-0.632,-0.6265,-0.6094,-0.6254,-0.632,-0.632,-0.638,-0.6387,-0.6387,-0.6387,-0.6387,-0.6387,-0.6387,-0.6387,-0.6717,-0.6379,0.0,0.0,0.0,0.0,0.0,0.0,0.0,0.0,0.0,0.0,0.0,0.0,0.0,0.0,0.0,0.0,-0.4866,-0.4922,-0.5018,-0.5018,-0.5018,-0.5018,-0.5018,-0.5018,-0.5018,-0.5018,-0.5018,-0.5018,-0.5018,-0.5018,-0.5018,-0.5018,-0.4944,-0.4882,-0.4798,-0.4725,-0.464,-0.4503,-0.4471,-0.4395,-0.4355,-0.4468,-0.4591,-0.4747,-0.4798,-0.4866,-0.5018,-0.5018,-0.5018,-0.5018,-0.5018,-0.5018,-0.5018,-0.5018,-0.5018,-0.5029,-0.5108,-0.5238,-0.5424,-0.5469,-0.5561,-0.5688,-0.5688,-0.5688,-0.5688,-0.5688,-0.5688,-0.5688,-0.5688,-0.5688,-0.5688,-0.5688,-0.5688,-0.5688,-0.5688,-0.5688,-0.5723,-0.588,-0.5904,-0.598,-0.6276,-0.6317,-0.6317,-0.6317,-0.6243,-0.6067,-0.5863,-0.5839,-0.5869,-0.595,-0.6067,-0.6159,-0.6257,-0.6287,-0.6347,-0.6385,-0.6385,-0.6372,-0.6333,-0.6369,-0.6385,-0.6385,-0.6371,-0.6387,-0.6387,-0.6387,-0.6387,-0.6387,-0.6387,-0.6387,-0.644,0.0,0.0,0.0,0.0,0.0,0.0,0.0,0.0,0.0,0.0,0.0,0.0,0.0,0.0,0.0,-0.4848,-0.4676,-0.4774,-0.486,-0.4922,-0.5012,-0.5018,-0.5018,-0.5018,-0.5018,-0.5018,-0.5018,-0.5018,-0.5018,-0.5018,-0.5018,-0.5018,-0.5018,-0.5018,-0.4944,-0.4868,-0.482,-0.4723,-0.4613,-0.4602,-0.4517,-0.4368,-0.4393,-0.4501,-0.4624,-0.476,-0.4866,-0.5018,-0.5018,-0.5018,-0.5018,-0.5018,-0.5018,-0.5018,-0.5018,-0.5018,-0.5026,-0.5097,-0.5197,-0.5317,-0.5439,-0.5518,-0.5626,-0.5675,-0.5688,-0.5688,-0.5688,-0.5688,-0.5688,-0.5688,-0.5688,-0.5688,-0.5688,-0.5688,-0.5688,-0.5688,-0.5688,-0.5737,-0.5945,-0.5975,-0.6037,-0.6284,-0.6317,-0.6284,-0.6138,-0.6024,-0.5893,-0.5707,-0.5729,-0.5847,-0.5964,-0.6043,-0.6154,-0.6323,-0.6358,-0.6388,-0.6384,-0.6387,-0.6387,-0.6387,-0.6387,-0.6387,-0.6387,-0.6387,-0.6387,-0.6387,-0.6387,-0.6387,-0.6387,-0.6387,-0.6387,0.0,0.0,0.0,0.0,0.0,0.0,0.0,0.0,0.0,0.0,0.0,0.0,0.0,0.0,0.0,0.0,-0.4498,-0.4548,-0.4733,-0.4782,-0.4836,-0.4949,-0.501,-0.5018,-0.5018,-0.5018,-0.5018,-0.5018,-0.5018,-0.5018,-0.5018,-0.5018,-0.5018,-0.5018,-0.5018,-0.5018,-0.5018,-0.4868,-0.4806,-0.4795,-0.4747,-0.4624,-0.4501,-0.4363,-0.4374,-0.452,-0.4727,-0.486,-0.5002,-0.5012,-0.5018,-0.5018,-0.5018,-0.5018,-0.5018,-0.5018,-0.5018,-0.5018,-0.5018,-0.5091,-0.5205,-0.5372,-0.5453,-0.5529,-0.5653,-0.5688,-0.5688,-0.5688,-0.5688,-0.5688,-0.5688,-0.5688,-0.5688,-0.5688,-0.5688,-0.5688,-0.5688,-0.5688,-0.5758,-0.604,-0.6078,-0.6111,-0.6295,-0.6309,-0.6173,-0.5937,-0.5806,-0.5688,-0.5688,-0.5822,-0.5934,-0.6056,-0.6078,-0.6176,-0.6352,-0.6336,-0.6328,-0.6379,-0.6387,-0.6387,-0.6387,-0.6387,-0.6387,-0.6387,-0.6387,-0.6387,-0.6387,-0.6387,-0.6337,-0.6237,-0.6237,-0.6184,0.0,0.0,0.0,0.0,0.0,0.0,0.0,0.0,0.0,0.0,0.0,0.0,0.0,0.0,0.0,-0.4333,-0.4446,-0.4523,-0.4542,-0.4713,-0.4806,-0.4833,-0.492,-0.5018,-0.5018,-0.5018,-0.5018,-0.5018,-0.5018,-0.5018,-0.5018,-0.5018,-0.5018,-0.5018,-0.5018,-0.5018,-0.5018,-0.4991,-0.4893,-0.4795,-0.4747,-0.4624,-0.4503,-0.4479,-0.4482,-0.452,-0.4727,-0.4812,-0.4841,-0.4938,-0.5018,-0.5018,-0.5018,-0.5018,-0.5018,-0.5018,-0.5018,-0.5018,-0.5018,-0.5091,-0.5205,-0.5372,-0.5453,-0.5529,-0.5653,-0.5688,-0.5688,-0.5688,-0.5688,-0.5688,-0.5688,-0.5688,-0.5688,-0.5688,-0.5688,-0.5688,-0.5688,-0.5688,-0.5758,-0.604,-0.6007,-0.601,-0.6279,-0.6237,-0.6075,-0.5926,-0.5806,-0.5688,-0.5688,-0.571,-0.5814,-0.5928,-0.6029,-0.6146,-0.6293,-0.6363,-0.6363,-0.6384,-0.6387,-0.6387,-0.6387,-0.6387,-0.6387,-0.6387,-0.6387,-0.6387,-0.6387,-0.6387,-0.5984,-0.5135,-0.5135,-0.4682,0.0,0.0,0.0,0.0,0.0,0.0,0.0,0.0,0.0,0.0,0.0,0.0,0.0,0.0,0.0,-0.43,-0.4349,-0.4443,-0.4498,-0.458,-0.4681,-0.4741,-0.4855,-0.4893,-0.4893,-0.4944,-0.5018,-0.5018,-0.5018,-0.5018,-0.5018,-0.5018,-0.5018,-0.5018,-0.5018,-0.5018,-0.5018,-0.492,-0.486,-0.4795,-0.4747,-0.4624,-0.4503,-0.4449,-0.4454,-0.4514,-0.4667,-0.4779,-0.4806,-0.4928,-0.5018,-0.5018,-0.5018,-0.5018,-0.5018,-0.5018,-0.5018,-0.5018,-0.5018,-0.5056,-0.5124,-0.5243,-0.5366,-0.5485,-0.5564,-0.5642,-0.5688,-0.5688,-0.5688,-0.5688,-0.5688,-0.5688,-0.5688,-0.5688,-0.5688,-0.5688,-0.5688,-0.5688,-0.5739,-0.5964,-0.5947,-0.5945,-0.6072,-0.5996,-0.5896,-0.5831,-0.5726,-0.5688,-0.5688,-0.5737,-0.586,-0.5977,-0.6048,-0.6157,-0.6333,-0.6352,-0.638,-0.6384,-0.6387,-0.6387,-0.6387,-0.6387,-0.6387,-0.6387,-0.6387,-0.6387,-0.6387,-0.5884,-0.5334,-0.4784,-0.428,-0.3728,0.0,0.0,0.0,0.0,0.0,0.0,0.0,0.0,0.0,0.0,0.0,0.0,0.0,0.0,0.0,-0.43,-0.43,-0.4333,-0.4462,-0.4492,-0.4542,-0.4646,-0.4727,-0.4766,-0.4766,-0.4896,-0.4963,-0.4982,-0.4947,-0.4993,-0.5015,-0.5018,-0.5018,-0.5018,-0.5018,-0.5018,-0.5018,-0.4858,-0.4795,-0.4795,-0.4725,-0.4594,-0.4471,-0.4344,-0.4352,-0.4484,-0.4627,-0.4747,-0.4777,-0.4958,-0.5018,-0.5018,-0.5018,-0.5018,-0.5018,-0.5018,-0.5018,-0.5018,-0.5018,-0.5018,-0.5034,-0.5148,-0.5312,-0.5432,-0.5472,-0.5594,-0.5688,-0.5688,-0.5688,-0.5688,-0.5688,-0.5688,-0.5688,-0.5688,-0.5688,-0.5694,-0.5715,-0.5702,-0.5729,-0.5909,-0.5918,-0.5896,-0.5877,-0.5795,-0.5688,-0.5688,-0.5688,-0.5696,-0.5715,-0.5844,-0.595,-0.6072,-0.6105,-0.6198,-0.6391,-0.6339,-0.6336,-0.6381,-0.6387,-0.6387,-0.6387,-0.6237,-0.6134,-0.6134,-0.6134,-0.6034,-0.5834,-0.4933,-0.4431,-0.423,-0.3324,-0.2821,0.0,0.0,0.0,0.0,0.0,0.0,0.0,0.0,0.0,0.0,0.0,0.0,0.0,0.0,-0.43,-0.43,-0.43,-0.4306,-0.4322,-0.4443,-0.4509,-0.4528,-0.4638,-0.4712,-0.4712,-0.4728,-0.4783,-0.4814,-0.482,-0.4866,-0.5012,-0.5018,-0.5018,-0.5018,-0.5018,-0.5018,-0.5018,-0.4858,-0.4795,-0.4793,-0.4602,-0.4468,-0.4322,-0.4308,-0.4308,-0.4336,-0.4591,-0.4698,-0.4731,-0.4923,-0.5018,-0.5018,-0.5018,-0.5018,-0.5018,-0.5018,-0.5018,-0.5018,-0.5018,-0.5018,-0.5034,-0.5148,-0.5312,-0.5432,-0.5472,-0.5594,-0.5688,-0.5688,-0.5688,-0.5688,-0.5688,-0.5688,-0.5688,-0.5688,-0.5688,-0.5715,-0.5858,-0.5803,-0.5753,-0.6018,-0.5975,-0.5871,-0.5729,-0.5699,-0.5688,-0.5688,-0.5688,-0.5723,-0.5869,-0.5893,-0.595,-0.6072,-0.6181,-0.6306,-0.6287,-0.6366,-0.6371,-0.6384,-0.6387,-0.6387,-0.6387,-0.5484,-0.5035,-0.5035,-0.5035,-0.4582,-0.3626,-0.3475,-0.2922,-0.2016,-0.1865,-0.1311,0.0,0.0,0.0,0.0,0.0,0.0,0.0,0.0,0.0,0.0,0.0,0.0,0.0,0.0,-0.43,-0.43,-0.43,-0.43,-0.43,-0.4344,-0.4376,-0.4376,-0.4512,-0.4586,-0.4586,-0.4649,-0.4712,-0.4727,-0.4795,-0.4828,-0.4814,-0.4942,-0.4947,-0.4879,-0.4944,-0.4947,-0.4876,-0.4795,-0.4667,-0.4534,-0.4425,-0.4349,-0.43,-0.43,-0.43,-0.4314,-0.4586,-0.469,-0.4709,-0.4917,-0.5018,-0.5018,-0.5018,-0.5018,-0.5018,-0.5018,-0.5018,-0.5018,-0.5018,-0.5018,-0.5026,-0.5075,-0.5216,-0.5421,-0.5434,-0.5583,-0.5688,-0.5688,-0.5688,-0.5688,-0.5688,-0.5688,-0.5688,-0.5688,-0.5688,-0.5721,-0.588,-0.5814,-0.5721,-0.5869,-0.5844,-0.5748,-0.5696,-0.5688,-0.5688,-0.5688,-0.5688,-0.5707,-0.5801,-0.5863,-0.595,-0.6072,-0.6243,-0.6293,-0.6358,-0.6357,-0.6387,-0.6387,-0.5834,-0.5787,-0.6387,-0.478,-0.3929,-0.3929,-0.3929,-0.3676,-0.3224,-0.262,-0.2066,-0.1563,-0.0958,-0.0454,0.0,0.0,0.0,0.0,0.0,0.0,0.0,0.0,0.0,0.0,0.0,0.0,0.0,0.0,-0.3727,-0.3727,-0.3727,-0.3727,-0.3727,-0.3727,-0.3794,-0.3995,-0.4099,-0.4251,-0.4428,-0.4545,-0.461,-0.464,-0.4689,-0.4716,-0.4692,-0.4855,-0.489,-0.4798,-0.4914,-0.492,-0.4798,-0.4683,-0.4539,-0.43,-0.43,-0.43,-0.43,-0.43,-0.43,-0.4314,-0.4586,-0.469,-0.4709,-0.4917,-0.5018,-0.5018,-0.5018,-0.5018,-0.5018,-0.5018,-0.5018,-0.5018,-0.5018,-0.5018,-0.5021,-0.505,-0.52,-0.5416,-0.5407,-0.5564,-0.5688,-0.5688,-0.5688,-0.5688,-0.5688,-0.5688,-0.5688,-0.5688,-0.5688,-0.5712,-0.5841,-0.5814,-0.5723,-0.5694,-0.5688,-0.5688,-0.5688,-0.5688,-0.5688,-0.5688,-0.5712,-0.5742,-0.582,-0.5923,-0.6043,-0.6162,-0.6257,-0.6344,-0.6379,-0.6387,-0.6284,-0.6037,-0.5233,-0.5033,-0.5582,-0.3775,-0.2771,-0.2771,-0.2519,-0.2368,-0.2368,-0.1563,-0.1211,-0.116,-0.0353,0.0,0.0,0.0,0.0,0.0,0.0,0.0,0.0,0.0,0.0,0.0,0.0,0.0,0.0,0.0,-0.2213,-0.2213,-0.2213,-0.2213,-0.2213,-0.2213,-0.248,-0.3184,-0.3255,-0.3527,-0.4241,-0.4314,-0.4363,-0.4506,-0.452,-0.4572,-0.4684,-0.4773,-0.4804,-0.4795,-0.4914,-0.492,-0.4798,-0.4599,-0.4454,-0.43,-0.43,-0.43,-0.43,-0.43,-0.43,-0.4314,-0.4586,-0.469,-0.4709,-0.4917,-0.5018,-0.5018,-0.5018,-0.5018,-0.5018,-0.5018,-0.5018,-0.5018,-0.5018,-0.5018,-0.5034,-0.5143,-0.5265,-0.5432,-0.5464,-0.5586,-0.5688,-0.5688,-0.5688,-0.5688,-0.5688,-0.5688,-0.5688,-0.5688,-0.5688,-0.5691,-0.5696,-0.5822,-0.586,-0.571,-0.5688,-0.5688,-0.5688,-0.5688,-0.5688,-0.5688,-0.5825,-0.5937,-0.6051,-0.6173,-0.6293,-0.6354,-0.6373,-0.6379,-0.6387,-0.6387,-0.5984,-0.4935,-0.4834,-0.4381,-0.3425,-0.2267,-0.1663,-0.1663,-0.0707,-0.0151,-0.0151,-0.0101,-0.0101,-0.0101,-0.0051,0.0,0.0,0.0,0.0,0.0,0.0,0.0,0.0,0.0,0.0,0.0,0.0,0.0,0.0,0.0,-0.2114,-0.2114,-0.2114,-0.2114,-0.2114,-0.2114,-0.2213,-0.2447,-0.248,-0.2783,-0.352,-0.3587,-0.3806,-0.4323,-0.4462,-0.4492,-0.4428,-0.4613,-0.4719,-0.4719,-0.4797,-0.4761,-0.4602,-0.4442,-0.4341,-0.43,-0.43,-0.43,-0.43,-0.43,-0.43,-0.4308,-0.4501,-0.4616,-0.4709,-0.4917,-0.5018,-0.5018,-0.5018,-0.5018,-0.5018,-0.5018,-0.5018,-0.5018,-0.5018,-0.5018,-0.5034,-0.5148,-0.5312,-0.5432,-0.5472,-0.5594,-0.5688,-0.5688,-0.5688,-0.5688,-0.5688,-0.5688,-0.5688,-0.5688,-0.5688,-0.5688,-0.5688,-0.5721,-0.5737,-0.5696,-0.5688,-0.5688,-0.5688,-0.5688,-0.5688,-0.5688,-0.5831,-0.5918,-0.5964,-0.6075,-0.6198,-0.6317,-0.5733,-0.5313,-0.5379,-0.473,-0.4176,-0.3776,-0.3123,-0.2871,-0.3173,-0.1513,-0.0908,-0.1563,-0.0555,0.0,0.0,0.0,0.0,0.0,0.0,0.0,0.0,0.0,0.0,0.0,0.0,0.0,0.0,0.0,0.0,0.0,0.0,0.0,0.0,0.0,0.0,-0.1411,-0.1411,-0.1411,-0.1411,-0.1411,-0.1478,-0.1745,-0.1779,-0.2047,-0.2748,-0.3049,-0.3418,-0.3892,-0.4233,0.0,-0.4306,-0.452,-0.4665,-0.4747,-0.475,-0.4692,-0.4566,-0.4451,-0.4338,-0.43,-0.43,-0.43,-0.43,-0.43,-0.43,-0.4308,-0.4498,-0.4613,-0.4703,-0.4874,-0.4941,-0.5018,-0.5018,-0.5018,-0.5018,-0.5018,-0.5018,-0.5018,-0.5018,-0.5018,-0.5042,-0.5197,-0.5344,-0.5443,-0.5518,-0.5623,-0.5688,-0.5688,-0.5688,-0.5688,-0.5688,-0.5688,-0.5688,-0.5688,-0.5688,-0.5688,-0.5688,-0.5688,-0.5688,-0.5688,-0.5688,-0.5688,-0.5688,-0.5419,-0.5253,-0.524,-0.5059,-0.4948,-0.4935,-0.5027,-0.5165,-0.5232,-0.4644,-0.4221,-0.4275,-0.3626,-0.3022,-0.267,-0.2017,-0.1765,-0.2116,-0.0757,-0.0353,-0.1059,-0.0353,0.0,0.0,0.0,0.0,0.0,0.0,0.0,0.0,0.0,0.0,0.0,0.0,0.0,0.0,0.0,0.0,0.0,0.0,0.0,0.0,0.0,0.0,0.0,0.0,0.0,0.0,0.0,-0.0269,-0.0975,-0.1076,-0.1344,-0.2013,-0.2714,-0.3149,-0.3182,-0.3859,-0.4267,-0.43,-0.4446,-0.4583,-0.4779,-0.4793,-0.4776,-0.469,-0.4566,-0.4449,-0.4306,-0.4303,-0.43,-0.43,-0.43,-0.43,-0.4314,-0.4583,-0.4687,-0.4698,-0.4787,-0.4871,-0.5018,-0.5018,-0.5018,-0.5018,-0.5018,-0.5018,-0.5018,-0.5018,-0.5021,-0.5061,-0.5333,-0.5413,-0.542,-0.5659,-0.5688,-0.5688,-0.5688,-0.5688,-0.5688,-0.5688,-0.5688,-0.5688,-0.5688,-0.5688,-0.5688,-0.5688,-0.5688,-0.5688,-0.5688,-0.5688,-0.5691,-0.5694,-0.4931,-0.4285,-0.4324,-0.3568,-0.3018,-0.2978,-0.3136,-0.3224,-0.3224,-0.3173,-0.3173,-0.3173,-0.3123,-0.267,-0.1613,-0.1563,-0.111,-0.0051,0.0,0.0,0.0,0.0,0.0,0.0,0.0,0.0,0.0,0.0,0.0,-0.4786,0.0,0.0,0.0,0.0,0.0,0.0,0.0,0.0,0.0,0.0,0.0,0.0,0.0,0.0,0.0,0.0,0.0,0.0,0.0,-0.0067,-0.0269,-0.0303,-0.0572,-0.131,-0.1545,-0.2114,0.0,-0.3384,-0.3723,-0.4267,-0.4528,-0.4627,-0.4569,-0.4741,-0.4776,-0.469,-0.4566,-0.449,-0.4457,-0.4341,-0.43,-0.43,-0.43,-0.43,-0.4308,-0.4492,-0.4608,-0.4706,-0.4879,-0.4985,-0.5018,-0.5018,-0.5018,-0.5018,-0.5018,-0.5018,-0.5018,-0.5018,-0.5069,-0.5165,-0.5361,-0.5428,-0.5486,-0.5642,-0.5688,-0.5688,-0.5688,-0.5688,-0.5688,-0.5688,-0.5688,-0.5688,-0.5688,-0.5688,-0.5688,-0.5688,-0.5688,-0.5688,-0.5688,-0.5688,-0.5715,-0.5841,-0.4983,-0.4328,-0.4416,-0.3642,-0.3016,-0.2983,-0.3136,-0.3224,-0.3224,-0.2519,-0.2066,-0.2066,-0.1311,-0.0757,-0.0454,-0.0454,-0.0303,0.0,0.0,0.0,0.0,0.0,0.0,0.0,0.0,0.0,0.0,0.0,0.0,0.0,0.0,0.0,0.0,0.0,0.0,0.0,-0.2381,0.0,0.0,0.0,0.0,0.0,0.0,0.0,0.0,0.0,0.0,0.0,0.0,0.0,0.0,0.0,-0.0168,-0.0606,-0.0908,-0.1444,-0.2248,-0.2882,-0.352,-0.4267,-0.4509,-0.4577,-0.4506,-0.4705,-0.4776,-0.469,-0.4632,-0.4569,-0.4503,-0.4435,-0.4346,-0.43,-0.43,-0.43,-0.4311,-0.4509,-0.4621,-0.4709,-0.4917,-0.5018,-0.5018,-0.5018,-0.5018,-0.5018,-0.5018,-0.5018,-0.5018,-0.5018,-0.5091,-0.5165,-0.487,-0.4852,-0.4961,-0.5073,-0.5104,-0.5104,-0.5104,-0.5104,-0.5196,-0.5599,-0.5688,-0.5688,-0.5688,-0.5688,-0.5688,-0.5688,-0.5688,-0.5702,-0.5795,-0.5803,-0.5841,-0.5958,-0.4762,-0.3807,-0.3885,-0.2672,-0.1768,-0.1733,-0.1802,-0.1865,-0.1865,-0.1311,-0.0908,-0.0908,-0.0353,0.0,0.0,0.0,0.0,0.0,0.0,0.0,0.0,0.0,0.0,0.0,0.0,0.0,0.0,0.0,0.0,0.0,0.0,0.0,0.0,0.0,0.0,-0.3207,-0.3035,-0.2681,0.0,0.0,0.0,0.0,0.0,0.0,0.0,0.0,0.0,0.0,0.0,0.0,0.0,0.0,0.0,0.0,-0.0607,-0.1008,-0.1109,-0.2415,-0.3487,-0.4131,-0.4372,-0.4509,-0.4525,-0.4713,-0.4787,-0.4731,-0.4787,-0.4719,-0.4525,-0.4512,-0.4446,-0.43,-0.43,-0.43,-0.4314,-0.4586,-0.469,-0.4709,-0.4838,-0.4937,-0.5018,-0.5018,-0.5018,-0.5018,-0.5018,-0.4937,-0.4859,-0.4859,-0.4899,-0.4814,-0.3997,-0.3838,-0.3974,-0.4096,-0.4164,-0.4164,-0.4164,-0.4164,-0.4344,-0.5151,-0.5374,-0.5374,-0.5374,-0.5374,-0.5374,-0.5374,-0.5466,-0.5542,-0.5557,-0.5764,-0.5942,-0.6064,-0.4379,-0.3024,-0.3034,-0.1278,0.0,0.0,0.0,0.0,0.0,0.0,0.0,0.0,0.0,0.0,0.0,0.0,0.0,0.0,0.0,0.0,0.0,0.0,0.0,0.0,0.0,0.0,0.0,0.0,0.0,-0.6079,-0.5797,-0.5404,0.0,0.0,0.0,0.0,-0.3262,-0.2849,0.0,0.0,0.0,0.0,0.0,0.0,0.0,0.0,0.0,0.0,0.0,0.0,0.0,0.0,0.0,0.0,-0.0137,-0.0471,-0.1042,-0.2415,-0.3251,-0.3418,-0.4093,-0.455,-0.4649,-0.476,-0.4833,-0.4944,-0.4833,-0.4762,-0.4651,-0.4553,-0.4446,-0.43,-0.43,-0.43,-0.4314,-0.4586,-0.469,-0.4673,-0.4218,-0.4423,-0.5018,-0.5018,-0.5018,-0.5018,-0.5018,-0.4582,-0.4027,-0.4027,-0.366,-0.3168,-0.2974,-0.3017,-0.3118,-0.3176,-0.3179,-0.3179,-0.3179,-0.3179,-0.3226,-0.3403,-0.3449,-0.3449,-0.3449,-0.3449,-0.3449,-0.3449,-0.403,-0.4369,-0.3719,-0.4839,-0.5942,-0.6064,-0.438,-0.3037,-0.3146,-0.1354,0.0,0.0,0.0,0.0,0.0,0.0,0.0,0.0,0.0,0.0,0.0,0.0,0.0,0.0,0.0,0.0,0.0,0.0,0.0,0.0,0.0,0.0,0.0,0.0,0.0,-0.6476,-0.6285,-0.6053,-0.5438,0.0,0.0,0.0,0.0,0.0,0.0,0.0,0.0,0.0,0.0,0.0,0.0,0.0,0.0,0.0,0.0,0.0,0.0,0.0,0.0,0.0,0.0,-0.0308,-0.1043,-0.1644,-0.2179,-0.2547,-0.3125,-0.3604,-0.3881,-0.4242,-0.4579,-0.4884,-0.4887,-0.4833,-0.4687,-0.4627,-0.4503,-0.43,-0.43,-0.43,-0.4314,-0.4586,-0.447,-0.4048,-0.387,-0.3793,-0.3756,-0.3756,-0.3756,-0.3756,-0.3756,-0.3482,-0.3134,-0.3171,-0.2935,-0.2607,-0.2169,-0.2052,-0.2152,-0.2152,-0.2152,-0.224,-0.2777,-0.2553,-0.2285,-0.2777,-0.2911,-0.2911,-0.2911,-0.2911,-0.2911,-0.2911,-0.3269,-0.3459,-0.3039,-0.3755,-0.4654,-0.5327,-0.4166,-0.3138,-0.3168,-0.1815,-0.0606,-0.0051,0.0,0.0,0.0,0.0,0.0,0.0,0.0,0.0,0.0,0.0,0.0,0.0,0.0,0.0,0.0,0.0,0.0,0.0,0.0,0.0,0.0,0.0,0.0,0.0,0.0,0.0,0.0,0.0,-0.478,0.0,0.0,0.0,0.0,0.0,0.0,0.0,0.0,0.0,0.0,0.0,0.0,0.0,0.0,0.0,0.0,0.0,0.0,0.0,0.0036,-0.0174,-0.0747,-0.0741,-0.1012,-0.1566,-0.2058,-0.2554,-0.3093,-0.3703,-0.4198,-0.4568,-0.4683,-0.4586,-0.4253,-0.4398,-0.4315,-0.4097,-0.4061,-0.4061,-0.4108,-0.4159,-0.3815,-0.321,-0.3297,-0.2893,-0.227,-0.2426,-0.2503,-0.2503,-0.2503,-0.2393,-0.2252,-0.2256,-0.2229,-0.2034,-0.1295,-0.1102,-0.1121,-0.1116,-0.1118,-0.1301,-0.2107,-0.1749,-0.1301,-0.2152,-0.2331,-0.2331,-0.2331,-0.2331,-0.2331,-0.2331,-0.2465,-0.2553,-0.2376,-0.2512,-0.3047,-0.4261,-0.3759,-0.311,-0.292,-0.2167,-0.121,-0.0151,0.0,0.0,0.0,0.0,0.0,0.0,0.0,0.0,0.0,0.0,0.0,0.0,0.0,0.0,0.0,0.0,0.0,0.0,0.0,0.0,0.0,0.0,0.0,0.0,0.0,0.0,0.0,-0.5778,0.0,0.0,0.0,0.0,0.0,0.0,0.0,0.0,0.0,0.0,0.0,0.0,0.0,0.0,0.0,0.0,0.0,0.0,0.0,0.0,0.0144,0.0315,0.0383,-0.017,-0.0549,-0.0576,-0.1447,-0.23,-0.3069,-0.3449,-0.3681,-0.3739,-0.3866,-0.3474,-0.2583,-0.3235,-0.3464,-0.3318,-0.3215,-0.3215,-0.3295,-0.2666,-0.24,-0.2373,-0.1805,-0.1528,-0.1488,-0.2231,-0.2503,-0.2503,-0.2503,-0.2063,-0.1456,-0.1419,-0.0961,-0.0303,-0.0174,-0.0132,-0.0179,-0.0176,-0.0177,-0.018,-0.0314,-0.0269,-0.018,-0.0314,-0.0314,-0.0314,-0.0314,-0.0314,-0.0314,-0.0314,-0.0987,-0.1346,-0.0494,-0.1017,-0.1946,-0.3002,-0.32,-0.2865,-0.191,-0.1664,-0.121,-0.0151,0.0,0.0,0.0,0.0,0.0,0.0,0.0,0.0,0.0,0.0,0.0,0.0,0.0,0.0,0.0,0.0,0.0,0.0,0.0,0.0,0.0,0.0,0.0,0.0,0.0,0.0,0.0,0.0,0.0,-0.5333,0.0,-0.4044,0.0,0.0,0.0,0.0,0.0,0.0,0.0,0.0,0.0,0.0,0.0,0.0,0.0,0.0,0.0,0.0148,0.0363,0.0502,0.0609,0.042,0.0315,0.0364,-0.0281,-0.0944,-0.1668,-0.2147,-0.2555,-0.2957,-0.2913,-0.2689,-0.2312,-0.2383,-0.2438,-0.2447,-0.2278,-0.2211,-0.2252,-0.2167,-0.1856,-0.1425,-0.1345,-0.1019,-0.0588,-0.0902,-0.1058,-0.1058,-0.1058,-0.0836,-0.053,-0.0537,-0.0297,0.0,0.0,0.0,0.0,0.0,0.0,0.0,0.0,0.0,0.0,0.0,0.0,0.0,0.0,0.0,0.0,0.0,-0.0314,-0.0449,-0.009,-0.0322,-0.0752,-0.1188,-0.1806,-0.2098,-0.1662,-0.1613,-0.121,-0.0151,0.0,0.0,0.0,0.0,0.0,0.0,0.0,0.0,0.0,0.0,0.0,0.0,0.0,0.0,0.0,0.0,0.0,0.0,0.0,0.0,0.0,0.0,0.0,-0.7214,0.0,0.0,0.0,0.0,0.0,0.0,0.0,0.0,0.0,0.0,0.0,0.0,0.0,0.0,0.0,0.0,0.0,0.0,0.0,0.0,0.0,0.0,0.0,0.0,0.0586,0.0695,0.0773,0.0893,0.0963,0.1003,0.0649,0.0143,-0.0514,-0.1009,-0.1477,-0.1911,-0.1832,-0.1698,-0.152,-0.1431,-0.1405,-0.1509,-0.1342,-0.128,-0.1293,-0.1284,-0.095,-0.0443,-0.0694,-0.0392,0.0157,0.0157,0.0118,0.0079,0.0039,0.0,0.0,0.0,0.0,0.0,0.0,0.0,0.0,0.0,0.0,0.0,0.0,0.0,0.0,0.0,0.0,0.0,0.0,0.0,0.0,0.0,0.0,0.0,0.0,0.0,0.0,0.0,-0.0885,-0.1504,-0.121,-0.1412,-0.121,-0.0151,0.0,0.0,0.0,0.0,0.0,0.0,0.0,0.0,0.0,0.0,0.0,0.0,0.0,0.0,0.0,0.0,0.0,0.0,0.0,0.0,0.0,0.0,0.0,0.0,0.0,0.0,-0.7085,0.0,0.0,0.0,0.0,-0.5222,0.0,0.0,0.0,0.0,0.0,0.0,0.0,0.0,0.0,0.0,0.0,0.0,0.0,0.0,0.0,0.0,0.0888,0.0958,0.0,0.1119,0.116,0.1288,0.1047,0.0589,-0.0113,-0.0452,-0.0565,-0.0453,-0.0641,-0.0336,0.0509,-0.0213,-0.0553,-0.0538,-0.0403,-0.0409,-0.049,0.0396,0.0702,0.0568,0.0544,0.055,0.0589,0.0589,0.0471,0.0275,0.0079,0.0,0.0,0.0,0.0,0.0,0.0,0.0,0.0,0.0,0.0,0.0,0.0,0.0,0.0,0.0,0.0,0.0,0.0,0.0,0.0,0.0,0.0,0.0,0.0,0.0,0.0,0.0,-0.0883,-0.1234,-0.0201,-0.0958,-0.121,-0.0151,0.0,0.0,0.0,0.0,0.0,0.0,0.0,0.0,0.0,0.0,0.0,0.0,0.0,0.0,0.0,0.0,0.0,0.0,0.0,0.0,0.0,0.0,0.0,0.0,0.0,-0.7112,-0.7112,0.0,0.0,0.0,0.0,0.0,0.0,0.0,0.0,0.0,0.0,0.0,0.0,0.0,0.0,0.0,0.0,0.0,0.0,0.0,0.0,0.0,0.0,0.0,0.1211,0.1193,0.1203,0.1293,0.118,0.0938,0.0567,0.0447,0.0369,0.0258,0.0332,0.0437,0.0603,0.0563,0.0484,0.037,0.0538,0.0614,0.0561,0.0793,0.0851,0.0797,0.0661,0.0589,0.0589,0.0589,0.055,0.0512,0.048,0.0287,0.0,0.0,0.0,0.0,0.0,0.0,0.0,0.0,0.0,0.0,0.0,0.0,0.0,0.0,0.0,0.0,0.0,0.0,0.0,0.0,0.0,0.0,0.0,0.0,0.0,0.0,-0.0298,-0.0401,-0.005,-0.0303,-0.0404,-0.0051,0.0,0.0,0.0,0.0,0.0,0.0,0.0,0.0,0.0,0.0,0.0,0.0,0.0,0.0,0.0,0.0,0.0,0.0,0.0,0.0,0.0,0.0,0.0,-0.7112,-0.7112,0.0,-0.7112,-0.7031,0.0,-0.6982,0.0,0.0,0.0,0.0,0.0,0.0,0.0,0.0,0.0,0.0,0.0,0.0,0.0,0.0,0.0,0.0,0.0,0.0,0.0,0.1193,0.1226,0.1208,0.1213,0.0,0.1277,0.1189,0.1036,0.1058,0.0974,0.0861,0.0965,0.0948,0.0817,0.1021,0.1037,0.0909,0.1053,0.1108,0.1139,0.1059,0.1012,0.1038,0.0898,0.0864,0.0864,0.0864,0.0786,0.0709,0.0686,0.0454,0.0127,0.0128,0.0043,0.0,0.0,0.0,0.0,0.0,0.0,0.0,0.0,0.0,0.0,0.0,0.0,0.0,0.0,0.0,0.0,0.0,0.0,0.0,0.0,0.0,0.0,0.0,0.0,0.0,0.0,0.0,0.0,0.0,0.0,0.0,0.0,0.0,0.0,0.0,0.0,0.0,0.0,0.0,0.0,0.0,0.0,0.0,0.0,0.0,0.0,0.0,0.0,0.0,0.0,0.0,0.0]},{"header":{"parameterUnit":"m.s-1","parameterCategory":1,"la1":30.6,"la2":29.2853,"lo1":-89.7004,"lo2":-87.6739,"dy":0.0162,"dx":0.0183,"nx":112,"ny":82,"refTime":"2026-03-11T12:00:00:Z","depth":0,"parameterNumber":3,"parameterNumberName":"V-component_of_WINDS"},"data":[0.0,0.0,0.0,0.0,0.0,0.0,0.0,0.0,0.0,0.0,0.0,0.0,0.0,0.0,0.0,0.0,0.0,0.0,0.0,0.0,0.0,0.0,0.0,0.0,0.0,0.0,0.0,0.0,0.0,0.0,0.0,0.0,0.0,0.0,0.0,0.0,0.0,0.0,0.0,0.0,0.0,0.0,0.0,0.0,0.0,0.0,0.0,0.0,0.0,0.0,0.0,0.0,0.0,0.0,0.0,0.0,0.0,0.0,0.0,0.0,0.0,0.0,0.0,0.0,0.0,0.0,0.0,0.0,0.0,0.0,0.0,0.0,0.0,0.0,0.0,0.0,0.0,0.0,0.0,0.0,0.0,0.0,0.0,0.0,0.0,0.0,0.0,0.0,0.0,0.0,0.0,1.3082,1.2791,1.2742,1.2982,1.2859,1.26,1.2115,0.0,0.0,0.0,0.0,0.0,0.0,0.0,0.0,0.0,0.0,0.0,0.0,0.0,0.0,0.0,0.0,0.0,0.0,0.0,0.0,0.0,0.0,0.0,0.0,0.0,0.0,0.0,0.0,0.0,0.0,0.0,0.0,0.0,0.0,0.0,0.0,0.0,0.0,0.0,0.0,0.0,0.0,0.0,0.0,0.0,0.0,0.0,0.0,0.0,0.0,0.0,0.0,0.0,0.0,0.0,0.0,0.0,0.0,0.0,0.0,0.0,0.0,0.0,0.0,0.0,0.0,0.0,0.0,0.0,0.0,0.0,0.0,0.0,0.0,0.0,0.0,0.0,0.0,0.0,0.0,0.0,0.0,0.0,0.0,0.0,0.0,0.0,0.0,0.0,0.0,0.0,0.0,0.0,0.0,0.0,0.0,0.0,0.0,0.0,0.0,0.0,0.0,0.0,0.0,1.3785,1.3532,1.3402,1.326,1.3007,1.256,1.2343,1.2419,0.0,0.0,0.0,0.0,0.0,0.0,0.0,0.0,0.0,0.0,0.0,0.0,0.0,0.0,0.0,0.0,0.0,0.0,0.0,0.0,0.0,0.0,0.0,0.0,0.0,0.0,0.0,0.0,0.0,0.0,0.0,0.0,0.0,0.0,0.0,0.0,0.0,0.0,0.0,0.0,0.0,0.0,0.0,0.0,0.0,0.0,0.0,0.0,0.0,0.0,0.0,0.0,0.0,0.0,0.0,0.0,0.0,0.0,0.0,0.0,0.0,0.0,0.0,0.0,0.0,0.0,0.0,0.0,0.0,0.0,0.0,0.0,0.0,0.0,0.0,0.0,0.0,0.0,0.0,0.0,0.0,0.0,0.0,0.0,0.0,0.0,0.0,0.0,0.0,0.0,0.0,0.0,0.0,0.0,0.0,0.0,0.0,0.0,0.0,0.0,0.0,0.0,0.0,1.4105,1.404,1.3944,1.3894,1.3832,1.3706,1.3484,1.3327,1.3263,1.3173,0.0,0.0,0.0,0.0,0.0,0.0,0.0,0.0,0.0,0.0,0.0,0.0,0.0,0.0,0.0,0.0,0.0,0.0,0.0,0.0,0.0,0.0,0.0,0.0,0.0,0.0,0.0,0.0,0.0,0.0,0.0,0.0,0.0,0.0,0.0,0.0,0.0,0.0,0.0,0.0,0.0,0.0,0.0,0.0,0.0,0.0,0.0,0.0,0.0,0.0,0.0,0.0,0.0,0.0,0.0,0.0,0.0,0.0,0.0,0.0,0.0,0.0,0.0,0.0,0.0,0.0,0.0,0.0,0.0,0.0,0.0,0.0,0.0,0.0,0.0,0.0,0.0,0.0,0.0,0.0,0.0,0.0,0.0,0.0,0.0,0.0,0.0,0.0,0.0,0.0,0.0,0.0,0.0,0.0,0.0,0.0,0.0,0.0,0.0,0.0,0.0,0.0,1.4497,1.4447,1.4383,1.4351,1.4349,1.4332,1.4316,1.4187,1.3921,1.3795,0.0,0.0,0.0,0.0,0.0,0.0,0.0,0.0,0.0,0.0,0.0,0.0,0.0,0.0,0.0,0.0,0.0,0.0,0.0,0.0,0.0,0.0,0.0,0.0,0.0,0.0,0.0,0.0,0.0,0.0,0.0,0.0,0.0,0.0,0.0,0.0,0.0,0.0,0.0,0.0,0.0,0.0,0.0,0.0,0.0,0.0,0.0,0.0,0.0,0.0,0.0,0.0,0.0,0.0,0.0,0.0,0.0,0.0,0.0,0.0,0.0,0.0,0.0,0.0,0.0,0.0,0.0,0.0,0.0,0.0,0.0,0.0,0.0,0.0,0.0,0.0,0.0,0.0,0.0,0.0,0.0,0.0,0.0,0.0,0.0,0.0,0.0,0.0,0.0,0.0,0.0,0.0,0.0,0.0,0.0,0.0,0.0,0.0,0.0,0.0,0.0,0.0,1.5149,1.5119,1.489,1.481,1.4667,1.4413,1.4349,1.4187,1.3921,1.3891,0.0,0.0,0.0,0.0,0.0,0.0,0.0,0.0,0.0,0.0,0.0,0.0,0.0,0.0,0.0,0.0,0.0,0.0,0.0,0.0,0.0,0.0,0.0,0.0,0.0,0.0,0.0,0.0,0.0,0.0,0.0,0.0,0.0,0.0,0.0,0.0,0.0,0.0,0.0,0.0,0.0,0.0,0.0,0.0,0.0,0.0,0.0,0.0,0.0,0.0,0.0,0.0,0.0,0.0,0.0,0.0,0.0,0.0,0.0,0.0,0.0,0.0,0.0,0.0,0.0,0.0,0.0,0.0,0.0,0.0,0.0,0.0,0.0,0.0,0.0,0.0,0.0,0.0,0.0,0.0,0.0,0.0,0.0,0.0,0.0,0.0,0.0,0.0,0.0,0.0,0.0,0.0,0.0,0.0,0.0,0.0,0.0,0.0,0.0,0.0,0.0,0.0,1.5389,1.5314,0.0,1.5134,1.5012,1.4735,1.4653,1.4509,1.4235,0.0,0.0,0.0,0.0,0.0,0.0,0.0,0.0,0.0,0.0,0.0,0.0,0.0,0.0,0.0,0.0,0.0,0.0,0.0,0.0,0.0,0.0,0.0,0.0,0.0,0.0,0.0,0.0,0.0,0.0,0.0,0.0,0.0,0.0,0.0,0.0,0.0,0.0,0.0,0.0,0.0,0.0,0.0,0.0,0.0,0.0,0.0,0.0,0.0,0.0,0.0,0.0,0.0,0.0,0.0,0.0,0.0,0.0,0.0,0.0,0.0,0.0,0.0,0.0,0.0,0.0,0.0,0.0,0.0,0.0,0.0,0.0,0.0,0.0,0.0,0.0,0.0,0.0,0.0,0.0,0.0,0.0,0.0,0.0,0.0,0.0,0.0,0.0,0.0,0.0,0.0,0.0,0.0,0.0,0.0,0.0,0.0,0.0,0.0,0.0,0.0,0.0,1.5782,1.5711,1.5506,0.0,1.5125,1.5009,1.4758,1.4653,1.4631,1.4672,0.0,0.0,0.0,0.0,0.0,0.0,0.0,0.0,0.0,0.0,0.0,0.0,0.0,0.0,0.0,0.0,0.0,0.0,0.0,0.0,0.0,0.0,0.0,0.0,0.0,0.0,0.0,0.0,0.0,0.0,0.0,0.0,0.0,0.0,0.0,0.0,0.0,0.0,0.0,0.0,0.0,0.0,0.0,0.0,0.0,0.0,0.0,0.0,0.0,0.0,0.0,0.0,0.0,0.0,0.0,0.0,0.0,0.0,0.0,0.0,0.0,0.0,0.0,0.0,0.0,0.0,0.0,0.0,0.0,0.0,0.0,0.0,0.0,0.0,0.0,0.0,0.0,0.0,0.0,0.0,0.0,0.0,0.0,0.0,0.0,0.0,0.0,0.0,0.0,0.0,0.0,0.0,0.0,0.0,0.0,0.0,0.0,0.0,0.0,0.0,0.0,0.0,1.6194,1.6194,1.5849,1.4922,1.4766,1.4644,1.4438,1.4282,1.4529,0.0,0.0,0.0,0.0,0.0,0.0,0.0,0.0,0.0,0.0,0.0,0.0,0.0,0.0,0.0,0.0,0.0,0.0,0.0,0.0,0.0,0.0,0.0,0.0,0.0,0.0,0.0,0.0,0.0,0.0,0.0,0.0,0.0,0.0,0.0,0.0,0.0,0.0,0.0,0.0,0.0,0.0,0.0,0.0,0.0,0.0,0.0,0.0,0.0,0.0,0.0,0.0,0.0,0.0,0.0,0.0,0.0,0.0,0.0,0.0,0.0,0.0,0.0,0.0,0.0,0.0,0.0,0.0,0.0,0.0,0.0,0.0,0.0,0.0,0.0,0.0,0.0,0.0,0.0,0.0,0.0,0.0,0.0,0.0,0.0,0.0,0.0,0.0,0.0,0.0,0.0,0.0,0.0,0.0,0.0,0.0,0.0,0.0,0.0,0.0,0.0,0.0,0.0,1.6207,1.6371,1.6291,1.5834,1.5762,1.5681,1.547,1.5326,1.5286,1.5374,0.0,0.0,0.0,0.0,0.0,0.0,0.0,0.0,0.0,0.0,0.0,0.0,0.0,0.0,0.0,0.0,0.0,0.0,0.0,0.0,0.0,0.0,0.0,0.0,0.0,0.0,0.0,0.0,0.0,0.0,0.0,0.0,0.0,0.0,0.0,0.0,0.0,0.0,0.0,0.0,0.0,0.0,0.0,0.0,0.0,0.0,0.0,0.0,0.0,0.0,0.0,0.0,0.0,0.0,0.0,0.0,0.0,0.0,0.0,0.0,0.0,0.0,0.0,0.0,0.0,0.0,0.0,0.0,0.0,0.0,0.0,0.0,0.0,0.0,0.0,0.0,0.0,0.0,0.0,0.0,0.0,0.0,0.0,0.0,0.0,0.0,0.0,0.0,0.0,0.0,0.0,0.0,0.0,0.0,0.0,0.0,0.0,0.0,0.0,0.0,0.0,0.0,1.6543,1.6662,1.6603,1.6166,1.6121,1.603,1.5806,1.5708,1.5678,1.571,0.0,0.0,0.0,0.0,0.0,0.0,0.0,0.0,0.0,0.0,0.0,0.0,0.0,0.0,0.0,0.0,0.0,0.0,0.0,0.0,0.0,0.0,0.0,0.0,0.0,0.0,0.0,0.0,0.0,0.0,0.0,0.0,0.0,0.0,0.0,0.0,0.0,0.0,0.0,0.0,0.0,0.0,0.0,0.0,0.0,0.0,0.0,0.0,0.0,0.0,0.0,0.0,0.0,0.0,0.0,0.0,0.0,0.0,0.0,0.0,0.0,0.0,0.0,0.0,0.0,0.0,0.0,0.0,0.0,0.0,0.0,0.0,0.0,0.0,0.0,0.0,0.0,0.0,0.0,0.0,0.0,0.0,0.0,0.0,0.0,0.0,0.0,0.0,0.0,0.0,0.0,0.0,0.0,0.0,0.0,0.0,0.0,0.0,0.0,0.0,0.0,0.0,1.7115,1.7128,1.6877,1.6163,1.6082,1.5987,1.5749,1.5724,1.5896,1.6258,0.0,0.0,0.0,0.0,0.0,0.0,0.0,0.0,0.0,0.0,0.0,0.0,0.0,0.0,0.0,0.0,0.0,0.0,0.0,0.0,0.0,0.0,0.0,0.0,0.0,0.0,0.0,0.0,0.0,0.0,0.0,0.0,0.0,0.0,0.0,0.0,0.0,0.0,0.0,0.0,0.0,0.0,0.0,0.0,0.0,0.0,0.0,0.0,0.0,0.0,0.0,0.0,0.0,0.0,0.0,0.0,0.0,0.0,0.0,0.0,1.5654,0.0,0.0,0.0,0.0,0.0,0.0,0.0,0.0,0.0,0.0,0.0,0.0,0.0,0.0,0.0,0.0,0.0,0.0,0.0,0.0,0.0,0.0,0.0,0.0,0.0,0.0,0.0,0.0,0.0,0.0,0.0,0.0,0.0,0.0,0.0,0.0,0.0,0.0,0.0,0.0,0.0,1.7893,1.8047,1.7823,1.6897,1.6791,1.6766,1.6704,1.6704,1.6744,1.6812,1.6828,0.0,0.0,0.0,0.0,0.0,0.0,0.0,0.0,0.0,0.0,0.0,0.0,0.0,0.0,0.0,0.0,0.0,0.0,0.0,0.0,0.0,0.0,0.0,0.0,0.0,0.0,0.0,0.0,0.0,0.0,0.0,0.0,0.0,0.0,0.0,0.0,0.0,0.0,0.0,0.0,0.0,0.0,0.0,0.0,0.0,0.0,0.0,0.0,0.0,0.0,0.0,0.0,0.0,0.0,0.0,0.0,0.0,0.0,0.0,0.0,1.6653,0.0,0.0,0.0,0.0,0.0,0.0,0.0,0.0,0.0,0.0,0.0,0.0,0.0,0.0,0.0,0.0,0.0,0.0,0.0,0.0,0.0,0.0,0.0,0.0,0.0,0.0,0.0,0.0,0.0,0.0,0.0,0.0,0.0,0.0,0.0,0.0,0.0,0.0,0.0,0.0,1.8612,1.855,1.8251,1.7595,1.7539,1.7434,1.7216,1.7191,1.7142,1.7005,1.7005,0.0,0.0,0.0,0.0,0.0,0.0,0.0,0.0,0.0,0.0,0.0,0.0,0.0,0.0,0.0,0.0,0.0,0.0,0.0,0.0,0.0,0.0,0.0,0.0,0.0,0.0,0.0,0.0,0.0,0.0,0.0,0.0,0.0,0.0,0.0,0.0,0.0,0.0,0.0,0.0,0.0,0.0,0.0,0.0,0.0,0.0,0.0,0.0,0.0,0.0,0.0,0.0,0.0,1.968,1.9459,1.7601,1.8337,1.8635,1.8538,1.7976,1.8344,1.9217,1.7608,0.0,0.0,0.0,0.0,0.0,0.0,0.0,0.0,0.0,0.0,0.0,0.0,0.0,0.0,0.0,0.0,0.0,0.0,0.0,0.0,0.0,0.0,0.0,0.0,1.9159,1.8601,1.8601,0.0,0.0,0.0,0.0,0.0,0.0,0.0,0.0,0.0,0.0,0.0,1.9623,1.923,1.8821,1.8593,1.8336,1.8057,1.7809,1.7674,1.7474,1.7211,1.7199,1.715,0.0,0.0,0.0,0.0,0.0,0.0,0.0,0.0,0.0,0.0,0.0,0.0,0.0,0.0,0.0,0.0,0.0,0.0,0.0,0.0,0.0,0.0,0.0,0.0,0.0,0.0,0.0,0.0,0.0,0.0,0.0,0.0,1.597,1.6742,0.0,0.0,0.0,0.0,0.0,0.0,0.0,0.0,0.0,0.0,0.0,0.0,0.0,1.8151,1.8919,1.8921,1.8949,1.9024,2.0481,2.0708,1.9881,2.0562,2.087,2.0838,2.0164,0.0,1.8989,1.8228,0.0,0.0,0.0,0.0,0.0,0.0,0.0,0.0,0.0,0.0,0.0,0.0,0.0,0.0,0.0,0.0,0.0,0.0,0.0,0.0,0.0,0.0,2.021,2.021,1.9596,1.9019,0.0,1.8814,1.8811,1.9348,1.9032,0.0,0.0,0.0,0.0,0.0,0.0,0.0,2.1534,2.0925,2.0479,2.0444,1.9247,1.8681,1.9258,1.8724,1.8239,1.7973,1.7945,1.7777,1.7361,1.7511,0.0,0.0,0.0,0.0,0.0,0.0,0.0,0.0,0.0,0.0,0.0,0.0,0.0,0.0,0.0,0.0,0.0,0.0,0.0,0.0,0.0,0.0,0.0,0.0,0.0,0.0,0.0,0.0,0.0,1.5987,1.6723,1.7166,1.6993,1.6828,0.0,0.0,0.0,0.0,0.0,0.0,0.0,0.0,0.0,1.8923,1.8937,1.9379,2.0317,2.029,2.029,2.035,2.1373,2.1242,2.0163,2.0893,2.1075,2.0777,2.0471,2.0225,1.998,1.9526,1.9426,1.9517,0.0,0.0,0.0,0.0,1.9841,2.0794,2.1361,2.1638,2.168,2.1342,0.0,0.0,0.0,0.0,0.0,0.0,0.0,0.0,0.0,0.0,2.1762,2.1762,2.1194,2.0813,2.1245,2.0859,2.0327,0.0,2.0453,2.0811,2.0686,0.0,0.0,0.0,0.0,2.1786,2.2089,2.1583,2.1136,2.0979,2.0365,2.0048,2.0259,1.9984,1.9545,1.8986,1.8941,1.8655,1.8046,1.8107,1.8107,0.0,0.0,0.0,0.0,0.0,0.0,0.0,0.0,0.0,0.0,0.0,0.0,0.0,0.0,0.0,0.0,0.0,0.0,0.0,0.0,0.0,0.0,0.0,0.0,0.0,0.0,0.0,0.0,1.7082,1.7342,1.7745,1.7556,1.7378,0.0,0.0,0.0,0.0,0.0,0.0,1.9274,1.95,1.9723,2.001,2.0194,2.081,2.1884,2.1884,2.2023,2.2291,2.2829,2.2487,2.1392,2.2004,2.2052,2.167,2.167,2.179,2.1908,2.1062,2.0749,2.0735,2.0077,2.0084,2.0485,2.0492,2.121,2.2288,2.2886,2.314,2.31,2.2511,2.2379,2.2338,2.1667,0.0,0.0,0.0,0.0,2.2857,2.3709,2.3288,2.2694,2.2905,2.2414,2.2054,2.2666,2.249,2.1969,0.0,2.1817,2.2372,2.1981,0.0,0.0,0.0,0.0,2.2359,2.2707,2.2235,2.1839,2.1796,2.1434,2.123,2.1288,2.1089,2.0696,2.005,1.9987,1.9621,1.8811,1.8853,1.8765,1.8512,0.0,0.0,0.0,0.0,0.0,0.0,0.0,0.0,0.0,0.0,0.0,0.0,0.0,0.0,0.0,0.0,0.0,0.0,0.0,0.0,0.0,0.0,0.0,0.0,0.0,0.0,0.0,0.0,0.0,1.8746,1.8597,0.0,0.0,0.0,0.0,1.9144,1.9144,1.9271,1.9565,2.0298,2.0836,2.1113,2.1806,2.2685,2.3749,2.3763,2.4245,2.5196,2.5231,2.52,2.5143,2.5178,2.516,2.5156,2.5156,2.5169,2.4993,2.2739,2.1429,2.0855,2.1505,2.1779,2.1803,2.1803,2.2341,2.3056,2.3091,2.3265,2.3463,2.3427,2.3674,2.3835,2.2975,2.3391,0.0,0.0,2.3612,2.3251,2.4072,2.3121,2.213,2.2908,2.2481,2.1906,2.1943,2.2518,2.3027,0.0,2.2409,2.2177,2.2899,0.0,2.3288,2.4072,2.4174,2.4127,2.4011,2.3316,2.3049,2.3606,2.2355,2.1802,2.2542,2.1891,2.1372,2.1131,2.1057,2.0591,1.9587,1.9789,1.9479,1.8512,1.8695,0.0,0.0,0.0,0.0,0.0,0.0,0.0,0.0,0.0,0.0,0.0,0.0,0.0,0.0,0.0,0.0,0.0,0.0,0.0,0.0,0.0,0.0,0.0,0.0,0.0,0.0,0.0,0.0,1.9755,1.9366,0.0,1.9682,2.004,2.0431,2.0906,2.0941,2.1218,2.1823,2.2626,2.3093,2.3189,2.3919,2.4478,2.4861,2.4878,2.5041,2.5412,2.5412,2.5412,2.5412,2.5412,2.5491,2.5664,2.5664,2.5752,2.5847,2.5015,2.4035,2.2987,2.2189,2.2006,2.2165,2.2151,2.2464,2.2919,2.3396,2.3613,2.37,2.3852,2.4036,2.4183,2.3851,2.4026,2.4312,2.4275,2.4081,2.3933,2.422,2.393,2.3644,2.3933,2.3851,2.3691,2.3691,2.3934,2.4132,2.4132,2.3749,2.3536,2.3823,2.3878,2.397,2.4257,2.4294,2.4275,2.4229,2.3905,2.3755,2.3969,2.3396,2.3107,2.3379,2.3143,2.2751,2.2203,2.2139,2.1738,2.086,2.091,2.0812,2.0448,2.0505,2.0543,0.0,0.0,0.0,0.0,0.0,0.0,0.0,0.0,0.0,0.0,0.0,0.0,0.0,0.0,0.0,0.0,0.0,0.0,0.0,0.0,0.0,0.0,0.0,0.0,0.0,0.0,1.9792,2.046,2.0315,2.0378,2.086,2.1307,2.1779,2.2277,2.2312,2.2664,2.3455,2.4013,2.4413,2.4659,2.5402,2.5843,2.595,2.6185,2.638,2.6472,2.6472,2.6472,2.6472,2.6472,2.6581,2.6751,2.6751,2.6855,2.7001,2.6781,2.6206,2.5284,2.3595,2.3053,2.3199,2.3214,2.3328,2.3578,2.4423,2.4759,2.4831,2.4969,2.5105,2.5162,2.4856,2.4818,2.4798,2.4519,2.4436,2.4436,2.4436,2.4495,2.4561,2.4561,2.4645,2.47,2.47,2.47,2.47,2.47,2.4564,2.4436,2.4436,2.4436,2.4436,2.4436,2.4436,2.4419,2.4375,2.4294,2.433,2.4558,2.4212,2.4079,2.4344,2.4338,2.3987,2.3224,2.3363,2.2988,2.1938,2.1902,2.1776,2.1514,2.1806,2.2126,2.2438,0.0,0.0,0.0,0.0,0.0,0.0,0.0,0.0,0.0,0.0,0.0,0.0,0.0,0.0,0.0,0.0,0.0,0.0,0.0,0.0,0.0,0.0,0.0,1.9679,2.0325,2.0811,2.0888,2.1486,2.1919,2.1954,2.2658,2.3116,2.3116,2.3151,2.3497,2.4267,2.4368,2.472,2.5442,2.6243,2.679,2.7048,2.7754,2.8268,2.86,2.86,2.8612,2.8612,2.8612,2.8612,2.8612,2.8612,2.8612,2.8565,2.7988,2.7738,2.7562,2.5761,2.5067,2.5067,2.5067,2.5067,2.5198,2.6176,2.6649,2.6809,2.6809,2.6906,2.686,2.6003,2.5893,2.5861,2.5027,2.4775,2.4775,2.4775,2.4775,2.4775,2.4775,2.4775,2.4775,2.4775,2.4756,2.4737,2.4737,2.4737,2.4718,2.47,2.4718,2.4737,2.4737,2.4756,0.0,2.4603,2.4578,2.4824,2.5477,2.4848,2.4672,2.543,2.5384,2.4953,2.4158,2.4644,2.4313,2.2809,2.2755,2.2374,2.1595,2.2474,2.3382,2.4293,0.0,0.0,0.0,0.0,0.0,0.0,0.0,0.0,0.0,0.0,0.0,0.0,0.0,0.0,0.0,0.0,0.0,0.0,0.0,0.0,0.0,0.0,2.1555,2.1555,2.1121,2.1289,2.2607,2.2427,2.2427,2.3003,2.3381,2.3613,2.3613,2.4152,2.4577,2.4792,2.5907,2.6644,2.6842,2.762,2.8078,2.8167,2.8371,2.8582,2.8822,2.8822,2.8875,2.8959,2.8959,2.8959,2.8959,2.8959,2.8959,2.8941,2.8776,2.8717,2.8559,2.6943,2.6307,2.6307,2.6307,2.6307,2.6336,2.6626,2.682,2.6944,2.6944,2.7036,2.7097,2.6853,2.6822,2.681,2.6585,2.651,2.651,2.651,2.651,2.651,2.651,2.651,2.651,2.651,2.604,2.5635,2.5635,2.5635,2.5448,2.482,2.5214,2.5635,2.5635,2.6134,0.0,2.6468,2.6363,2.6385,2.6572,2.6302,2.5957,2.5532,2.5465,2.5095,2.4293,2.4393,2.4301,2.3878,2.386,2.375,2.3538,2.3787,2.4045,0.0,0.0,0.0,0.0,0.0,0.0,0.0,0.0,0.0,0.0,0.0,0.0,0.0,0.0,0.0,0.0,0.0,0.0,0.0,0.0,0.0,0.0,2.1323,2.1808,2.2779,2.2439,2.2325,2.3088,2.302,2.3102,2.3577,2.4039,2.4302,2.4302,2.5045,2.566,2.5986,2.688,2.755,2.7894,2.8364,2.86,2.86,2.8687,2.8785,2.8905,2.895,2.9023,2.9097,2.9097,2.9097,2.9097,2.9097,2.9097,2.9115,2.918,2.923,0.0,0.0,0.0,0.0,0.0,2.7551,2.7879,2.7879,2.8006,2.8138,2.8138,2.8183,2.8181,2.7815,2.7703,2.7628,2.7298,2.7204,2.7204,2.7204,2.7204,2.7204,2.7204,2.7204,2.7204,2.7204,2.6829,2.6499,2.6499,2.6499,0.0,2.5834,2.6172,2.6499,2.6499,2.6904,2.7204,2.7204,2.7125,2.7212,2.7549,2.7214,2.6898,2.673,2.633,0.0,0.0,0.0,2.4644,2.4312,2.4294,0.0,0.0,0.0,0.0,0.0,0.0,0.0,0.0,2.538,2.5194,0.0,0.0,0.0,0.0,0.0,0.0,0.0,0.0,0.0,0.0,0.0,0.0,0.0,0.0,0.0,0.0,2.1568,2.1387,2.3379,2.3831,2.365,2.2916,2.3397,2.3842,2.3933,2.4574,2.5045,2.5135,2.5878,2.6645,2.7351,0.0,0.0,0.0,0.0,2.8637,2.8637,2.8834,2.8934,2.8957,2.9079,2.9148,2.9169,2.9169,2.9169,2.9169,2.9169,2.9169,2.918,2.9353,2.9433,2.9348,2.8528,2.8199,2.8199,2.8199,2.8726,2.9433,2.9433,0.0,0.0,2.9701,2.9683,2.9551,2.8754,2.8529,2.8388,2.7665,2.7477,2.7477,2.7486,2.7486,2.7486,2.7486,2.7486,2.7486,2.7486,2.7392,2.7336,2.7336,2.7336,2.7336,2.7336,2.7336,2.7336,2.7336,2.743,2.7486,2.7486,2.7486,2.7768,2.8472,0.0,0.0,2.8351,2.7568,2.673,2.5918,2.5755,2.5366,2.4663,2.4626,2.5384,2.699,2.7027,2.7428,2.8257,2.8351,2.8078,2.7467,2.6372,2.6399,0.0,0.0,0.0,0.0,0.0,0.0,0.0,0.0,0.0,0.0,0.0,0.0,0.0,0.0,0.0,2.2644,2.2944,2.3071,2.2934,2.3976,2.4465,2.3687,2.3705,2.4049,2.4701,2.49,2.5262,2.5914,2.6699,2.7242,2.7387,2.802,2.8437,2.86,2.8761,2.8827,2.8827,2.8989,2.9144,2.9291,0.0,0.0,2.9579,2.9579,2.9579,2.9579,2.9579,2.9579,2.9579,2.9626,2.9645,2.9617,2.9448,2.9383,2.9383,2.9383,2.9486,2.9645,2.9645,2.9664,2.9701,2.9636,2.9664,2.9655,2.9363,2.9326,0.0,2.9186,2.9148,2.9158,2.9204,2.9213,2.9213,2.9213,2.9213,2.9213,2.9213,2.866,2.8172,2.8172,2.8172,2.8172,2.8172,2.8172,2.8172,2.8172,2.8781,2.9213,2.9213,2.9213,2.927,2.942,2.9307,2.8988,2.8444,2.8211,2.7771,2.6955,2.6901,2.6808,2.664,2.664,2.6807,2.7151,2.7151,2.7254,2.743,2.8078,2.8679,2.9176,2.7629,2.7366,0.0,0.0,0.0,0.0,0.0,0.0,0.0,0.0,0.0,0.0,0.0,2.1514,2.1514,0.0,2.2982,2.3864,2.3976,2.4134,2.4681,2.5423,2.5534,2.4523,2.4755,2.5153,2.557,2.5968,2.6367,2.6771,2.755,2.8002,2.8002,2.8482,2.8749,2.8749,2.8915,2.8989,2.8989,2.9166,2.9312,2.9402,2.9511,2.9589,2.9701,2.9701,2.9701,2.9701,2.9701,2.9701,2.9701,2.9701,2.9701,2.9701,2.9701,2.9701,2.9701,2.9701,2.9701,2.9701,2.9701,2.9701,2.9683,2.9655,2.9664,2.9692,2.9626,2.9626,2.9645,2.9645,2.9645,2.9673,2.9701,2.9701,2.9701,2.9701,2.9701,2.9701,2.9701,2.9363,2.9054,2.9054,2.9054,2.9054,2.9054,2.9054,2.9054,2.9054,2.942,2.9701,2.9701,2.9701,2.9701,2.9701,2.9701,2.9514,2.9092,2.866,2.8059,2.7242,2.7204,2.7204,2.7204,2.7204,2.7392,2.7796,2.8237,2.865,2.9054,2.9861,3.049,3.0875,3.0158,3.0014,0.0,0.0,0.0,0.0,0.0,0.0,0.0,0.0,2.0355,1.9703,2.1242,2.251,2.1896,2.2559,2.3672,2.5104,2.4942,2.512,2.6594,2.6928,2.6669,2.5706,2.6027,2.639,2.6536,2.7143,2.7579,2.7724,2.8343,2.8694,2.8694,2.8851,2.8945,2.8945,2.9079,2.9158,2.9158,2.9353,2.9453,2.9453,2.9626,2.9701,2.9701,2.9701,2.9701,2.9701,2.9701,2.9701,2.9701,2.9701,2.9701,2.972,2.987,2.9927,2.9927,2.9927,3.0021,3.0171,3.0161,3.018,3.0152,3.0133,3.0142,3.0152,3.0133,3.0142,3.0124,2.9955,3.0049,3.0086,2.9777,2.9851,2.9926,2.9748,2.9719,2.9738,2.971,2.9692,2.9701,2.9701,2.9701,2.9701,2.9701,2.9701,2.9701,2.9701,2.9701,2.9701,2.9701,2.9701,2.9701,2.9701,2.9701,2.9701,2.9701,2.9054,2.8378,2.773,2.7824,2.7843,2.7693,2.7993,2.8378,2.8876,2.9739,3.049,3.1137,3.1975,3.24,3.24,3.2767,3.2819,2.1012,2.062,2.0314,2.1124,2.0807,2.0644,0.0,0.0,2.1351,2.126,2.2011,2.2712,2.2739,2.3974,2.5114,2.5437,2.6048,2.6576,2.678,2.7417,2.7811,2.7688,2.7116,2.7005,2.7733,2.788,2.8201,2.8865,2.8994,2.9049,2.9049,2.9071,2.9082,2.9082,2.928,2.9382,2.9382,2.956,2.9664,2.9664,2.9701,2.9701,2.9701,2.9701,2.9701,2.9701,2.9701,2.9701,2.9701,2.9701,2.9701,2.9758,3.048,3.0762,3.0762,3.0762,3.1222,3.1832,3.1829,3.1827,3.1807,3.1683,3.1725,3.1807,3.1686,3.1736,3.1677,3.0891,3.1228,3.15,3.0067,3.0318,3.0727,2.9896,2.9787,2.9857,2.9726,2.9701,2.9701,2.9701,2.9701,2.9701,2.9701,2.9701,2.9701,2.9701,2.9701,2.9701,2.9701,2.9701,2.9701,2.9701,2.9701,2.9701,2.9701,2.9608,2.9514,2.942,3.0096,3.0161,2.9439,3.079,3.126,3.0631,3.1429,3.1879,3.1973,3.2949,3.343,3.3458,3.4376,3.4319,2.2011,0.0,0.0,0.0,2.1251,2.1641,2.1462,2.189,2.2191,2.1814,2.2749,2.3648,2.3704,2.4643,2.5779,0.0,2.7371,2.7819,2.8409,2.8782,2.8996,2.8996,2.8689,2.8527,2.8638,2.8635,2.8764,2.9078,2.9097,2.9097,2.9097,2.922,2.9272,2.9272,2.9463,2.9569,2.9569,2.9655,2.9701,2.9701,2.9701,2.9701,2.9701,2.9701,2.9701,2.9701,2.9701,2.9701,2.9701,2.9701,2.9983,3.0424,3.0762,3.1474,3.2231,3.1773,3.181,3.2091,3.2067,3.2046,3.2046,3.2024,3.2056,3.2098,3.2031,3.2062,3.2048,3.1798,3.1939,3.2052,3.1571,3.1629,3.1728,3.1496,3.142,3.1398,3.1336,3.1398,3.1408,3.1251,3.1242,3.1251,3.1177,3.112,3.1091,3.1091,3.0302,2.9701,2.9701,2.9701,2.987,3.0359,3.0828,3.1091,3.1091,3.1091,3.1091,3.1091,3.141,3.1506,3.1278,3.192,3.1928,3.1206,3.2486,3.2904,3.2402,3.379,3.4471,3.4499,3.5013,3.5059,2.285,0.0,0.0,2.1452,2.1953,2.2519,2.1456,2.229,2.3088,2.2372,2.3333,2.4367,2.4643,2.5356,2.6423,2.7998,2.8456,2.8867,2.9598,2.9701,2.9701,2.9701,2.9701,2.9579,2.9293,2.9272,2.9272,2.9272,2.9272,2.9272,2.9272,2.9394,2.9472,2.9472,2.9626,2.9701,2.9701,2.9701,2.9814,3.0021,3.0021,3.0021,3.0021,2.9795,2.9701,2.9701,2.9701,2.9701,2.972,2.9945,3.0377,3.095,3.138,3.2268,3.3248,3.2842,3.2721,3.2721,3.2678,3.2667,3.2667,3.2721,3.2785,3.2838,3.2841,3.2871,3.2883,3.2829,3.289,3.293,3.2745,3.2762,3.2775,3.2714,3.2649,3.2595,3.2564,3.2619,3.2646,3.2441,3.2458,3.2457,3.2343,3.2297,3.2175,3.1939,3.1082,3.0452,3.0368,3.0171,3.0171,3.0518,3.1091,3.1429,3.1429,3.1477,3.1487,3.1487,3.1742,3.1862,3.1762,3.2435,3.2474,3.174,3.3391,3.3918,3.328,3.4569,3.5178,3.5185,3.5385,3.5592,0.0,0.0,2.2124,2.2844,2.3047,2.3093,2.3037,2.3656,2.4035,2.3231,2.3712,2.4579,2.5493,2.6367,2.726,2.8239,2.9092,2.9664,2.9701,2.9701,2.9701,2.9701,2.9701,2.9701,0.0,2.9673,2.9673,2.9673,2.9673,2.9673,2.9673,2.9692,2.9701,2.9701,2.9701,2.9701,2.9701,2.9701,3.0096,3.0856,3.0856,3.0856,3.0837,3.0058,2.9701,2.9701,2.9701,2.9701,2.9758,3.0537,3.0875,3.1052,3.2614,3.3248,3.3387,3.4004,3.4265,3.4341,3.433,3.433,3.433,3.4341,3.451,3.4726,3.4726,3.4823,3.4763,3.4058,3.4374,3.4573,3.31,3.3379,3.3825,3.2905,3.2794,3.2853,3.2713,3.2701,3.2699,3.2691,3.2691,3.2691,3.2684,3.2684,3.2397,3.1541,3.1995,3.233,3.2069,3.1344,3.0574,2.9814,2.9758,2.9758,2.9758,2.9882,2.9964,2.9964,3.0887,3.1035,3.0197,3.2531,3.3455,3.2581,3.4216,3.5048,3.501,3.5276,3.5391,3.5398,3.5608,3.6104,0.0,0.0,2.3305,2.25,2.312,2.3775,2.3339,2.3868,2.4378,2.419,2.4831,2.5689,2.6527,2.736,2.8221,2.9129,2.9514,2.9701,2.9701,2.9701,2.9701,2.9701,2.9701,0.0,0.0,0.0,0.0,2.9701,2.9701,2.9701,2.9701,2.9701,2.9701,2.9701,2.9701,2.9701,2.9701,2.9701,2.9833,3.0114,3.0631,3.1175,3.1692,3.141,3.1278,3.1278,3.1278,3.1278,3.1316,3.1579,3.1999,3.2539,3.309,3.356,3.402,3.4419,3.4537,3.4505,3.4386,3.4446,3.4609,3.4651,3.4793,3.4933,3.4987,3.5032,3.5043,3.492,3.5002,3.507,3.477,3.4795,3.4863,3.4712,3.4654,3.4604,3.4571,3.4629,3.4642,3.4453,3.4467,3.4462,3.4374,3.4316,3.4178,3.3891,3.2105,3.0932,3.1318,3.1091,3.0799,3.0518,3.1092,3.1486,3.1486,3.1604,3.1683,3.1683,3.2557,3.2966,3.2755,3.4124,3.4557,3.3812,3.5445,3.5746,3.4629,3.5816,3.613,3.5608,3.6228,3.6632,0.0,2.3459,2.3822,2.3092,2.369,2.4331,2.3897,2.4204,2.4687,2.5086,2.5354,2.5955,2.7373,2.7815,2.8341,2.9514,2.9701,2.9701,2.9701,2.9701,2.9701,2.9701,2.9701,2.9701,0.0,0.0,0.0,3.0114,2.9852,2.9833,3.0114,2.9852,2.9701,2.9701,2.9701,2.9701,2.9701,2.9983,3.0434,3.1034,3.155,3.2057,3.2555,3.2236,3.2105,3.2105,3.2105,3.2105,3.2123,3.2443,3.2903,3.345,3.3713,3.4126,3.4569,3.4744,3.4774,3.4726,3.4584,3.4656,3.4823,3.4889,3.5013,3.5151,3.5193,3.5216,3.5273,3.5457,3.5411,3.5369,3.5626,3.5578,3.5489,3.5656,3.5626,3.5559,3.5559,3.5645,3.5651,3.5483,3.5477,3.549,3.539,3.5074,3.4942,3.5193,3.2798,3.1226,3.1933,3.2002,3.1862,3.1559,3.211,3.252,3.252,3.2634,3.2716,3.2716,3.3559,3.3973,3.3756,3.4886,3.5166,3.4413,3.5762,3.5936,3.4877,3.5955,3.6342,3.6149,3.6651,3.7232,2.4238,2.4107,2.3739,2.452,2.47,2.47,2.47,2.4718,2.5008,2.5823,2.541,2.5601,0.0,0.0,2.7843,2.9439,2.9701,2.9701,2.9701,2.9701,2.9701,0.0,0.0,0.0,0.0,0.0,0.0,3.0968,0.0,3.0077,3.0912,3.0208,2.9777,2.9814,2.9814,2.9814,2.9814,3.0574,3.1775,3.339,3.339,3.3408,3.3427,3.2611,3.2236,3.2217,3.2217,3.2236,3.2302,3.3129,3.354,3.3743,3.45,3.4898,3.4997,3.5006,3.5022,3.5018,3.5026,3.5026,3.5026,3.5087,3.5258,3.5431,3.5431,3.5451,3.5534,3.5662,3.5608,3.554,3.5668,3.5704,3.5704,3.5704,3.5704,3.5704,3.5704,3.5704,3.5704,3.5704,3.5704,3.5704,3.5704,3.5051,3.4773,3.547,3.4167,3.3307,3.3842,3.3876,3.3551,3.2775,3.2706,3.2713,3.2713,3.282,3.2916,3.2916,3.3857,3.4021,3.3204,3.4795,3.5303,3.4471,3.5322,3.5762,3.5762,3.58,3.6226,3.698,3.7019,3.7928,2.387,2.4088,2.4445,2.4643,2.47,2.47,2.47,2.5196,2.5729,2.5944,2.6773,2.7646,0.0,0.0,0.0,2.9626,2.9701,0.0,2.9701,2.9701,0.0,0.0,0.0,2.9945,3.0537,3.0593,0.0,0.0,3.0865,3.0302,3.1729,3.1025,3.0865,3.1466,3.1485,3.1485,3.1485,3.1692,3.233,3.339,3.339,3.3719,3.4282,3.4057,3.3942,3.388,3.388,3.3936,3.405,3.4336,3.4519,3.4659,3.4865,3.4969,3.5015,3.517,3.5212,3.5242,3.5457,3.5418,3.5309,3.5316,3.5457,3.562,3.562,3.5645,3.5656,3.5679,3.5673,3.5656,3.5679,3.5704,3.5704,3.5704,3.5704,3.5704,3.5704,3.5704,3.5704,3.5704,3.5704,3.5704,3.5704,3.6013,3.6336,3.6507,3.6167,3.5425,3.4143,3.3402,3.2928,3.2718,3.2799,3.2859,3.2859,3.297,3.3051,3.3051,3.3895,3.4297,3.4079,3.5123,3.5588,3.538,3.6187,3.6593,3.6593,3.7251,3.7671,3.7883,3.8528,3.9075,2.405,2.4351,2.47,2.47,2.47,2.47,2.47,2.5372,2.6094,2.6443,2.7242,0.0,0.0,0.0,0.0,0.0,0.0,0.0,2.9739,2.9701,2.9701,0.0,2.9701,0.0,3.0818,3.0893,3.1607,0.0,3.1767,3.1147,3.2048,3.1673,3.1456,3.1579,3.1917,3.2274,3.2668,3.2668,3.31,3.3926,3.3926,3.4151,3.4612,3.4612,3.4561,3.4495,0.0,3.4596,3.4753,3.4783,3.4944,3.5179,3.517,3.5209,3.5273,3.5418,3.5477,3.5496,3.5656,3.5626,3.5527,3.5527,3.5614,3.5704,3.5704,3.5704,3.5704,3.5704,3.5704,3.5704,3.5704,3.5704,3.5704,3.5704,3.5704,3.5704,3.5704,3.5704,3.5704,3.5704,3.5704,3.5704,3.5704,3.6071,3.6361,3.6361,3.6361,3.5973,3.4892,3.4321,3.4026,3.4026,3.4089,3.4125,3.4125,3.4202,3.4229,3.4229,3.5027,3.5336,3.4993,3.5781,3.6052,3.5704,3.6497,3.6903,3.6903,3.7767,3.8411,3.8779,3.9268,3.9694,2.452,2.47,2.47,2.47,2.4801,2.4839,2.4718,2.5466,2.6349,2.7054,0.0,0.0,2.9401,0.0,2.9701,2.9701,0.0,3.0499,2.9795,2.9701,2.9701,2.9701,2.9795,3.019,3.0987,3.1156,3.1869,3.3438,3.2856,3.2386,3.2274,3.2274,3.2011,3.14,3.2067,3.2799,3.355,3.3569,3.3907,3.4612,3.4612,3.4612,3.4612,3.4612,3.4561,3.4495,3.4495,3.4628,3.4822,3.4832,3.506,3.5422,3.545,3.5521,3.5612,3.5679,3.5704,3.5704,3.5704,3.5704,3.5704,3.5704,3.5704,3.5704,3.5704,3.5704,3.5704,3.5704,3.5704,3.5704,3.5704,3.5704,3.5704,3.5704,3.5704,3.5704,3.5704,3.5704,3.5704,3.5704,3.5704,3.5704,3.5704,3.5781,3.5858,3.5858,3.5858,3.5858,3.5858,3.5762,3.5704,3.5704,3.5704,3.5704,3.5704,3.5704,3.5704,3.5704,3.6342,3.6477,3.5878,3.6535,3.6632,3.6033,3.6729,3.7135,3.7251,3.8005,3.8818,3.9675,3.9675,4.0081,2.4662,2.47,2.47,2.47,2.5233,2.5598,2.4858,2.589,0.0,0.0,0.0,2.8491,2.9514,2.9701,0.0,2.9701,0.0,0.0,0.0,0.0,2.9701,0.0,0.0,0.0,0.0,0.0,0.0,0.0,0.0,3.3869,3.3212,3.3164,3.3419,3.3944,3.4095,3.4226,3.4395,3.4395,3.4451,3.4612,3.4612,3.4612,3.4612,3.4612,3.4561,3.4495,3.4495,0.0,3.4981,3.4978,3.5201,3.5571,3.5626,3.5668,3.5679,3.5704,3.5704,3.5704,3.5704,3.5704,3.5704,3.5704,3.5704,3.5704,3.5704,3.5704,3.5704,3.5704,3.5704,3.5704,3.5704,3.5704,3.5704,3.5704,3.5704,3.5704,3.5704,3.5704,3.5704,3.5704,3.5704,3.5704,3.5704,3.6245,3.669,3.669,3.669,3.669,3.669,3.611,3.5704,3.5704,3.5704,3.5704,3.5704,3.5704,3.5704,3.5704,3.582,3.6149,3.6671,3.6826,3.7174,3.7748,3.7903,3.8334,3.9056,3.9191,3.9713,4.0565,4.0565,4.0661,2.47,2.47,2.47,2.47,2.5008,2.5335,2.5372,0.0,0.0,0.0,0.0,2.8022,2.8866,0.0,0.0,0.0,0.0,0.0,0.0,0.0,0.0,0.0,0.0,0.0,0.0,0.0,0.0,0.0,0.0,3.3607,3.278,3.2724,3.3306,3.4556,3.4612,3.4612,3.4612,3.4612,3.4612,3.4612,3.4612,3.4612,3.4612,3.4612,3.4561,3.4495,3.4495,3.467,3.4944,3.4985,3.5224,3.5565,3.5662,3.5704,3.5704,3.5704,3.5704,3.5704,3.5704,3.5704,3.5704,3.5704,3.5704,3.5704,3.5704,3.5704,3.5704,3.5704,3.5704,3.5704,3.5704,3.5704,3.5704,3.5704,3.5704,3.5704,3.5704,3.6033,3.6207,3.5781,3.6033,3.6323,3.6323,3.6632,3.7058,3.7516,3.7574,3.7574,3.7574,3.7251,3.6671,3.5781,3.6071,3.6323,3.6323,3.6748,3.7,3.7,3.7,3.7174,3.7555,3.7574,3.7767,3.8193,3.8644,3.9075,3.9501,3.9965,4.039,4.0797,4.0797,4.1029,2.4933,2.4839,2.47,2.47,2.4839,2.5102,2.5617,2.5869,0.0,0.0,0.0,2.7186,0.0,0.0,0.0,0.0,0.0,0.0,0.0,0.0,0.0,0.0,0.0,0.0,0.0,0.0,0.0,0.0,0.0,0.0,3.2123,3.2105,3.278,3.4301,3.4339,3.4433,3.4612,3.4433,3.4433,3.4612,3.4612,3.4612,3.4612,3.4612,3.4561,3.4517,3.4517,3.4678,3.4898,3.4996,3.5201,3.549,3.5631,3.5704,3.5704,3.5704,3.5704,3.5704,3.5704,3.5704,3.5704,3.5704,3.5704,3.5704,3.5704,3.5704,3.5704,3.5704,3.5704,3.5704,3.5704,3.5704,3.5704,3.5704,3.5704,3.5704,3.5704,3.6323,3.6709,3.6071,3.6613,3.7174,3.7174,3.7174,3.74,3.8096,3.8193,3.8193,3.8193,3.8193,3.7696,3.6381,3.6806,3.7174,3.7174,3.7806,3.8193,3.8193,3.8193,3.827,3.847,3.8489,3.8566,3.876,3.9423,3.9771,3.9771,4.0468,4.0797,4.0797,4.099,4.139,2.5673,2.5297,2.47,2.47,2.5297,2.5692,2.4989,0.0,0.0,0.0,2.6169,2.6349,2.7167,0.0,0.0,0.0,0.0,0.0,0.0,0.0,0.0,0.0,0.0,0.0,0.0,0.0,0.0,0.0,0.0,3.14,3.2067,3.2105,3.2536,3.3494,3.3513,3.3869,3.4594,3.3888,3.3888,3.4612,3.4612,3.4612,3.4612,3.4612,3.4602,3.4602,3.4602,3.471,0.0,3.5049,3.5209,3.5438,3.562,3.5704,3.5704,3.5704,3.5704,3.5704,3.5704,3.5704,3.5704,3.5704,3.5704,3.5704,3.5704,3.5704,3.5704,3.5704,3.5704,3.5704,3.5704,3.5704,3.5704,3.5704,3.5704,3.5704,3.5704,3.6323,3.6884,3.6806,3.7497,3.8077,3.8077,3.8077,3.8115,3.8193,3.8193,3.8193,3.8193,3.8193,3.8135,3.798,3.8038,3.8077,3.8077,3.8154,3.8193,3.8193,3.8193,3.8566,3.9346,3.9385,3.9752,4.0545,4.0642,4.0681,4.0681,4.0758,4.0797,4.0816,4.1545,4.1932,2.512,2.497,2.47,2.47,2.4951,2.5252,2.5448,0.0,0.0,2.651,2.5911,2.5622,2.696,2.68,0.0,0.0,0.0,0.0,0.0,0.0,0.0,0.0,0.0,0.0,0.0,0.0,0.0,0.0,0.0,3.1335,3.0678,3.156,3.2724,3.4076,3.4113,3.4282,3.4612,3.4282,3.4282,3.4612,3.4612,3.4612,3.4612,3.4612,3.4612,3.4612,3.4612,3.4676,0.0,3.5024,3.5162,3.5314,3.5596,3.5704,3.5704,3.5704,3.5704,3.5704,3.5704,3.5704,3.5704,3.5704,3.5704,3.5704,3.5704,3.5704,3.5704,3.5704,3.5704,3.5704,3.5704,3.6052,3.6555,3.7077,3.7193,3.7193,3.7193,3.787,3.8315,3.7773,3.8392,3.8972,3.8972,3.8972,3.9166,3.9688,3.9765,3.9765,3.9765,3.9765,3.9765,3.9765,3.9301,3.8972,3.8972,3.9456,3.9765,3.9765,3.9765,3.992,4.0274,4.0274,4.0448,4.0797,4.0797,4.0797,4.0797,4.0797,4.1048,4.1525,4.1854,4.257,2.5008,2.4895,2.47,2.47,2.47,2.4858,0.0,0.0,2.511,2.6539,2.5895,2.5429,2.6614,2.6387,2.6368,0.0,0.0,0.0,0.0,0.0,0.0,0.0,0.0,0.0,0.0,0.0,0.0,0.0,0.0,3.0997,3.0096,3.1128,3.2292,3.3475,3.3982,3.4245,3.4245,3.4245,3.4358,3.4612,3.4658,3.4689,3.4689,3.4732,3.4743,3.4743,3.4743,3.4763,0.0,3.51,3.522,3.5292,3.5571,3.5704,3.5704,3.5704,3.5704,3.5704,3.5704,3.5704,3.5704,3.5704,3.5704,3.5704,3.5704,3.5704,3.5704,3.5704,3.5704,3.5742,3.5994,3.6303,3.6826,3.7941,3.7999,3.7883,3.8135,3.8876,3.9327,3.8702,3.9282,3.9887,3.9887,3.9887,4.0081,4.0719,4.0797,4.0797,4.0797,4.0797,4.0797,4.0797,4.0255,3.9887,3.9887,4.0448,4.0797,4.0797,4.0797,4.0797,4.0797,4.0797,4.0797,4.0797,4.0797,4.0797,4.0797,4.1048,4.1448,4.2009,4.2531,4.3556,2.5748,2.5354,2.47,2.47,2.47,2.47,0.0,2.4714,2.4942,2.5842,2.5951,2.5908,2.6011,2.6019,2.6019,2.6019,2.6687,0.0,0.0,0.0,0.0,0.0,0.0,0.0,0.0,0.0,0.0,0.0,0.0,0.0,3.0856,3.0893,3.0912,3.095,3.2545,3.3408,3.3408,3.3408,3.3813,3.4594,3.4811,3.4908,3.4889,3.5022,3.5078,3.5078,3.5078,3.5098,0.0,3.5309,3.5398,3.5412,3.562,3.5704,3.5704,3.5704,3.5704,3.5704,3.5704,3.5704,3.5704,3.5704,3.5704,3.5704,3.5704,3.5704,3.5704,3.5704,3.5704,3.5878,3.669,3.6303,3.6129,3.7806,3.7535,3.7154,3.7999,3.8876,3.9501,3.9481,4.0197,4.0797,4.0797,4.0797,4.0797,4.0797,4.0797,4.0797,4.0797,4.0797,4.0797,4.0797,4.0797,4.0797,4.0797,4.0797,4.0797,4.0797,4.0797,4.0797,4.0797,4.0797,4.0797,4.0797,4.0797,4.0797,4.0797,4.1603,4.199,4.2048,4.3769,4.5007,2.5045,2.4914,2.47,2.47,2.4703,2.4706,2.4706,2.4655,2.4714,2.5054,2.5533,2.6095,2.6708,2.6368,2.6564,2.8246,2.7768,0.0,0.0,0.0,0.0,0.0,0.0,0.0,0.0,0.0,0.0,0.0,3.0649,3.0631,3.0893,3.1982,3.2601,3.2601,3.3108,3.3663,3.4207,3.4363,3.4546,3.4811,3.4953,3.5041,3.5041,3.5081,3.5106,3.5106,3.5106,3.5106,3.5122,3.5316,3.5398,3.5412,3.562,3.5704,3.5704,3.5704,3.5704,3.5704,3.5704,3.5704,3.5704,3.5704,3.5704,3.5704,3.5704,3.5704,3.5704,3.5704,3.6091,3.6729,3.7574,3.8044,3.8572,3.9707,3.9765,3.963,3.992,4.0197,4.039,4.039,4.0603,4.0797,4.0797,4.0797,4.0797,4.0797,4.0797,4.0797,4.0797,4.0797,4.0797,4.0797,4.0797,4.0797,4.0797,4.0797,4.0797,4.0797,4.0797,4.0797,4.0797,4.0797,4.0797,4.0797,4.1332,4.1622,4.1622,4.2473,4.3189,4.3808,4.491,4.5548,0.0,2.466,2.4703,2.4703,2.4671,2.4666,2.4666,2.4623,2.4708,2.5086,2.5554,2.617,2.7046,2.68,2.6969,2.85,2.8143,0.0,0.0,0.0,0.0,0.0,0.0,0.0,0.0,0.0,0.0,0.0,3.1421,3.1478,3.1478,3.2524,3.3289,3.3573,3.3766,3.403,3.433,3.4737,3.4945,3.4981,3.5149,3.5209,3.5228,3.5288,3.5336,3.5336,3.5336,3.5336,0.0,3.5457,3.5515,3.5521,3.5656,3.5704,3.5704,3.5704,3.5704,3.5704,3.5704,3.5704,3.5704,3.5704,3.5704,3.5704,3.5704,3.5704,3.5704,3.5704,3.6284,3.7096,3.7961,3.8605,3.9307,4.0507,4.0545,4.041,4.0739,4.0797,4.0797,4.0797,4.0797,4.0797,4.0797,4.0797,4.0797,4.0797,4.0797,4.0797,4.0797,4.0797,4.0797,4.0797,4.0797,4.0797,4.0797,4.0797,4.0797,4.0797,4.0797,4.0797,4.0797,4.0797,4.0951,4.1261,4.1738,4.2164,4.2492,4.3363,4.4233,4.5065,4.5568,4.5807,0.0,2.4564,2.4674,2.4701,2.4631,2.458,2.458,2.4599,0.0,2.5639,2.5853,2.6178,2.7046,2.7204,2.7242,2.7355,0.0,0.0,0.0,0.0,0.0,0.0,0.0,0.0,0.0,0.0,0.0,3.2266,3.2335,3.245,3.2498,3.2683,3.3157,3.3987,3.4472,3.4491,3.3983,3.4681,3.5062,3.513,3.5336,3.5412,3.5438,3.562,3.5704,0.0,3.5704,3.5704,3.5704,3.5704,3.5704,3.5704,3.5704,3.5704,3.5704,3.5704,3.5704,3.5704,3.5704,3.5704,3.5704,3.5704,3.5704,3.5704,3.5704,3.5704,3.5704,3.5704,3.6284,3.7096,3.7961,3.8251,3.8721,4.041,4.0178,3.981,4.0623,4.0797,4.0797,4.0797,4.0797,4.0797,4.0797,4.0797,4.0797,4.0797,4.0797,4.0797,4.0797,4.0797,4.0797,4.0797,4.0797,4.0797,4.0797,4.0797,4.0797,4.0797,4.0797,4.0835,4.0874,4.0893,4.128,4.2086,4.2144,4.2609,4.3479,4.4291,4.5065,4.5807,4.5807,4.5807,2.4201,0.0,2.4498,2.4599,2.4572,2.452,0.0,2.4564,2.4663,0.0,0.0,0.0,0.0,0.0,0.0,0.0,0.0,0.0,0.0,0.0,0.0,0.0,0.0,0.0,0.0,0.0,0.0,3.3261,3.2858,3.2905,3.3508,3.3586,3.4064,3.5023,3.507,3.4996,3.4827,3.514,3.5314,3.5324,3.5527,3.5626,3.5626,3.5673,3.5704,3.5704,3.5704,3.5704,3.5704,3.5704,3.5704,3.5704,3.5704,3.5704,3.5704,3.5704,3.5704,3.5704,3.5704,3.5704,3.5704,3.5704,3.5704,3.5704,3.5704,3.5704,3.5704,3.5704,3.6284,3.7096,3.7961,3.8682,3.9462,4.0545,4.0642,4.0545,4.0758,4.0797,4.0797,4.0797,4.0797,4.0797,4.0797,4.0797,4.0797,4.0797,4.0797,4.0797,4.0797,4.0797,4.0797,4.0797,4.0797,4.0797,4.0797,4.0797,4.0797,4.0797,4.0797,4.1087,4.168,4.1719,4.2125,4.2976,4.3653,4.4388,4.52,4.5413,4.5633,4.5807,4.5807,4.5807,2.3546,2.3998,2.4452,2.4539,2.4522,2.4497,2.4495,0.0,0.0,0.0,0.0,0.0,0.0,0.0,0.0,0.0,0.0,0.0,0.0,0.0,0.0,0.0,0.0,0.0,0.0,0.0,3.4215,3.4285,3.4064,3.4141,3.4556,3.4677,3.4982,3.5527,3.547,3.5411,3.5371,3.5424,3.5483,3.5534,3.5656,3.5704,3.5704,3.5704,3.5704,3.5704,3.5704,3.5704,3.5704,3.5704,3.5704,3.5704,3.5704,3.5704,3.5704,3.5704,3.5704,3.5704,3.5704,3.5704,3.5704,3.5704,3.5704,3.5704,3.5704,3.5704,3.5704,3.5704,3.6574,3.7613,3.8077,3.9146,4.0216,4.07,4.0797,4.0797,4.0797,4.0797,4.0797,4.0797,4.0797,4.0797,4.0797,4.0797,4.0797,4.0797,4.0797,4.0797,4.0797,4.0797,4.0951,4.1313,4.1351,4.1506,4.1912,4.1951,4.1777,4.1371,4.1351,4.1719,4.257,4.2609,4.3015,4.3885,4.4362,4.4813,4.5258,4.5258,4.5258,4.5258,4.5633,4.5807,2.284,2.3665,2.4503,2.4495,2.4488,2.4498,2.4495,0.0,0.0,0.0,0.0,0.0,0.0,0.0,0.0,0.0,0.0,0.0,0.0,0.0,0.0,0.0,0.0,0.0,0.0,3.4963,3.5025,3.5138,3.5324,3.5393,3.5258,3.5402,3.5496,3.5496,3.5496,3.5574,3.5704,3.559,3.559,3.5704,3.5704,3.5704,3.5704,3.5704,3.5704,3.5704,0.0,0.0,3.5704,3.5704,3.5704,3.5704,3.5704,3.5704,3.5704,3.5704,3.5704,3.5704,3.5704,3.5704,3.5704,3.5704,3.5704,3.5704,3.5704,3.5781,3.5878,3.5878,3.6903,3.8057,3.8334,3.9495,4.0642,4.0777,4.0797,4.0797,4.0797,4.0797,4.0797,4.0797,4.0797,4.0797,4.0797,4.0797,4.0797,4.0797,4.0893,4.099,4.099,4.1106,4.1429,4.2125,4.2202,4.2492,4.3247,4.3305,4.3034,4.2434,4.228,4.2589,4.346,4.3498,4.3846,4.4594,4.4594,4.4594,4.4594,4.471,4.4775,4.4794,4.5471,4.5807,2.2756,2.3602,2.4495,2.4498,2.4488,2.4495,0.0,0.0,0.0,0.0,0.0,0.0,0.0,0.0,0.0,0.0,0.0,0.0,0.0,0.0,0.0,0.0,0.0,0.0,3.5066,3.5228,3.5336,3.5345,3.5534,3.5334,3.4599,3.4577,3.4607,3.4607,3.4607,3.4955,3.5684,3.5673,3.5673,3.5704,3.5704,3.5704,3.5704,3.5704,3.5704,3.5704,0.0,3.5704,3.5704,3.5704,3.5704,3.5704,3.5704,3.5704,3.5704,3.5704,3.5704,3.5704,3.5704,3.5704,3.5704,3.5704,3.5704,3.5704,3.5704,3.6187,3.6729,3.6729,3.6903,3.7444,3.892,3.9501,3.9887,4.0623,4.0797,4.0797,4.0797,4.0797,4.0797,4.0797,4.0797,4.0797,4.0797,4.0797,4.0797,4.0797,4.1371,4.1816,4.1816,4.2454,4.2957,4.3092,4.3092,4.315,4.3285,4.3305,4.3556,4.4149,4.3518,4.3498,4.4362,4.44,4.4458,4.4594,4.4594,4.4594,4.4594,4.5278,4.5633,4.5633,4.5749,4.5807,2.209,2.2983,2.3913,2.4376,2.4522,2.4564,0.0,0.0,0.0,0.0,0.0,0.0,0.0,0.0,0.0,0.0,0.0,0.0,0.0,0.0,0.0,0.0,0.0,3.5075,3.525,3.5357,3.5451,3.554,3.5656,3.5535,3.5129,3.4665,3.4394,3.4394,3.3944,3.3886,3.4292,3.4311,3.4775,3.5684,3.4756,3.4543,3.4974,3.4505,3.4543,3.4993,0.0,3.5264,3.5704,3.5704,3.5704,3.5704,3.5704,3.5704,3.5704,3.5704,3.5704,3.5704,3.5704,3.5704,3.5704,3.5704,3.5704,3.5704,3.5704,3.6265,3.7,3.7458,3.7947,3.8495,3.9288,3.9849,4.0294,4.07,4.0797,4.0797,4.0797,4.0797,4.0797,4.0797,4.0797,4.0797,4.0797,4.1164,4.1448,4.1448,4.2164,4.2705,4.2705,4.3053,4.3479,4.3962,4.4001,4.4175,4.4601,4.4253,4.4168,4.4574,4.4226,4.4168,4.4574,4.4149,4.411,4.4594,4.413,4.413,4.4594,4.4968,4.5142,4.5162,4.5594,4.5807,2.1589,2.2498,2.3419,2.4083,0.0,0.0,2.4674,0.0,0.0,0.0,0.0,0.0,0.0,0.0,0.0,0.0,0.0,0.0,0.0,0.0,0.0,0.0,0.0,3.5258,3.5451,3.5464,3.5527,3.5698,3.5704,3.5607,3.5419,3.4761,3.4394,3.4394,3.3552,3.3204,3.3397,3.2991,3.3571,3.5085,3.3745,3.3557,3.4374,3.3712,3.3886,3.4703,3.4703,3.509,3.5704,3.5704,3.5704,3.5704,3.5704,3.5704,3.5704,3.5704,3.5704,3.5704,3.5704,3.582,3.5974,3.5974,3.611,3.6284,3.6284,3.6864,3.7657,3.8315,3.9127,3.9791,3.9791,4.0294,4.0797,4.0797,4.0797,4.0797,4.0797,4.0797,4.0797,4.0797,4.0797,4.0855,4.1048,4.1583,4.2067,4.228,4.3053,4.3595,4.3595,4.3769,4.4136,4.4813,4.471,4.4775,4.5181,4.4659,4.4381,4.4594,4.44,4.4304,4.4304,4.3653,4.3614,4.4284,4.3846,4.3924,4.4594,4.4794,4.4891,4.491,4.551,4.5807,2.1718,2.252,2.3411,2.3467,0.0,0.0,2.4674,0.0,0.0,0.0,0.0,0.0,0.0,0.0,0.0,0.0,0.0,0.0,0.0,0.0,0.0,0.0,3.5385,3.5457,3.5662,3.5673,3.5679,3.5704,3.5704,3.5361,3.4549,3.4432,3.4394,3.4394,3.3552,3.3494,3.4297,3.2706,3.2353,3.33,3.3165,3.3557,3.4394,3.4336,3.4781,3.5607,3.5607,3.5646,3.5704,3.5704,3.5704,3.5704,3.5704,3.5704,3.5704,3.5704,3.5704,3.5704,3.5704,3.6187,3.6806,3.6806,3.7367,3.8019,3.8019,3.8624,3.9327,3.9385,4.0023,4.0719,4.0719,4.0758,4.0797,4.0797,4.0797,4.0797,4.0797,4.0797,4.0797,4.0797,4.0797,4.1048,4.1777,4.1951,4.228,4.3073,4.3962,4.4516,4.4516,4.5162,4.5652,4.571,4.5045,4.4304,4.3537,4.344,4.375,4.4555,4.3846,4.3401,4.3401,4.3324,4.3324,4.3401,4.413,4.4536,4.4594,4.5355,4.571,4.5729,4.5768,4.5807,2.1792,2.2258,2.2723,2.3258,0.0,0.0,0.0,0.0,0.0,0.0,0.0,0.0,0.0,0.0,0.0,0.0,0.0,0.0,0.0,0.0,3.5162,3.5538,3.5583,3.562,3.5684,3.5704,3.5704,3.5704,3.5704,3.5549,3.5226,3.4684,3.4394,3.4394,3.3552,3.2991,3.2783,3.2121,3.1715,3.1545,3.1545,3.199,3.2783,3.2783,3.3267,3.4112,3.4659,3.5206,3.5704,3.5704,3.5704,3.5704,3.5704,3.5704,3.5704,3.5704,3.5704,3.5762,3.6265,3.6651,3.7,3.7535,3.7922,3.8193,3.8193,3.8818,3.9501,3.9501,4.0139,4.0797,4.0797,4.0797,4.0797,4.0797,4.0797,4.0797,4.0797,4.0797,4.0797,4.0797,4.0797,4.1067,4.1854,4.2454,4.3092,4.3982,4.4381,4.4594,4.4594,4.4388,4.4253,4.4253,4.4465,4.4246,4.3363,4.3808,4.402,4.3808,4.3479,4.3537,4.4091,4.3595,4.3556,4.4091,4.442,4.4852,4.5355,4.5652,4.5807,4.5807,4.5807,4.5807,2.1995,2.2309,2.2645,0.0,0.0,0.0,0.0,0.0,0.0,0.0,0.0,0.0,0.0,0.0,0.0,0.0,0.0,0.0,0.0,0.0,3.5704,3.5704,3.5704,3.5704,3.5704,3.5704,3.5704,3.5704,3.5704,3.5704,3.5704,3.5129,3.4819,3.4819,3.3963,3.3223,3.2628,3.2063,3.1521,3.0984,3.0714,3.1023,3.1792,3.1792,3.243,3.3532,3.4137,3.4897,3.5704,3.5704,3.5704,3.5704,3.5704,3.5704,3.5704,3.5704,3.5704,3.5781,3.6323,3.6864,3.7406,3.7999,3.856,3.903,3.903,3.9437,3.9907,3.9907,4.0332,4.0797,4.0797,4.0797,4.0797,4.0797,4.0797,4.0797,4.0797,4.0797,4.0874,4.1126,4.1184,4.1525,4.2628,4.3324,4.3904,4.4516,4.4594,4.4497,4.4226,4.3672,4.3305,4.3305,4.4072,4.4246,4.3363,4.3846,4.4052,4.373,4.3711,4.3846,4.4168,4.3885,4.4001,4.4594,4.4852,4.5258,4.5807,4.5807,4.5807,4.5807,4.5807,4.5807,2.2346,2.2727,0.0,0.0,0.0,0.0,0.0,0.0,0.0,0.0,0.0,0.0,0.0,0.0,0.0,0.0,0.0,0.0,0.0,3.5684,3.5704,3.5704,3.5704,3.5704,3.5704,3.5704,3.5704,3.5704,3.5704,3.5704,3.5704,3.5704,3.5704,3.5704,3.4858,3.4413,3.4394,3.2687,3.1811,3.1792,3.0984,3.1023,3.1792,3.1792,3.2745,3.4394,3.4394,3.4897,3.5704,3.5704,3.5704,3.5704,3.5704,3.5704,3.5704,3.5704,3.5704,3.5704,3.5704,3.6806,3.8193,3.8212,3.9398,4.0797,4.0797,4.0797,4.0797,4.0797,4.0797,4.0797,4.0797,4.0797,4.0797,4.0797,4.0797,4.0797,4.0797,4.0797,4.1048,4.1835,4.2009,4.255,4.4304,4.4594,4.4594,4.4594,4.4594,4.4265,4.3401,4.3285,4.3285,4.3285,4.4078,4.4246,4.3401,4.3324,4.3692,4.4555,4.4613,4.4226,4.3363,4.4149,4.4613,4.4613,4.5394,4.5807,4.5807,4.5807,4.5807,4.5807,4.5807,4.5807,2.223,2.2431,0.0,0.0,0.0,0.0,0.0,0.0,0.0,0.0,0.0,0.0,0.0,0.0,0.0,0.0,0.0,0.0,3.4621,3.5303,3.5704,3.5704,3.5704,3.5704,3.5704,3.5704,3.5704,3.5704,3.5704,3.5704,3.5704,3.5704,3.5704,3.5704,3.5458,3.5013,3.4413,3.3891,3.3015,3.1792,3.156,3.1275,3.0984,3.1541,3.2411,3.3513,3.4137,3.4897,3.5704,3.5704,3.5704,3.5704,3.5704,3.5704,3.5704,3.5704,3.5704,3.5781,3.6342,3.727,3.829,3.8914,3.9887,4.0797,4.0797,4.0797,4.0797,4.0797,4.0797,4.0797,4.0797,4.0797,4.0797,4.0797,4.0797,4.0797,4.0797,4.0797,4.1048,4.1835,4.2009,4.255,4.4304,4.4594,4.4594,4.4594,4.4072,4.3169,4.1719,4.1545,4.1757,4.2338,4.3169,4.3827,4.4168,4.4736,4.5162,4.5432,4.5432,4.5336,4.5065,4.5316,4.5432,4.5432,4.5691,4.5807,4.5807,4.5807,4.5807,4.5807,4.5807,4.5807,2.2738,0.0,0.0,0.0,0.0,0.0,0.0,0.0,0.0,0.0,0.0,0.0,0.0,0.0,0.0,0.0,3.2196,3.301,3.4239,3.4858,3.5303,3.5665,3.5704,3.5704,3.5704,3.5704,3.5704,3.5704,3.5704,3.5704,3.5704,3.5704,3.5704,3.5704,3.5704,3.5458,3.4916,3.4568,3.3871,3.2822,3.2488,3.1889,3.1081,3.1255,3.1773,3.2643,3.3866,3.4897,3.5704,3.5704,3.5704,3.5704,3.5704,3.5704,3.5704,3.5704,3.5704,3.5762,3.6265,3.698,3.7831,3.8702,3.9578,4.0352,4.07,4.0797,4.0797,4.0797,4.0797,4.0797,4.0797,4.0797,4.0797,4.0797,4.0797,4.0797,4.0797,4.0797,4.1145,4.2299,4.2512,4.2957,4.4362,4.4594,4.4362,4.3672,4.286,4.1932,4.0932,4.1087,4.1603,4.2434,4.2995,4.3788,4.4987,4.5239,4.5452,4.5787,4.5807,4.5807,4.5807,4.5807,4.5807,4.5807,4.5807,4.5807,4.5807,4.5807,4.5807,4.5807,4.5807,4.5807,0.0,0.0,0.0,0.0,0.0,0.0,0.0,0.0,0.0,0.0,0.0,0.0,0.0,0.0,0.0,0.0,3.1753,3.2358,3.3949,3.4297,3.4684,3.5496,3.5646,3.5704,3.5704,3.5704,3.5704,3.5704,3.5704,3.5704,3.5704,3.5704,3.5704,3.5704,3.5704,3.5704,3.5704,3.4916,3.4471,3.4394,3.3513,3.2643,3.1773,3.1043,3.112,3.1908,3.3634,3.4858,3.5588,3.5665,3.5704,3.5704,3.5704,3.5704,3.5704,3.5704,3.5704,3.5704,3.5704,3.6226,3.7038,3.7922,3.8798,3.9655,4.0545,4.0797,4.0797,4.0797,4.0797,4.0797,4.0797,4.0797,4.0797,4.0797,4.0797,4.0797,4.0797,4.0797,4.13,4.2976,4.3247,4.3479,4.4439,4.4536,4.3924,4.2241,4.1313,4.0797,4.0797,4.1429,4.2222,4.3092,4.3247,4.3943,4.5555,4.5084,4.5026,4.5749,4.5807,4.5807,4.5807,4.5807,4.5807,4.5807,4.5807,4.5807,4.5807,4.5807,4.5814,4.5827,4.5827,4.5815,0.0,0.0,0.0,0.0,0.0,0.0,0.0,0.0,0.0,0.0,0.0,0.0,0.0,0.0,0.0,3.083,3.1386,3.1927,3.2319,3.3538,3.4471,3.4665,3.5284,3.5704,3.5704,3.5704,3.5704,3.5704,3.5704,3.5704,3.5704,3.5704,3.5704,3.5704,3.5704,3.5704,3.5704,3.551,3.509,3.4394,3.3513,3.2643,3.1792,3.1618,3.1637,3.1908,3.3634,3.451,3.4723,3.5419,3.5704,3.5704,3.5704,3.5704,3.5704,3.5704,3.5704,3.5704,3.5704,3.6226,3.7038,3.7922,3.8798,3.9655,4.0545,4.0797,4.0797,4.0797,4.0797,4.0797,4.0797,4.0797,4.0797,4.0797,4.0797,4.0797,4.0797,4.0797,4.13,4.2976,4.2744,4.2763,4.4323,4.4033,4.3227,4.2164,4.1313,4.0797,4.0797,4.0951,4.1371,4.2183,4.2899,4.373,4.4775,4.5278,4.5633,4.5787,4.5807,4.5807,4.5807,4.5807,4.5807,4.5807,4.5807,4.5807,4.5807,4.5807,4.5841,4.5964,4.5964,4.5993,0.0,0.0,0.0,0.0,0.0,0.0,0.0,0.0,0.0,0.0,0.0,0.0,0.0,0.0,0.0,3.0598,3.0946,3.1366,3.1753,3.259,3.3305,3.3731,3.4543,3.509,3.509,3.5458,3.5704,3.5704,3.5704,3.5704,3.5704,3.5704,3.5704,3.5704,3.5704,3.5704,3.5704,3.5284,3.4858,3.4394,3.3513,3.2643,3.1792,3.1405,3.1444,3.1869,3.3209,3.4002,3.4471,3.5342,3.5704,3.5704,3.5704,3.5704,3.5704,3.5704,3.5704,3.5704,3.5704,3.5974,3.6458,3.7309,3.8179,3.903,3.9907,4.0468,4.0797,4.0797,4.0797,4.0797,4.0797,4.0797,4.0797,4.0797,4.0797,4.0797,4.0797,4.0797,4.1164,4.2434,4.2318,4.2299,4.3208,4.2667,4.1951,4.1487,4.1067,4.0797,4.0797,4.1145,4.1699,4.2531,4.3034,4.3808,4.5065,4.52,4.5394,4.5787,4.5807,4.5807,4.5807,4.5807,4.5807,4.5807,4.5807,4.5807,4.5807,4.5854,4.5922,4.6002,4.6032,4.608,0.0,0.0,0.0,0.0,0.0,0.0,0.0,0.0,0.0,0.0,0.0,0.0,0.0,0.0,0.0,3.0598,3.0598,3.083,3.1502,3.1715,3.2063,3.2798,3.3634,3.4181,3.4181,3.4833,3.5317,3.5452,3.5477,3.553,3.5684,3.5704,3.5704,3.5704,3.5704,3.5704,3.5704,3.4839,3.4394,3.4394,3.3358,3.243,3.156,3.0907,3.0965,3.1657,3.2662,3.3513,3.4258,3.5278,3.5704,3.5704,3.5704,3.5704,3.5704,3.5704,3.5704,3.5704,3.5704,3.5704,3.582,3.6632,3.7497,3.8348,3.9249,4.012,4.0797,4.0797,4.0797,4.0797,4.0797,4.0797,4.0797,4.0797,4.0797,4.0835,4.099,4.0893,4.1087,4.2048,4.2106,4.1951,4.1816,4.1235,4.0797,4.0797,4.0797,4.0855,4.099,4.1583,4.2338,4.3208,4.344,4.4098,4.5471,4.5104,4.5084,4.5768,4.5807,4.5807,4.5807,4.5827,4.5822,4.5822,4.5822,4.5835,4.5861,4.5966,4.6018,4.6036,4.6091,4.6125,0.0,0.0,0.0,0.0,0.0,0.0,0.0,0.0,0.0,0.0,0.0,0.0,0.0,0.0,3.0598,3.0598,3.0598,3.0636,3.0752,3.1366,3.1831,3.1966,3.2739,3.3262,3.3262,3.3378,3.3764,3.4529,3.4568,3.4897,3.5665,3.5704,3.5704,3.5704,3.5704,3.5704,3.5704,3.4839,3.4394,3.4374,3.2745,3.1541,3.0752,3.0656,3.0656,3.0849,3.2411,3.3165,3.3397,3.5027,3.5704,3.5704,3.5704,3.5704,3.5704,3.5704,3.5704,3.5704,3.5704,3.5704,3.582,3.6632,3.7497,3.8348,3.9249,4.012,4.0797,4.0797,4.0797,4.0797,4.0797,4.0797,4.0797,4.0797,4.0797,4.099,4.168,4.1293,4.1261,4.2821,4.2512,4.1777,4.1087,4.0874,4.0797,4.0797,4.0797,4.1048,4.1757,4.1932,4.2338,4.3208,4.3982,4.4516,4.4736,4.5297,4.5691,4.5787,4.5807,4.5807,4.5807,4.5904,4.5975,4.5975,4.5975,4.6003,4.6068,4.608,4.6118,4.6167,4.6173,4.6212,0.0,0.0,0.0,0.0,0.0,0.0,0.0,0.0,0.0,0.0,0.0,0.0,0.0,0.0,3.0598,3.0598,3.0598,3.0598,3.0598,3.0907,3.1139,3.1139,3.185,3.2372,3.2372,3.2817,3.3262,3.3634,3.4118,3.435,3.4253,3.5162,3.5477,3.4993,3.5458,3.5477,3.4974,3.4118,3.3209,3.2261,3.1487,3.0946,3.0598,3.0598,3.0598,3.0694,3.2372,3.3107,3.3242,3.4988,3.5704,3.5704,3.5704,3.5704,3.5704,3.5704,3.5704,3.5704,3.5704,3.5704,3.5762,3.611,3.7116,3.827,3.8663,3.9727,4.0797,4.0797,4.0797,4.0797,4.0797,4.0797,4.0797,4.0797,4.0797,4.1029,4.1835,4.1371,4.1029,4.1757,4.1583,4.1222,4.0855,4.0797,4.0797,4.0797,4.0797,4.0932,4.1274,4.1719,4.2338,4.3208,4.4072,4.4775,4.5239,4.5594,4.5807,4.5807,4.5861,4.5886,4.5807,4.5963,4.6063,4.6063,4.6063,4.6064,4.6098,4.6137,4.6165,4.6204,4.624,4.6267,0.0,0.0,0.0,0.0,0.0,0.0,0.0,0.0,0.0,0.0,0.0,0.0,0.0,0.0,3.0633,3.0633,3.0633,3.0633,3.0633,3.0633,3.0625,3.06,3.1137,3.1492,3.1507,3.2082,3.2546,3.2759,3.3363,3.3557,3.3126,3.4543,3.5071,3.4413,3.5245,3.5284,3.4413,3.3325,3.2043,3.0598,3.0598,3.0598,3.0598,3.0598,3.0598,3.0694,3.2372,3.3107,3.3242,3.4988,3.5704,3.5704,3.5704,3.5704,3.5704,3.5704,3.5704,3.5704,3.5704,3.5704,3.5723,3.5936,3.7,3.8232,3.847,3.9591,4.0797,4.0797,4.0797,4.0797,4.0797,4.0797,4.0797,4.0797,4.0797,4.0971,4.1564,4.1371,4.1048,4.0835,4.0797,4.0797,4.0797,4.0797,4.0797,4.0797,4.0971,4.1184,4.1409,4.2144,4.2995,4.3846,4.4523,4.5142,4.5749,4.5807,4.5801,4.5854,4.5933,4.5956,4.5872,4.6037,4.6128,4.6128,4.6142,4.615,4.615,4.6204,4.6234,4.6235,4.6288,4.6308,0.0,0.0,0.0,0.0,0.0,0.0,0.0,0.0,0.0,0.0,0.0,0.0,0.0,0.0,3.0682,3.0682,3.0682,3.0682,3.0682,3.0682,3.0661,3.0616,3.0648,3.0657,3.0665,3.0694,3.1043,3.1811,3.1908,3.2275,3.3068,3.3963,3.4452,3.4394,3.5245,3.5284,3.4413,3.2725,3.1444,3.0598,3.0598,3.0598,3.0598,3.0598,3.0598,3.0694,3.2372,3.3107,3.3242,3.4988,3.5704,3.5704,3.5704,3.5704,3.5704,3.5704,3.5704,3.5704,3.5704,3.5704,3.582,3.6593,3.7464,3.8348,3.9191,4.0062,4.0797,4.0797,4.0797,4.0797,4.0797,4.0797,4.0797,4.0797,4.0797,4.0816,4.0855,4.1429,4.1699,4.0951,4.0797,4.0797,4.0797,4.0797,4.0797,4.0797,4.1448,4.2241,4.3053,4.3924,4.4775,4.5575,4.571,4.5749,4.5807,4.5807,4.5841,4.5986,4.5997,4.6022,4.6084,4.6155,4.6181,4.6181,4.6264,4.6289,4.6289,4.6289,4.6289,4.6289,4.6308,4.6308,0.0,0.0,0.0,0.0,0.0,0.0,0.0,0.0,0.0,0.0,0.0,0.0,0.0,0.0,3.0709,3.0709,3.0709,3.0709,3.0709,3.0709,3.0682,3.0664,3.0661,3.0655,3.0599,3.0591,3.0722,3.1009,3.1502,3.1715,3.1507,3.2822,3.3576,3.3576,3.3861,3.361,3.2745,3.1603,3.0888,3.0598,3.0598,3.0598,3.0598,3.0598,3.0598,3.0656,3.1773,3.2585,3.3242,3.4988,3.5704,3.5704,3.5704,3.5704,3.5704,3.5704,3.5704,3.5704,3.5704,3.5704,3.582,3.6632,3.7497,3.8348,3.9249,4.012,4.0797,4.0797,4.0797,4.0797,4.0797,4.0797,4.0797,4.0797,4.0797,4.0797,4.0797,4.1029,4.1145,4.0855,4.0797,4.0797,4.0797,4.0797,4.0797,4.0797,4.1487,4.2106,4.2434,4.3227,4.4098,4.4949,4.5066,4.5314,4.5877,4.5968,4.6002,4.6056,4.6105,4.6122,4.6102,4.6206,4.6241,4.6204,4.6266,4.6308,4.6308,4.6308,4.6308,4.6308,4.6308,4.6308,0.0,0.0,0.0,0.0,0.0,0.0,0.0,0.0,0.0,0.0,0.0,0.0,0.0,0.0,0.0,3.0768,3.0768,3.0768,3.0768,3.0768,3.0765,3.0732,3.073,3.0713,3.0639,3.061,3.0591,3.0593,3.11,0.0,3.0636,3.1908,3.2933,3.3513,3.3532,3.3126,3.2237,3.1424,3.0868,3.0598,3.0598,3.0598,3.0598,3.0598,3.0598,3.0656,3.1753,3.2565,3.3204,3.4679,3.5438,3.5704,3.5704,3.5704,3.5704,3.5704,3.5704,3.5704,3.5704,3.5704,3.5878,3.698,3.7729,3.8425,3.9578,4.0332,4.0797,4.0797,4.0797,4.0797,4.0797,4.0797,4.0797,4.0797,4.0797,4.0797,4.0797,4.0797,4.0797,4.0797,4.0797,4.0797,4.0797,4.0814,4.0934,4.1191,4.1962,4.2604,4.2901,4.3696,4.4467,4.5049,4.5133,4.539,4.5973,4.6068,4.6112,4.6134,4.6186,4.6197,4.6162,4.6244,4.6288,4.6238,4.6288,4.6308,4.6308,4.6308,4.6308,4.6308,4.6308,4.6601,0.0,0.0,0.0,0.0,0.0,0.0,0.0,0.0,0.0,0.0,0.0,0.0,0.0,0.0,0.0,3.0898,3.0898,3.0898,3.0898,3.0898,3.0878,3.0805,3.0801,3.0771,3.0715,3.0642,3.06,3.0597,3.0597,3.0602,3.0598,3.1386,3.2609,3.4278,3.4374,3.3982,3.3107,3.2237,3.1405,3.0636,3.0617,3.0598,3.0598,3.0598,3.0598,3.0694,3.2353,3.3088,3.3165,3.406,3.4935,3.5704,3.5704,3.5704,3.5704,3.5704,3.5704,3.5704,3.5704,3.5723,3.6013,3.7651,3.8212,3.8566,4.0268,4.0797,4.0797,4.0797,4.0797,4.0797,4.0797,4.0797,4.0797,4.0797,4.0797,4.0797,4.0797,4.0797,4.0797,4.0797,4.0797,4.0816,4.0835,4.0895,4.1203,4.2024,4.2938,4.3841,4.4686,4.5556,4.6098,4.6098,4.6102,4.6102,4.6102,4.6105,4.6134,4.6202,4.6204,4.6237,4.6308,4.6308,4.6308,4.6308,4.6308,4.6308,4.6308,4.6308,4.6308,4.6308,4.6308,4.7226,2.2884,0.0,0.0,0.0,0.0,0.0,0.0,0.0,0.0,0.0,0.0,0.0,0.0,0.0,0.0,0.0,3.0898,3.0898,3.0898,3.0898,3.0898,3.0878,3.0877,3.0854,3.0773,3.0762,3.0709,0.0,3.0595,3.0595,3.0602,3.1966,3.2662,3.2512,3.3731,3.3982,3.3107,3.2237,3.1695,3.1463,3.0888,3.0598,3.0598,3.0598,3.0598,3.0656,3.1715,3.2527,3.3223,3.4717,3.5472,3.5704,3.5704,3.5704,3.5704,3.5704,3.5704,3.5704,3.5704,3.6071,3.6748,3.7845,3.8624,3.9346,4.0468,4.0797,4.0797,4.0797,4.0797,4.0797,4.0797,4.0797,4.0797,4.0797,4.0797,4.0797,4.0797,4.0797,4.0797,4.0797,4.0797,4.099,4.1564,4.1715,4.2063,4.2918,4.3833,4.4527,4.4764,4.5556,4.6098,4.6098,4.6142,4.6165,4.6165,4.6212,4.6244,4.6267,4.6267,4.6288,4.6308,4.6308,4.6308,4.6308,4.6308,4.6308,4.6308,4.6308,4.6308,4.6308,4.6308,4.7226,0.0,0.0,0.0,0.0,0.0,0.0,0.0,2.9435,0.0,0.0,0.0,0.0,0.0,0.0,0.0,0.0,3.0898,3.0898,3.0898,3.0898,3.0898,3.0898,3.0898,3.0878,3.0853,3.0826,3.0767,3.0699,3.0626,3.0599,3.0602,3.1831,3.2314,3.1811,3.3479,3.3982,3.3107,3.2957,3.2512,3.1792,3.1308,3.0926,3.0598,3.0598,3.0598,3.0675,3.1831,3.2623,3.3242,3.4988,3.5704,3.5704,3.5704,3.5704,3.5704,3.5704,3.5704,3.5704,3.5704,3.6226,3.7044,3.795,3.8819,3.9691,4.0583,4.0834,4.0834,4.0834,4.0834,4.0843,4.0809,4.0797,4.0797,4.0797,4.0797,4.0797,4.0797,4.0797,4.0893,4.1235,4.1293,4.1564,4.2396,4.2625,4.2976,4.3852,4.449,4.5004,4.5377,4.5863,4.6173,4.6173,4.6212,4.6241,4.6241,4.6288,4.6308,4.6308,4.6308,4.6308,4.6308,4.6308,4.6308,4.6308,4.6308,4.6308,4.6308,4.6308,4.6308,4.6308,4.6308,4.7226,0.0,0.0,0.0,0.0,0.0,0.0,2.8708,2.9178,2.9527,0.0,0.0,0.0,0.0,0.0,0.0,0.0,3.0976,3.1016,3.0918,3.0898,3.0937,3.1035,3.0957,3.0937,3.1035,3.0892,3.0804,3.08,3.0686,3.0603,3.0601,3.1357,3.1831,3.1947,3.3538,3.406,3.3397,3.406,3.3576,3.1947,3.185,3.1386,3.0598,3.0598,3.0598,3.0694,3.2372,3.3107,3.3242,3.4979,3.5695,3.5704,3.5704,3.5704,3.5704,3.5704,3.5695,3.5706,3.5706,3.6292,3.719,3.8033,3.8971,3.99,4.0673,4.0902,4.0902,4.0902,4.0902,4.0903,4.0848,4.082,4.082,4.082,4.082,4.082,4.082,4.0827,4.1053,4.1859,4.2009,4.228,4.315,4.3491,4.3939,4.48,4.506,4.543,4.6191,4.6308,4.6308,4.6308,4.6308,4.6308,4.6308,4.6308,4.6308,4.6308,4.6308,4.6308,4.6308,4.6308,4.6308,4.6308,4.6308,4.6308,4.6308,4.6308,4.6308,4.6308,4.6308,4.7226,2.427,2.474,2.5288,0.0,0.0,0.0,0.0,2.7817,2.8608,0.0,0.0,0.0,0.0,0.0,0.0,0.0,0.0,3.1699,3.0996,3.0898,3.1152,3.1855,3.1328,3.1172,3.1875,3.1308,3.0856,3.0803,3.0686,3.0609,3.0591,3.1355,3.2121,3.2817,3.3866,3.4665,3.5182,3.4665,3.3886,3.2836,3.214,3.1386,3.0598,3.0598,3.0598,3.0694,3.2372,3.3107,3.3247,3.4981,3.5704,3.5704,3.5704,3.5704,3.5704,3.5704,3.5703,3.5691,3.5691,3.6752,3.813,3.8322,3.9435,4.076,4.0932,4.097,4.097,4.097,4.097,4.0986,4.0953,4.0968,4.0968,4.0968,4.0968,4.0968,4.0968,4.0915,4.1136,4.1984,4.2066,4.228,4.315,4.3982,4.4839,4.5712,4.5957,4.6113,4.6289,4.6308,4.6308,4.6308,4.6308,4.6308,4.6308,4.6308,4.6308,4.6308,4.6308,4.6308,4.6308,4.6308,4.6308,4.6308,4.6308,4.6308,4.6308,4.6308,4.6308,4.6308,4.6308,4.7226,2.4167,2.4862,2.5583,2.572,0.0,0.0,0.0,0.0,0.0,0.0,0.0,0.0,0.0,0.0,0.0,0.0,0.0,0.0,3.0957,3.1269,3.1855,3.2695,3.2051,3.1875,3.2715,3.2031,3.1346,3.0842,3.0737,3.0684,3.0656,3.1034,3.1631,3.2484,3.3344,3.4206,3.5032,3.5051,3.4389,3.3088,3.2662,3.1792,3.0598,3.0598,3.0598,3.0694,3.2372,3.3118,3.327,3.4982,3.5717,3.5741,3.5741,3.5741,3.5741,3.5741,3.5749,3.582,3.6248,3.7287,3.8486,3.8943,3.9986,4.1057,4.1057,4.1057,4.1033,4.1,4.1014,4.103,4.1,4.099,4.099,4.099,4.099,4.099,4.099,4.0963,4.1085,4.151,4.1863,4.25,4.3779,4.4807,4.5595,4.6024,4.6195,4.6265,4.6308,4.6308,4.6308,4.6308,4.6308,4.6308,4.6308,4.6308,4.6308,4.6308,4.6308,4.6308,4.6308,4.6308,4.6308,4.6308,4.6308,4.6308,4.6308,4.6308,4.6308,4.6308,4.6758,4.7656,0.0,0.0,0.0,0.0,0.0,2.6268,0.0,0.0,0.0,0.0,0.0,0.0,0.0,0.0,0.0,0.0,0.0,0.0,0.0,0.0,0.0,3.3301,3.2832,3.2754,3.3574,3.2754,3.1874,3.1104,3.0889,3.0921,3.1191,3.0888,3.1145,3.2117,3.2819,3.3586,3.4405,3.5276,3.4836,3.3146,3.3127,3.2232,3.0606,3.0591,3.0591,3.0683,3.241,3.316,3.3342,3.504,3.5762,3.5827,3.5816,3.5791,3.5791,3.5791,3.5916,3.618,3.6884,3.7805,3.8814,3.9569,4.0415,4.1098,4.0922,4.0981,4.1112,4.1059,4.1076,4.1112,4.1057,4.1047,4.1047,4.1047,4.1047,4.1047,4.1047,4.1039,4.1014,4.1044,4.1819,4.29,4.4248,4.5235,4.591,4.6099,4.616,4.6215,4.6289,4.6308,4.6308,4.6308,4.6308,4.6308,4.6308,4.6308,4.6308,4.6308,4.6308,4.6308,4.6308,4.6308,4.6308,4.6308,4.6308,4.6308,4.6308,4.6308,4.6308,4.6328,4.7187,4.8066,0.0,0.0,0.0,0.0,2.5666,0.0,0.0,0.0,0.0,0.0,0.0,0.0,0.0,0.0,0.0,0.0,0.0,0.0,0.0,0.0,0.0,3.3301,3.332,3.3594,3.4473,3.3066,3.2069,3.1951,3.1249,3.148,3.3003,3.1568,3.142,3.3002,3.3161,3.3608,3.4485,3.5297,3.4886,3.3279,3.3222,3.2276,3.0602,3.0593,3.0593,3.0703,3.2508,3.3273,3.3412,3.5168,3.5885,3.5887,3.5829,3.5791,3.5791,3.5791,3.6328,3.7061,3.716,3.8308,3.9745,3.9843,4.0488,4.1035,4.0273,4.0585,4.1191,4.1171,4.1171,4.1191,4.1171,4.1171,4.1171,4.1171,4.1171,4.1171,4.1171,4.1121,4.1111,4.1169,4.239,4.3472,4.3608,4.4377,4.5222,4.6054,4.62,4.6215,4.6289,4.6308,4.6308,4.6308,4.6308,4.6308,4.6308,4.6308,4.6308,4.6308,4.6308,4.6308,4.6308,4.6308,4.6308,4.6308,4.6308,4.6308,4.6308,4.6308,4.6308,4.6328,4.7187,4.8066,0.0,0.0,0.0,0.0,0.0,0.0,2.5224,0.0,2.5897,0.0,0.0,0.0,0.0,0.0,0.0,0.0,0.0,0.0,0.0,0.0,0.0,0.0,0.0,0.0,3.3867,3.3279,3.2848,3.2846,3.2048,3.2088,3.3338,3.2206,3.2056,3.322,3.2762,3.2928,3.3797,3.4604,3.4172,3.2555,3.3039,3.233,3.0664,3.0658,3.0662,3.0757,3.2525,3.3327,3.3485,3.5209,3.5923,3.5952,3.5926,3.5922,3.5922,3.5922,3.6494,3.734,3.7848,3.8846,3.998,4.0488,4.0566,4.0469,4.0605,4.0918,4.1191,4.1191,4.1191,4.1191,4.1191,4.1191,4.1191,4.1191,4.1191,4.1191,4.1191,4.1171,4.1169,4.1191,4.2128,4.306,4.3538,4.4729,4.5753,4.6142,4.6202,4.6215,4.6289,4.6308,4.6308,4.6308,4.6308,4.6308,4.6308,4.6308,4.6308,4.6308,4.6308,4.6308,4.6308,4.6308,4.6308,4.6308,4.6308,4.6308,4.6308,4.6308,4.6562,4.707,4.7949,4.8828,2.465,0.0,0.0,0.0,0.0,0.0,0.0,0.0,0.0,0.0,0.0,0.0,0.0,0.0,0.0,0.0,0.0,0.0,0.0,0.0,0.0,0.0,0.0,0.0,0.0,3.3549,3.3508,3.3741,3.2722,3.2681,3.4048,3.306,3.2832,3.3629,3.3031,3.3014,3.3657,3.4248,3.3805,3.2386,3.2781,3.2176,3.0725,3.0732,3.0852,3.1165,3.267,3.3483,3.3864,3.5325,3.5955,3.5996,3.5996,3.5996,3.5996,3.5996,3.6699,3.7754,3.8379,3.918,3.9961,4.0351,4.0215,4.0019,4.0644,4.1016,4.1191,4.1191,4.1191,4.1191,4.1191,4.1191,4.1191,4.1191,4.1191,4.1191,4.1191,4.1191,4.1269,4.1484,4.2187,4.3027,4.3906,4.505,4.5932,4.6195,4.6209,4.6215,4.6289,4.6308,4.6308,4.6308,4.6308,4.6308,4.6308,4.6308,4.6308,4.6308,4.6308,4.6308,4.6308,4.6308,4.6308,4.6308,4.6308,4.6308,4.6308,4.6308,4.6875,4.7969,4.8613,4.9375,0.0,0.0,0.0,2.4707,0.0,0.0,0.0,0.0,2.6403,0.0,0.0,0.0,0.0,0.0,0.0,0.0,0.0,0.0,0.0,0.0,0.0,0.0,0.0,0.0,0.0,3.3895,3.3756,0.0,3.3067,3.3222,3.5778,3.4281,3.3725,3.4531,3.4528,3.4527,3.4567,3.4584,3.4178,3.3355,3.2538,3.1675,3.0796,3.0798,3.1267,3.2106,3.3005,3.3879,3.4722,3.5621,3.5992,3.5991,3.5991,3.5993,3.5995,3.5996,3.709,3.8555,3.8594,3.918,3.9766,3.8945,3.9238,3.9902,3.9922,4.0527,4.1191,4.1191,4.1191,4.1191,4.1191,4.1191,4.1191,4.1191,4.1191,4.1191,4.1191,4.1191,4.1426,4.2207,4.3066,4.3945,4.4805,4.4952,4.5257,4.6152,4.624,4.6215,4.6289,4.6308,4.6308,4.6308,4.6308,4.6308,4.6308,4.6308,4.6308,4.6308,4.6308,4.6308,4.6308,4.6308,4.6308,4.6308,4.6308,4.6308,4.6308,4.6308,4.7187,4.8867,4.8887,4.9375,0.0,0.0,2.47,2.47,0.0,0.0,0.0,0.0,0.0,0.0,0.0,0.0,0.0,0.0,0.0,0.0,0.0,0.0,0.0,0.0,0.0,0.0,0.0,0.0,0.0,0.0,0.0,3.4686,3.4159,3.4452,3.5914,3.4882,3.4382,3.4663,3.4118,3.3807,3.3808,3.3807,3.3376,3.2533,3.2241,3.1676,3.0857,3.0816,3.1283,3.2143,3.3018,3.3896,3.4776,3.5638,3.5991,3.5991,3.5991,3.5992,3.6071,3.6657,3.7596,3.8672,3.9258,3.9277,3.9082,3.9375,3.9668,4.0019,4.0586,4.0976,4.1191,4.1191,4.1191,4.1191,4.1191,4.1191,4.1191,4.1191,4.1191,4.1191,4.1191,4.1191,4.1445,4.2246,4.3105,4.3984,4.4844,4.5468,4.5936,4.625,4.6288,4.6268,4.6308,4.6308,4.6308,4.6308,4.6308,4.6308,4.6308,4.6308,4.6308,4.6308,4.6308,4.6308,4.6308,4.6308,4.6308,4.6308,4.6308,4.6308,4.6308,4.6308,4.7207,4.8906,4.8906,4.9648,2.47,2.47,0.0,2.47,2.4723,0.0,2.4757,0.0,0.0,0.0,0.0,0.0,0.0,0.0,0.0,0.0,0.0,0.0,0.0,0.0,0.0,0.0,0.0,0.0,0.0,0.0,3.4159,3.5096,3.4588,3.4744,0.0,3.5465,3.5156,3.516,3.4613,3.4322,3.4325,3.4029,3.3424,3.2568,3.2249,3.1663,3.0865,3.1134,3.1738,3.2617,3.3479,3.436,3.5219,3.577,3.6005,3.6005,3.6005,3.6007,3.6106,3.6986,3.7849,3.8672,3.9238,3.9062,3.873,3.9629,3.9902,4.0059,4.0937,4.1191,4.1191,4.1191,4.1191,4.1191,4.1191,4.1191,4.1191,4.1191,4.1191,4.1289,4.1562,4.1406,4.1621,4.3047,4.3535,4.4082,4.5254,4.5937,4.6308,4.6308,4.6308,4.6308,4.6308,4.6308,4.6308,4.6308,4.6308,4.6308,4.6308,4.6308,4.6308,4.6308,4.6308,4.6308,4.6308,4.6308,4.6308,4.6308,4.6308,4.6308,4.6308,4.6308,4.7207,4.8906,4.8906,4.9805]}]]